[[{"header":{"parameterUnit":"m.s-1","parameterCategory":1,"la1":30.6,"la2":29.2853,"lo1":-89.7004,"lo2":-87.6739,"dx":0.0162,"dy":0.0183,"nx":112,"ny":82,"refTime":"2022-12-01T06:00:00:Z","depth":0,"parameterNumber":2,"parameterNumberName":"U-component_of_WINDS"},"data":[0.0,0.0,0.0,0.0,0.0,0.0,0.0,0.0,0.0,0.0,0.0,0.0,0.0,0.0,0.0,0.0,0.0,0.0,0.0,0.0,0.0,0.0,0.0,0.0,0.0,0.0,0.0,0.0,0.0,0.0,0.0,0.0,0.0,0.0,0.0,0.0,0.0,0.0,0.0,0.0,0.0,0.0,0.0,0.0,0.0,0.0,0.0,0.0,0.0,0.0,0.0,0.0,0.0,0.0,0.0,0.0,0.0,0.0,0.0,0.0,0.0,0.0,0.0,0.0,0.0,0.0,0.0,0.0,0.0,0.0,0.0,0.0,0.0,0.0,0.0,0.0,0.0,0.0,0.0,0.0,0.0,0.0,0.0,0.0,0.0,0.0,0.0,0.0,0.0,0.0,-1.8822,-2.0053,-2.1152,-2.1812,-2.1812,-2.1812,-2.0853,-1.8638,0.0,0.0,0.0,0.0,0.0,0.0,0.0,0.0,0.0,0.0,0.0,0.0,0.0,0.0,0.0,0.0,0.0,0.0,0.0,0.0,0.0,0.0,0.0,0.0,0.0,0.0,0.0,0.0,0.0,0.0,0.0,0.0,0.0,0.0,0.0,0.0,0.0,0.0,0.0,0.0,0.0,0.0,0.0,0.0,0.0,0.0,0.0,0.0,0.0,0.0,0.0,0.0,0.0,0.0,0.0,0.0,0.0,0.0,0.0,0.0,0.0,0.0,0.0,0.0,0.0,0.0,0.0,0.0,0.0,0.0,0.0,0.0,0.0,0.0,0.0,0.0,0.0,0.0,0.0,0.0,0.0,0.0,0.0,0.0,0.0,0.0,0.0,0.0,0.0,0.0,0.0,0.0,0.0,0.0,0.0,0.0,0.0,0.0,0.0,0.0,0.0,0.0,0.0,0.0,-1.8033,-2.1176,-2.1678,-2.1812,-2.1812,-2.1812,-2.0853,-1.8638,0.0,0.0,0.0,0.0,0.0,0.0,0.0,0.0,0.0,0.0,0.0,0.0,0.0,0.0,0.0,0.0,0.0,0.0,0.0,0.0,0.0,0.0,0.0,0.0,0.0,0.0,0.0,0.0,0.0,0.0,0.0,0.0,0.0,0.0,0.0,0.0,0.0,0.0,0.0,0.0,0.0,0.0,0.0,0.0,0.0,0.0,0.0,0.0,0.0,0.0,0.0,0.0,0.0,0.0,0.0,0.0,0.0,0.0,0.0,0.0,0.0,0.0,0.0,0.0,0.0,0.0,0.0,0.0,0.0,0.0,0.0,0.0,0.0,0.0,0.0,0.0,0.0,0.0,0.0,0.0,0.0,0.0,0.0,0.0,0.0,0.0,0.0,0.0,0.0,0.0,0.0,0.0,0.0,0.0,0.0,0.0,0.0,0.0,0.0,0.0,0.0,0.0,0.0,-1.7679,-1.91,-2.1547,-2.1812,-2.1812,-2.1812,-2.1812,-2.0688,-1.812,-1.8102,0.0,0.0,0.0,0.0,0.0,0.0,0.0,0.0,0.0,0.0,0.0,0.0,0.0,0.0,0.0,0.0,0.0,0.0,0.0,0.0,0.0,0.0,0.0,0.0,0.0,0.0,0.0,0.0,0.0,0.0,0.0,0.0,0.0,0.0,0.0,0.0,0.0,0.0,0.0,0.0,0.0,0.0,0.0,0.0,0.0,0.0,0.0,0.0,0.0,0.0,0.0,0.0,0.0,0.0,0.0,0.0,0.0,0.0,0.0,0.0,0.0,0.0,0.0,0.0,0.0,0.0,0.0,0.0,0.0,0.0,0.0,0.0,0.0,0.0,0.0,0.0,0.0,0.0,0.0,0.0,0.0,0.0,0.0,0.0,0.0,0.0,0.0,0.0,0.0,0.0,0.0,0.0,0.0,0.0,0.0,0.0,0.0,0.0,0.0,0.0,0.0,0.0,-1.986,-2.074,-2.1713,-2.2096,-2.2193,-2.1829,-2.1961,-2.0768,-1.7685,-1.7611,0.0,0.0,0.0,0.0,0.0,0.0,0.0,0.0,0.0,0.0,0.0,0.0,0.0,0.0,0.0,0.0,0.0,0.0,0.0,0.0,0.0,0.0,0.0,0.0,0.0,0.0,0.0,0.0,0.0,0.0,0.0,0.0,0.0,0.0,0.0,0.0,0.0,0.0,0.0,0.0,0.0,0.0,0.0,0.0,0.0,0.0,0.0,0.0,0.0,0.0,0.0,0.0,0.0,0.0,0.0,0.0,0.0,0.0,0.0,0.0,0.0,0.0,0.0,0.0,0.0,0.0,0.0,0.0,0.0,0.0,0.0,0.0,0.0,0.0,0.0,0.0,0.0,0.0,0.0,0.0,0.0,0.0,0.0,0.0,0.0,0.0,0.0,0.0,0.0,0.0,0.0,0.0,0.0,0.0,0.0,0.0,0.0,0.0,0.0,0.0,0.0,0.0,-2.0555,-2.2443,-2.1862,-2.3023,-2.3288,-2.1928,-2.2427,-2.1298,-1.7718,-1.7498,0.0,0.0,0.0,0.0,0.0,0.0,0.0,0.0,0.0,0.0,0.0,0.0,0.0,0.0,0.0,0.0,0.0,0.0,0.0,0.0,0.0,0.0,0.0,0.0,0.0,0.0,0.0,0.0,0.0,0.0,0.0,0.0,0.0,0.0,0.0,0.0,0.0,0.0,0.0,0.0,0.0,0.0,0.0,0.0,0.0,0.0,0.0,0.0,0.0,0.0,0.0,0.0,0.0,0.0,0.0,0.0,0.0,0.0,0.0,0.0,0.0,0.0,0.0,0.0,0.0,0.0,0.0,0.0,0.0,0.0,0.0,0.0,0.0,0.0,0.0,0.0,0.0,0.0,0.0,0.0,0.0,0.0,0.0,0.0,0.0,0.0,0.0,0.0,0.0,0.0,0.0,0.0,0.0,0.0,0.0,0.0,0.0,0.0,0.0,0.0,0.0,0.0,-1.9853,-2.1779,-2.2426,-2.3388,-2.3785,-2.3222,-2.3007,-2.1532,-1.8336,0.0,0.0,0.0,0.0,0.0,0.0,0.0,0.0,0.0,0.0,0.0,0.0,0.0,0.0,0.0,0.0,0.0,0.0,0.0,0.0,0.0,0.0,0.0,0.0,0.0,0.0,0.0,0.0,0.0,0.0,0.0,0.0,0.0,0.0,0.0,0.0,0.0,0.0,0.0,0.0,0.0,0.0,0.0,0.0,0.0,0.0,0.0,0.0,0.0,0.0,0.0,0.0,0.0,0.0,0.0,0.0,0.0,0.0,0.0,0.0,0.0,0.0,0.0,0.0,0.0,0.0,0.0,0.0,0.0,0.0,0.0,0.0,0.0,0.0,0.0,0.0,0.0,0.0,0.0,0.0,0.0,0.0,0.0,0.0,0.0,0.0,0.0,0.0,0.0,0.0,0.0,0.0,0.0,0.0,0.0,0.0,0.0,0.0,0.0,0.0,0.0,0.0,-1.751,-2.0334,-2.2377,-2.3172,-2.4116,-2.4514,-2.405,-2.3752,-2.2046,-1.8406,0.0,0.0,0.0,0.0,0.0,0.0,0.0,0.0,0.0,0.0,0.0,0.0,0.0,0.0,0.0,0.0,0.0,0.0,0.0,0.0,0.0,0.0,0.0,0.0,0.0,0.0,0.0,0.0,0.0,0.0,0.0,0.0,0.0,0.0,0.0,0.0,0.0,0.0,0.0,0.0,0.0,0.0,0.0,0.0,0.0,0.0,0.0,0.0,0.0,0.0,0.0,0.0,0.0,0.0,0.0,0.0,0.0,0.0,0.0,0.0,0.0,0.0,0.0,0.0,0.0,0.0,0.0,0.0,0.0,0.0,0.0,0.0,0.0,0.0,0.0,0.0,0.0,0.0,0.0,0.0,0.0,0.0,0.0,0.0,0.0,0.0,0.0,0.0,0.0,0.0,0.0,0.0,0.0,0.0,0.0,0.0,0.0,0.0,0.0,0.0,0.0,0.0,-1.8323,-2.2362,-2.4829,-2.41,-2.5325,-2.5624,-2.4149,-2.4696,-2.294,0.0,0.0,0.0,0.0,0.0,0.0,0.0,0.0,0.0,0.0,0.0,0.0,0.0,0.0,0.0,0.0,0.0,0.0,0.0,0.0,0.0,0.0,0.0,0.0,0.0,0.0,0.0,0.0,0.0,0.0,0.0,0.0,0.0,0.0,0.0,0.0,0.0,0.0,0.0,0.0,0.0,0.0,0.0,0.0,0.0,0.0,0.0,0.0,0.0,0.0,0.0,0.0,0.0,0.0,0.0,0.0,0.0,0.0,0.0,0.0,0.0,0.0,0.0,0.0,0.0,0.0,0.0,0.0,0.0,0.0,0.0,0.0,0.0,0.0,0.0,0.0,0.0,0.0,0.0,0.0,0.0,0.0,0.0,0.0,0.0,0.0,0.0,0.0,0.0,0.0,0.0,0.0,0.0,0.0,0.0,0.0,0.0,0.0,0.0,0.0,0.0,0.0,0.0,-1.8323,-2.2362,-2.5027,-2.4812,-2.5623,-2.602,-2.559,-2.5739,-2.367,-1.8522,0.0,0.0,0.0,0.0,0.0,0.0,0.0,0.0,0.0,0.0,0.0,0.0,0.0,0.0,0.0,0.0,0.0,0.0,0.0,0.0,0.0,0.0,0.0,0.0,0.0,0.0,0.0,0.0,0.0,0.0,0.0,0.0,0.0,0.0,0.0,0.0,0.0,0.0,0.0,0.0,0.0,0.0,0.0,0.0,0.0,0.0,0.0,0.0,0.0,0.0,0.0,0.0,0.0,0.0,0.0,0.0,0.0,0.0,0.0,0.0,0.0,0.0,0.0,0.0,0.0,0.0,0.0,0.0,0.0,0.0,0.0,0.0,0.0,0.0,0.0,0.0,0.0,0.0,0.0,0.0,0.0,0.0,0.0,0.0,0.0,0.0,0.0,0.0,0.0,0.0,0.0,0.0,0.0,0.0,0.0,0.0,0.0,0.0,0.0,0.0,0.0,0.0,-1.877,-2.2792,-2.5657,-2.5938,-2.6369,-2.6766,-2.7048,-2.7081,-2.5259,-2.0955,0.0,0.0,0.0,0.0,0.0,0.0,0.0,0.0,0.0,0.0,0.0,0.0,0.0,0.0,0.0,0.0,0.0,0.0,0.0,0.0,0.0,0.0,0.0,0.0,0.0,0.0,0.0,0.0,0.0,0.0,0.0,0.0,0.0,0.0,0.0,0.0,0.0,0.0,0.0,0.0,0.0,0.0,0.0,0.0,0.0,0.0,0.0,0.0,0.0,0.0,0.0,0.0,0.0,0.0,0.0,0.0,0.0,0.0,0.0,0.0,0.0,0.0,0.0,0.0,0.0,0.0,0.0,0.0,0.0,0.0,0.0,0.0,0.0,0.0,0.0,0.0,0.0,0.0,0.0,0.0,0.0,0.0,0.0,0.0,0.0,0.0,0.0,0.0,0.0,0.0,0.0,0.0,0.0,0.0,0.0,0.0,0.0,0.0,0.0,0.0,0.0,0.0,-1.9515,-2.357,-2.6584,-2.7315,-2.7398,-2.7663,-2.8343,-2.8459,-2.7216,-2.4199,0.0,0.0,0.0,0.0,0.0,0.0,0.0,0.0,0.0,0.0,0.0,0.0,0.0,0.0,0.0,0.0,0.0,0.0,0.0,0.0,0.0,0.0,0.0,0.0,0.0,0.0,0.0,0.0,0.0,0.0,0.0,0.0,0.0,0.0,0.0,0.0,0.0,0.0,0.0,0.0,0.0,0.0,0.0,0.0,0.0,0.0,0.0,0.0,0.0,0.0,0.0,0.0,0.0,0.0,0.0,0.0,0.0,0.0,0.0,0.0,-1.5092,-1.1502,0.0,0.0,0.0,0.0,0.0,0.0,0.0,0.0,0.0,0.0,0.0,0.0,0.0,0.0,0.0,0.0,0.0,0.0,0.0,0.0,0.0,0.0,0.0,0.0,0.0,0.0,0.0,0.0,0.0,0.0,0.0,0.0,0.0,0.0,0.0,0.0,0.0,0.0,0.0,0.0,-2.0221,-2.4332,-2.7348,-2.8078,-2.816,-2.8227,-2.8392,-2.887,-2.7711,-2.4216,-2.3818,0.0,0.0,0.0,0.0,0.0,0.0,0.0,0.0,0.0,0.0,0.0,0.0,0.0,0.0,0.0,0.0,0.0,0.0,0.0,0.0,0.0,0.0,0.0,0.0,0.0,0.0,0.0,0.0,0.0,0.0,0.0,0.0,0.0,0.0,0.0,0.0,0.0,0.0,0.0,0.0,0.0,0.0,0.0,0.0,0.0,0.0,0.0,0.0,0.0,0.0,0.0,0.0,0.0,0.0,0.0,0.0,0.0,0.0,0.0,-1.6894,-1.494,0.0,0.0,0.0,0.0,0.0,0.0,0.0,0.0,0.0,0.0,0.0,0.0,0.0,0.0,0.0,0.0,0.0,0.0,0.0,0.0,0.0,0.0,0.0,0.0,0.0,0.0,0.0,0.0,0.0,0.0,0.0,0.0,0.0,0.0,0.0,0.0,0.0,0.0,0.0,0.0,-2.047,-2.4862,-2.8094,-2.8804,-2.8675,-2.8783,-2.9347,-2.951,-2.8878,-2.7228,-2.5855,0.0,0.0,0.0,0.0,0.0,0.0,0.0,0.0,0.0,0.0,0.0,0.0,0.0,0.0,0.0,0.0,0.0,0.0,0.0,0.0,0.0,0.0,0.0,0.0,0.0,0.0,0.0,0.0,0.0,0.0,0.0,0.0,0.0,0.0,0.0,0.0,0.0,0.0,0.0,0.0,0.0,0.0,0.0,0.0,0.0,0.0,0.0,0.0,0.0,0.0,0.0,0.0,0.0,-1.7744,-1.7944,-1.7944,-1.8089,-1.9231,-2.1025,-1.9224,-1.9257,-2.0296,-1.6433,0.0,0.0,0.0,0.0,0.0,0.0,0.0,0.0,0.0,0.0,0.0,0.0,0.0,0.0,0.0,0.0,0.0,0.0,0.0,0.0,0.0,0.0,-1.9997,-1.9484,-2.1043,-2.2037,-1.977,0.0,0.0,0.0,0.0,0.0,0.0,0.0,0.0,0.0,0.0,0.0,-2.1248,-2.5584,-2.8682,-2.9293,-2.9072,-2.9311,-3.0293,-3.0092,-3.0049,-3.0363,-2.7561,-2.5646,0.0,0.0,0.0,0.0,0.0,0.0,0.0,0.0,0.0,0.0,0.0,0.0,0.0,0.0,0.0,0.0,0.0,0.0,0.0,0.0,0.0,0.0,0.0,0.0,0.0,0.0,0.0,0.0,0.0,0.0,0.0,0.0,-1.5135,-1.5127,0.0,0.0,0.0,0.0,0.0,0.0,0.0,0.0,0.0,0.0,0.0,0.0,0.0,-1.6428,-1.6871,-1.8842,-1.9829,-1.9847,-2.1885,-2.2864,-2.29,-2.3578,-2.4085,-2.4393,-2.4784,0.0,-2.1369,-2.1414,0.0,0.0,0.0,0.0,0.0,0.0,0.0,0.0,0.0,0.0,0.0,0.0,0.0,0.0,0.0,0.0,0.0,0.0,0.0,0.0,0.0,0.0,-2.4755,-2.5113,-2.5029,-2.4946,-2.5146,-2.1203,-1.7489,-1.7098,-1.6986,-1.6016,0.0,0.0,0.0,0.0,0.0,0.0,-2.424,-2.7044,-2.8769,-2.9118,-2.945,-2.9718,-2.9881,-3.0215,-3.0262,-2.9919,-2.9442,-2.7835,-2.4887,-2.4065,0.0,0.0,0.0,0.0,0.0,0.0,0.0,0.0,0.0,0.0,0.0,0.0,0.0,0.0,0.0,0.0,0.0,0.0,0.0,0.0,0.0,0.0,0.0,0.0,0.0,0.0,0.0,0.0,0.0,-1.3582,-1.4247,-1.4259,-1.3634,-1.2675,0.0,0.0,0.0,0.0,0.0,0.0,0.0,0.0,0.0,-1.8709,-1.8749,-1.9366,-2.0735,-2.175,-2.2491,-2.2944,-2.3976,-2.4701,-2.5153,-2.5516,-2.5679,-2.5715,-2.6518,-2.6084,-2.4708,-2.3278,-2.145,-1.9459,0.0,0.0,0.0,0.0,-1.8622,-1.8807,-2.1337,-2.2216,-2.2113,-2.1665,0.0,0.0,0.0,0.0,0.0,0.0,0.0,-1.9568,-2.1772,-2.3308,-2.4638,-2.6117,-2.6217,-2.6049,-2.6349,-2.4662,-2.2495,-2.0474,-2.035,-1.9013,-1.3963,-1.5129,0.0,0.0,0.0,-2.2654,-2.5083,-2.7448,-2.9064,-2.9451,-2.9173,-2.9196,-2.975,-2.9467,-2.9293,-2.9393,-2.9416,-2.8723,-2.7239,-2.5061,-2.2348,0.0,0.0,0.0,0.0,0.0,0.0,0.0,0.0,0.0,0.0,0.0,0.0,0.0,0.0,0.0,0.0,0.0,0.0,0.0,0.0,0.0,0.0,0.0,0.0,0.0,0.0,0.0,0.0,-1.4174,-1.4647,-1.4434,-1.4787,-1.4083,0.0,0.0,0.0,0.0,0.0,0.0,-1.7599,-1.7643,-1.8766,-2.1198,-2.1234,-2.2058,-2.3858,-2.4034,-2.4411,-2.5009,-2.5208,-2.5624,-2.6222,-2.6409,-2.65,-2.6554,-2.7351,-2.7658,-2.7397,-2.5041,-2.3757,-2.3115,-2.1455,-2.0499,-2.0165,-2.1292,-2.1537,-2.1732,-2.4527,-2.5445,-2.5306,-2.4764,-2.3999,-2.2823,-2.0442,0.0,0.0,0.0,0.0,-2.0713,-2.2898,-2.3816,-2.4553,-2.6185,-2.6654,-2.6718,-2.6718,-2.7214,-2.681,-2.393,-2.3914,-2.2569,-1.6862,-1.8588,0.0,-1.7917,-2.1405,-2.4746,-2.5974,-2.7756,-2.8966,-2.9219,-2.867,-2.8599,-2.9355,-2.8873,-2.8614,-2.8889,-2.8912,-2.8842,-2.8724,-2.6193,-2.4296,-2.3227,0.0,0.0,0.0,0.0,0.0,0.0,0.0,0.0,0.0,0.0,0.0,0.0,0.0,0.0,0.0,0.0,0.0,0.0,0.0,0.0,0.0,0.0,0.0,0.0,0.0,0.0,0.0,0.0,0.0,-1.7762,-1.9073,0.0,0.0,0.0,0.0,-1.6512,-1.6689,-1.778,-2.0001,-2.019,-2.1261,-2.3552,-2.3625,-2.3679,-2.3806,-2.4556,-2.4954,-2.5009,-2.5769,-2.6168,-2.624,-2.6989,-2.7333,-2.7369,-2.8183,-2.8368,-2.8058,-2.7897,-2.6679,-2.4914,-2.5315,-2.4257,-2.2759,-2.4772,-2.5513,-2.5727,-2.7357,-2.7762,-2.7581,-2.7792,-2.5623,-2.2883,-2.2743,-2.0984,0.0,0.0,-2.2677,-2.3665,-2.5815,-2.6421,-2.6454,-2.6486,-2.6933,-2.7344,-2.7344,-2.7888,-2.8116,-2.7293,-2.767,-2.7133,-2.3984,0.0,-2.3786,-2.3831,-2.4114,-2.5222,-2.7814,-2.8259,-2.8183,-2.776,-2.8076,-2.8312,-2.836,-2.8818,-2.885,-2.836,-2.8336,-2.8149,-2.7685,-2.7933,-2.639,-2.2825,-2.2998,0.0,0.0,0.0,0.0,0.0,0.0,0.0,0.0,0.0,0.0,0.0,0.0,0.0,0.0,0.0,0.0,0.0,0.0,0.0,0.0,0.0,0.0,0.0,0.0,0.0,0.0,0.0,0.0,-1.8071,-1.9348,0.0,-1.6929,-1.8099,-1.9031,-1.9073,-2.0454,-2.1688,-2.2569,-2.2603,-2.2984,-2.384,-2.4324,-2.4596,-2.4646,-2.5382,-2.6041,-2.6548,-2.6838,-2.7242,-2.7749,-2.8038,-2.8165,-2.8171,-2.8257,-2.8215,-2.8088,-2.7911,-2.7512,-2.7018,-2.7201,-2.6821,-2.627,-2.7022,-2.7041,-2.6789,-2.7325,-2.7459,-2.7382,-2.7487,-2.668,-2.5621,-2.5411,-2.4711,-2.4162,-2.4959,-2.5336,-2.5693,-2.6472,-2.6977,-2.7278,-2.7171,-2.7633,-2.8108,-2.8052,-2.8636,-2.9107,-2.886,-2.8948,-2.7976,-2.458,-2.6083,-2.6948,-2.4648,-2.6054,-2.7608,-2.8206,-2.8288,-2.8231,-2.8076,-2.7929,-2.7978,-2.8264,-2.8198,-2.8042,-2.787,-2.7845,-2.777,-2.7625,-2.776,-2.7227,-2.5878,-2.602,-2.332,0.0,0.0,0.0,0.0,0.0,0.0,0.0,0.0,0.0,0.0,0.0,0.0,0.0,0.0,0.0,0.0,0.0,0.0,0.0,0.0,0.0,0.0,0.0,0.0,0.0,-1.8467,-1.9837,-1.8461,-2.0191,-2.0563,-1.8161,-2.0109,-2.1524,-2.158,-2.2996,-2.3886,-2.3896,-2.4035,-2.4115,-2.4136,-2.4901,-2.5328,-2.5362,-2.6215,-2.6909,-2.7441,-2.7689,-2.8075,-2.8587,-2.8492,-2.8435,-2.8409,-2.8093,-2.7894,-2.7779,-2.7592,-2.7639,-2.7808,-2.7908,-2.7968,-2.795,-2.7837,-2.7547,-2.7181,-2.7069,-2.7101,-2.7181,-2.7069,-2.7037,-2.6989,-2.6775,-2.6691,-2.6691,-2.6691,-2.6877,-2.7063,-2.7046,-2.7551,-2.8052,-2.7945,-2.8457,-2.8932,-2.8912,-2.9499,-3.0019,-2.9979,-2.9939,-2.9134,-2.669,-2.8272,-2.8822,-2.5705,-2.7288,-2.8482,-2.7498,-2.7786,-2.8076,-2.8076,-2.7795,-2.7826,-2.8362,-2.7499,-2.7315,-2.8229,-2.7645,-2.757,-2.8244,-2.7195,-2.6572,-2.6572,-2.6572,-2.4208,-1.9373,0.0,0.0,0.0,0.0,0.0,0.0,0.0,0.0,0.0,0.0,0.0,0.0,0.0,0.0,0.0,0.0,0.0,0.0,0.0,0.0,0.0,0.0,0.0,-1.9247,-1.9926,-2.0199,-1.9349,-2.2006,-2.2978,-2.0635,-2.2532,-2.3896,-2.3896,-2.3955,-2.3955,-2.3922,-2.4404,-2.4676,-2.4646,-2.5481,-2.5941,-2.5953,-2.7013,-2.7543,-2.7543,-2.8257,-2.8587,-2.8574,-2.8242,-2.8102,-2.8075,-2.7815,-2.7522,-2.7213,-2.7213,-2.7213,-2.7228,-2.7567,-2.7669,-2.7657,-2.7322,-2.7197,-2.7133,-2.6808,-2.6907,-2.7133,-2.6808,-2.6691,-2.6691,-2.6691,-2.6691,-2.6691,-2.6725,-2.7249,-2.7789,-2.7752,-2.8289,-2.8826,-2.8843,-2.9357,-2.9856,-2.9919,-3.0432,-3.0871,-3.0733,-3.081,-3.0851,-3.0692,-3.0284,-2.9324,-2.7423,-2.782,0.0,-2.5895,-2.6806,-2.7595,-2.754,-2.754,-2.7809,-2.8487,-2.6752,-2.6767,-2.9442,-2.7754,-2.756,-2.9532,-2.6497,-2.4769,-2.4769,-2.4649,-2.3977,-2.2763,0.0,0.0,0.0,0.0,0.0,0.0,0.0,0.0,0.0,0.0,0.0,0.0,0.0,0.0,0.0,0.0,0.0,0.0,0.0,0.0,0.0,-1.9304,-2.0898,-2.0074,-2.1641,-2.2783,-2.2538,-2.3321,-2.3622,-2.2918,-2.3484,-2.3816,-2.361,-2.3642,-2.3804,-2.4171,-2.4322,-2.4761,-2.5516,-2.639,-2.6915,-2.7055,-2.7943,-2.8342,-2.8311,-2.8504,-2.8461,-2.8228,-2.8143,-2.7992,-2.7815,-2.7728,-2.7657,-2.755,-2.755,-2.743,-2.7213,-2.7307,-2.7338,-2.7322,-2.7228,-2.7053,-2.6825,-2.6725,-2.6758,-2.6825,-2.6725,-2.6691,-2.6691,-2.6691,-2.6691,-2.681,-2.7351,-2.7638,-2.7942,-2.85,-2.9191,-2.973,-2.9621,-3.0154,-3.065,-3.0513,-3.0701,-3.0871,-3.0733,-3.081,-3.0712,-3.0156,-2.9661,-2.9023,-2.8101,-2.8498,-2.8443,-2.7214,-2.7667,-2.7598,-2.6291,-2.6153,-2.6422,-2.7081,-2.6632,-2.726,-2.9472,-2.9097,-2.9037,-2.9592,-2.8697,-2.8218,-2.8218,-2.583,-2.4425,0.0,0.0,0.0,0.0,0.0,0.0,0.0,0.0,0.0,0.0,0.0,0.0,0.0,0.0,0.0,0.0,0.0,0.0,0.0,0.0,0.0,0.0,-2.1133,-2.2263,-2.1722,-2.2893,-2.3806,-2.3837,-2.3803,-2.375,-2.3682,-2.3667,-2.3551,-2.3346,-2.3626,-2.3968,-2.4272,-2.4897,-2.5522,-2.6179,-2.7133,-2.7695,-2.7827,-2.8403,-2.8669,-2.865,-2.8461,-2.8299,-2.8102,-2.7837,-2.7636,-2.7474,-2.7336,-2.7274,-2.7274,-2.7274,-2.7181,-2.7005,0.0,0.0,0.0,0.0,-2.6874,-2.6691,-2.6691,-2.6691,-2.6691,-2.6691,-2.6691,-2.6691,-2.6691,-2.6911,-2.7249,-2.7672,-2.8263,-2.8872,-2.933,-3.0006,-3.0545,-3.0395,-3.0695,-3.0955,-3.0831,-3.0834,-3.0871,-3.0733,-3.0593,0.0,-2.9617,-2.9309,-2.883,-2.7928,-2.8186,-2.8047,-2.6909,-2.7729,-2.8031,-2.6971,-2.7111,-2.753,-2.8173,-2.7495,0.0,0.0,0.0,-2.8921,-2.8378,-2.8349,0.0,0.0,0.0,-2.5845,-2.6692,-2.5031,0.0,0.0,-2.2014,-2.1565,0.0,0.0,0.0,0.0,0.0,0.0,0.0,0.0,0.0,0.0,0.0,0.0,0.0,0.0,0.0,0.0,-2.2781,-2.3732,-2.3549,-2.3667,-2.3816,-2.3855,-2.3696,-2.3576,-2.3518,-2.3376,-2.3224,-2.3075,-2.3794,-2.4291,-2.4366,-2.5725,0.0,0.0,0.0,-2.825,-2.8337,-2.8589,-2.8694,-2.8682,-2.8295,-2.8088,-2.8083,-2.7474,-2.7181,-2.7133,-2.6874,-2.6758,-2.6758,-2.6758,-2.6725,-2.6725,-2.7021,-2.6956,-2.6691,-2.6691,-2.6691,-2.6691,-2.6691,0.0,0.0,-2.6691,-2.6691,-2.6708,-2.6793,-2.7266,-2.7841,-2.801,-2.9041,-3.0125,-3.019,-3.0717,-3.1171,-3.1035,-3.0995,-3.0975,-3.0892,-3.0892,-3.0851,-3.0692,-3.03,-2.9815,-2.928,-2.918,-2.8729,-2.735,-2.7508,-2.7335,-2.6093,-2.756,-2.8652,-2.8502,-2.9037,0.0,-3.0238,-2.8682,-2.8786,-3.1346,-2.9894,-2.8397,-2.72,-2.7141,-2.6871,-2.6288,-2.6856,-2.8023,-2.9831,-3.0357,-3.0342,-2.9654,-2.3631,-2.2413,0.0,0.0,0.0,0.0,0.0,0.0,0.0,0.0,0.0,0.0,0.0,0.0,0.0,0.0,0.0,-2.1414,-2.2781,-2.3742,-2.3605,-2.375,-2.3813,-2.3598,-2.3591,-2.3562,-2.3508,-2.3271,-2.3044,-2.2794,-2.3518,-2.4243,-2.4823,-2.5843,-2.6869,-2.787,-2.8201,-2.8448,-2.8614,-2.8669,-2.8669,-2.8612,-2.8268,0.0,-2.8009,-2.7452,-2.7053,-2.6808,-2.7021,-2.7101,-2.7101,-2.7101,-2.694,-2.6708,-2.6775,-2.6758,-2.6691,-2.6691,-2.6691,-2.6691,-2.6691,-2.6691,-2.6691,-2.6691,-2.6691,-2.681,-2.7401,-2.7689,0.0,-2.9311,-2.9869,-3.0243,-3.0835,-3.1089,-3.1171,-3.1035,-3.0995,-3.0955,-3.0773,-3.0733,-3.0692,-3.0551,-3.0156,-2.9793,-2.9683,-2.9371,-2.8732,-2.7683,-2.8347,-2.8748,-2.8105,-2.8831,-2.8992,-2.7914,-2.7914,-2.8259,-2.8906,-2.8622,-2.9295,-3.1376,-3.1152,-3.0823,-3.0554,-3.0554,-3.0494,-3.036,-3.0479,-3.0733,-3.1122,-3.1256,-3.1241,-3.1077,-2.8757,-2.8278,0.0,0.0,0.0,0.0,0.0,0.0,0.0,0.0,0.0,0.0,0.0,-1.8253,-1.8789,0.0,-2.1594,-2.2508,-2.3288,-2.37,-2.3435,-2.3569,-2.3646,-2.3463,-2.3445,-2.337,-2.323,-2.293,-2.2859,-2.3083,-2.3967,-2.4837,-2.5614,-2.6739,-2.7628,-2.8232,-2.8443,-2.8594,-2.8694,-2.8495,-2.8391,-2.8339,-2.795,-2.7697,-2.7581,-2.7152,-2.6858,-2.6708,-2.6874,-2.6956,-2.6956,-2.6956,-2.6858,-2.6691,-2.6691,-2.6691,-2.6691,-2.6691,-2.6691,-2.6691,-2.6691,-2.6691,-2.6691,-2.6691,-2.6945,-2.7334,-2.7689,-2.8331,-2.9108,-2.9869,-3.0378,-3.0714,-3.101,-3.1112,-3.1072,-3.0895,-3.0855,-3.0814,-3.0651,-3.0609,-3.051,-3.0215,-2.9962,-2.9752,-2.9579,-2.9359,-2.9038,-2.8535,-2.8738,-2.8984,-2.9094,-2.9654,-2.9789,-2.9101,-2.934,-2.9699,-3.0016,-3.0046,-3.0464,-3.1451,-3.1511,-3.1511,-3.1511,-3.1511,-3.1511,-3.1511,-3.1511,-3.1511,-3.1511,-3.1511,-3.1511,-3.1481,-3.0838,-3.0717,0.0,0.0,0.0,0.0,0.0,0.0,0.0,-1.5445,-1.6456,-1.7159,-1.8365,-1.9559,-2.0359,-2.113,-2.2095,-2.3512,-2.3742,-2.3642,-2.3247,-2.3353,-2.3405,-2.3242,-2.32,-2.3103,-2.2884,-2.2699,-2.2892,-2.3559,-2.47,-2.5673,-2.6423,-2.7656,-2.8355,-2.8381,-2.8589,-2.8682,-2.8669,-2.8295,-2.8116,-2.8134,-2.7639,-2.7332,-2.723,-2.6957,-2.6792,-2.6691,-2.6691,-2.6691,-2.6691,-2.6691,-2.6691,-2.6691,-2.6691,-2.6691,-2.6691,-2.6691,-2.6691,-2.6691,-2.6691,-2.6691,-2.6725,-2.686,-2.7334,-2.7858,-2.8162,-2.9108,-3.0123,-3.0277,-3.0734,-3.1171,-3.1072,-3.1015,-3.0955,-3.0773,-3.0712,-3.0671,-3.0568,-3.0547,-3.0405,-2.9941,-2.9863,-2.9738,-2.9382,-2.9332,-2.9363,-2.9363,-2.9139,-2.916,-2.9726,-3.0313,-3.0702,-3.0702,-3.1182,-3.1511,-3.1511,-3.1511,-3.1511,-3.1511,-3.1511,-3.1511,-3.1511,-3.1511,-3.1511,-3.1511,-3.1511,-3.1511,-3.1511,-3.1511,-3.1511,-3.1511,-3.1511,-3.1511,-1.5162,-1.4191,-1.3521,-1.4789,-1.5701,-1.7158,0.0,-2.0807,-2.0781,-2.2048,-2.264,-2.2873,-2.2758,-2.3158,-2.3512,-2.3535,-2.3582,-2.3526,-2.3241,-2.3265,-2.3128,-2.2659,-2.2695,-2.2755,-2.2721,-2.3109,-2.352,-2.3925,-2.538,-2.6496,-2.7066,-2.799,-2.8543,-2.8657,-2.8682,-2.8675,-2.8612,-2.8268,-2.8161,-2.8268,-2.7687,-2.7397,-2.7373,-2.7332,-2.709,-2.6691,-2.6691,-2.6691,-2.6691,-2.6691,-2.6691,-2.6691,-2.6691,-2.6691,-2.6691,-2.6691,-2.6691,-2.6691,-2.6691,-2.6691,-2.681,-2.7452,-2.7739,-2.806,-2.943,-2.9954,-3.0243,-3.0886,-3.114,-3.119,-3.1171,-3.1092,-3.0975,-3.0892,-3.079,-3.0692,-3.0671,-3.0671,-3.0531,-3.007,-3.0071,-2.9982,-2.941,-2.9451,-2.9567,-2.9567,-2.9993,-3.0313,-3.0387,-3.0972,-3.1391,-3.1391,-3.1466,-3.1511,-3.1511,-3.1511,-3.1511,-3.1511,-3.1511,-3.1511,-3.1511,-3.1511,-3.1511,-3.1511,-3.1511,-3.1511,-3.1511,-3.1511,-3.1511,-3.1511,-3.1511,-3.1511,-1.7475,-1.6425,-1.5472,-1.6606,-1.7501,-1.8551,-2.0275,-2.0773,-2.1201,-2.2397,-2.2721,-2.2825,-2.2863,-2.3035,-2.3224,-2.3452,-2.3424,-2.333,-2.3265,-2.3151,-2.2927,-2.2555,-2.2548,-2.2756,-2.3179,-2.3598,-2.4289,-2.5324,-2.6353,-2.7238,-2.7971,-2.8457,-2.8651,-2.8476,-2.8425,-2.8299,-2.8087,-2.7779,-2.7681,-2.7763,-2.7329,-2.7072,-2.6987,-2.699,-2.6875,-2.6691,-2.6691,-2.6691,-2.6691,-2.6691,-2.6691,-2.6691,-2.6691,-2.6691,-2.6691,-2.6691,-2.6691,-2.6691,-2.6691,-2.6979,-2.7384,-2.7705,-2.8415,-2.9261,-2.9886,-3.0395,-3.0801,-3.1106,-3.119,-3.1171,-3.1052,-3.1012,-3.0955,-3.0814,-3.081,-3.0831,-3.0831,-3.0589,-3.0368,-3.0155,-2.9943,-2.9841,-2.9963,-3.006,-3.0253,-3.0657,-3.0597,-3.0657,-3.1017,-3.1331,-3.1511,-3.1511,-3.1511,-3.1511,-3.1511,-3.1511,-3.1511,-3.1511,-3.1511,-3.1511,-3.1511,-3.1511,-3.1511,-3.1511,-3.1511,-3.1511,-3.1511,-3.1511,-3.1511,-3.1511,-3.1511,-3.1511,-1.7737,-1.7084,-1.6668,-1.7918,-1.9005,-1.9912,-2.0474,-2.1002,-2.1556,-2.2279,-2.2405,-2.2446,-2.2582,-2.276,-2.301,-2.3342,-2.3307,-2.3235,-2.3283,-2.3015,-2.2738,-2.2528,-2.2781,-2.3261,-2.4001,-2.4292,-2.5018,-2.6426,-2.7238,-2.7967,-2.867,-2.8737,-2.8633,-2.8311,-2.817,-2.795,-2.7698,-2.7426,-2.7336,-2.7419,-2.7072,-2.6908,-2.6921,-2.6857,-2.6841,-2.6841,-2.6741,-2.6691,-2.6691,-2.6691,-2.6691,-2.6691,-2.6691,-2.6691,-2.6691,-2.6691,-2.6691,-2.6691,-2.6691,-2.7182,-2.7841,-2.806,-2.9007,-3.0142,-3.0345,-3.0784,-3.119,-3.119,-3.119,-3.1171,-3.1012,-3.0975,-3.0955,-3.0814,-3.0834,-3.0922,-3.0983,-3.0745,-3.0467,-3.0426,-3.0226,-3.0212,-3.0536,-3.07,-3.0956,-3.1493,-3.1106,-3.0943,-3.1436,-3.1511,-3.1511,-3.1511,-3.1511,-3.1511,-3.1511,-3.1511,-3.1511,-3.1511,-3.1511,-3.1511,-3.1511,-3.1511,-3.1511,-3.1511,-3.1511,-3.1511,-3.1511,-3.1511,-3.1511,-3.1511,-3.1511,-3.1511,-1.4861,-1.4988,-1.611,-1.8471,-2.0246,-2.1781,-2.3073,-2.32,-2.2952,-2.2734,-2.2685,-2.2605,-2.2366,-2.2947,-2.3406,-2.3159,-2.3212,-2.3313,-2.3301,-2.2902,-2.2565,-2.2515,-2.3484,-2.4441,-2.518,-2.5263,-2.5702,-2.681,-2.7923,-2.87,-2.8964,-2.8615,-2.8376,-2.8298,-2.7992,-2.7786,-2.7701,-2.7426,-2.7367,-2.7496,-2.7088,-2.7105,-2.7481,-2.726,-2.7181,-2.7165,-2.6841,-2.6691,-2.6691,-2.6691,-2.6691,-2.6691,-2.6691,-2.6691,-2.6691,-2.6691,-2.6691,-2.6691,-2.6691,-2.7182,-2.7925,-2.8722,-2.9482,-3.0243,-3.0954,-3.1173,-3.119,-3.119,-3.119,-3.119,-3.119,-3.1092,-3.0995,-3.0995,-3.0935,-3.0957,-3.122,-3.1282,-3.1189,-3.0937,-3.13,-3.1469,-3.0882,-3.1161,-3.1538,-3.1756,-3.1611,-3.1481,-3.1511,-3.1511,-3.1511,-3.1511,-3.1511,-3.1511,-3.1511,-3.1511,-3.1511,-3.1511,-3.1511,-3.1511,-3.1511,-3.1511,-3.1511,-3.1511,-3.1511,-3.1511,-3.1511,-3.1511,-3.1511,-3.1511,-3.1511,-3.1511,-1.6686,-1.6885,-1.753,-1.9431,-2.0699,-2.1699,-2.2525,-2.305,-2.3289,-2.3022,-2.298,-2.2933,-2.2845,-2.3092,-2.3329,-2.3414,-2.3248,-2.3151,-2.3277,-2.2902,-2.2582,-2.2515,-2.3514,-2.4502,-2.5228,-2.6152,-2.7063,-2.7967,-2.8543,-2.8905,-2.8994,-2.8651,-2.8443,-2.8381,-2.7869,-2.7582,-2.7502,-2.7274,-2.7166,-2.7169,-2.6907,-2.6955,-2.7293,-2.7005,-2.6874,-2.6858,-2.6741,-2.6691,-2.6691,-2.6691,-2.6691,-2.6691,-2.6691,-2.6691,-2.6691,-2.6691,-2.6691,-2.6759,-2.7249,-2.7943,-2.8721,-2.9482,-3.0226,-3.0869,-3.1123,-3.119,-3.119,-3.119,-3.119,-3.1171,-3.1075,-3.1112,-3.1112,-3.1015,-3.1052,-3.1137,-3.1275,-3.1138,-3.1064,-3.1381,-3.1387,-3.1416,-3.1571,-3.1732,-3.1826,-3.1784,-3.1727,-3.167,-3.1511,-3.1511,-3.1511,-3.1511,-3.1511,-3.1511,-3.1511,-3.1511,-3.1511,-3.1511,-3.1511,-3.1511,-3.1511,-3.1511,-3.1511,-3.1511,-3.1511,-3.1511,-3.1511,-3.1511,-3.1511,-3.1511,-3.1511,-3.1511,-1.7592,-1.769,-1.7918,-1.9829,-2.0898,-2.1674,-2.2298,-2.2994,-2.3458,-2.3289,-2.2947,-2.267,-2.2664,-2.2782,-2.2925,-2.3037,-2.34,-2.3572,-2.3283,-2.3217,-2.3201,-2.3148,-2.4138,-2.5017,-2.5559,-2.6778,-2.7839,-2.8547,-2.8858,-2.9005,-2.9005,-2.8651,-2.8404,-2.8264,-2.7739,-2.74,-2.7258,-2.7149,-2.7119,-2.7185,-2.7052,-2.7051,-2.7197,-2.6972,-2.6808,-2.6691,-2.6691,-2.6691,-2.6691,-2.6691,-2.6691,-2.6691,-2.6691,-2.6691,-2.6691,-2.6691,-2.686,-2.7165,-2.7638,-2.8332,-2.9128,-2.9871,-3.0598,-3.119,-3.119,-3.119,-3.119,-3.119,-3.119,-3.1171,-3.1075,-3.1131,-3.1171,-3.1075,-3.1354,-3.1564,-3.15,-3.1521,-3.1614,-3.1919,-3.1724,-3.1659,-3.2018,-3.2066,-3.2025,-3.1898,-3.187,-3.1769,-3.1524,-3.1511,-3.1511,-3.1511,-3.1511,-3.1511,-3.1511,-3.1511,-3.1511,-3.1511,-3.1511,-3.1511,-3.1511,-3.1511,-3.1511,-3.1511,-3.1511,-3.1511,-3.1511,-3.1511,-3.1511,-3.1511,-3.1511,-3.1511,-1.7483,-1.7364,-1.7364,-1.9666,-2.088,-2.1703,-2.2463,-2.3084,-2.3491,-2.3365,-2.2527,-2.1797,-2.1667,-2.1938,-2.2146,-2.2027,-2.3571,-2.4407,-2.3256,-2.3746,-2.4229,-2.4294,-2.5232,-2.5973,-2.6179,-2.717,-2.799,-2.8463,-2.873,-2.8895,-2.8932,-2.8548,-2.8205,-2.7984,-2.7604,-2.7274,-2.704,-2.7087,-2.7246,-2.7526,-2.7481,-2.7371,-2.7228,-2.7181,-2.7005,-2.6691,-2.6691,-2.6691,-2.6691,-2.6691,-2.6691,-2.6691,-2.6691,-2.6691,-2.6691,-2.6742,-2.7199,-2.7824,-2.7891,-2.8433,-2.9179,-2.9922,-3.0632,-3.119,-3.119,-3.119,-3.119,-3.119,-3.119,-3.119,-3.119,-3.119,-3.119,-3.119,-3.1749,-3.2169,-3.1846,-3.2345,-3.2766,-3.2435,-3.2287,-3.2219,-3.2219,-3.2191,-3.2135,-3.2025,-3.1996,-3.1883,-3.1568,-3.1511,-3.1511,-3.1511,-3.1511,-3.1511,-3.1511,-3.1511,-3.1511,-3.1511,-3.1511,-3.1511,-3.1511,-3.1511,-3.1511,-3.1511,-3.1511,-3.1511,-3.1511,-3.1511,-3.1511,-3.1511,-3.154,-3.1555,-1.7791,-1.8189,-1.8642,-1.9258,-2.0463,-2.154,-2.1757,-2.2795,-2.3234,-2.1474,-2.0932,-2.0237,-1.8432,-1.9542,-2.0722,-2.0693,-2.2313,-2.3423,-2.3075,-2.3024,-2.3328,-2.4134,-2.5121,-2.5858,-2.6168,-2.717,-2.7618,-2.7149,-2.7175,-2.7464,-2.8062,-2.7579,-2.7363,-2.754,-2.742,-2.7388,-2.7522,-2.7346,-2.7438,-2.78,-2.7293,-2.7247,-2.7567,-2.7069,-2.6775,-2.6691,-2.6691,-2.6691,-2.6691,-2.6691,-2.6691,-2.6691,-2.6691,-2.6691,-2.6759,-2.7334,-2.7638,-2.7959,-2.9108,-2.9651,-2.9939,-3.0683,-3.1055,-3.119,-3.119,-3.119,-3.119,-3.119,-3.119,-3.119,-3.119,-3.119,-3.119,-3.119,-3.1469,-3.1687,-3.1659,-3.198,-3.2289,-3.2275,-3.2287,-3.2342,-3.2342,-3.2274,-3.2135,-3.2025,-3.1996,-3.194,-3.1756,-3.1597,-3.1511,-3.1511,-3.1511,-3.1511,-3.1511,-3.1511,-3.1511,-3.1511,-3.1511,-3.1511,-3.1511,-3.1511,-3.1511,-3.1511,-3.1511,-3.1511,-3.1511,-3.1511,-3.1511,-3.1511,-3.2004,-3.2243,-1.8334,-1.8769,-1.9095,-1.9095,-2.0318,-2.1224,-2.0155,-2.1133,-2.1686,-1.9647,-1.8701,-1.8068,-1.7432,-1.8596,-1.9723,-1.9981,-2.2131,-2.3557,-2.2954,-2.3423,-2.4117,-2.4868,-2.5427,-2.5913,-2.6322,-2.6603,-2.6568,-2.6098,-2.641,-2.6796,-2.7255,-2.7188,-2.7146,-2.7184,-2.737,-2.7496,-2.7509,-2.7379,-2.75,-2.7897,-2.7246,-2.7215,-2.7686,-2.7004,-2.6691,-2.6691,-2.6691,-2.6691,-2.6691,-2.6691,-2.6691,-2.6691,-2.6691,-2.6691,-2.6793,-2.7536,-2.801,-2.8501,-2.9702,-3.0311,-3.0649,-3.1072,-3.119,-3.119,-3.119,-3.119,-3.119,-3.119,-3.119,-3.119,-3.119,-3.119,-3.119,-3.119,-3.1782,-3.2232,-3.1787,-3.2343,-3.2807,-3.2376,-3.2342,-3.2398,-3.2398,-3.2342,-3.2247,-3.2122,-3.2094,-3.2038,-3.1927,-3.1798,-3.1668,-3.1511,-3.1568,-3.1597,-3.1511,-3.1511,-3.1511,-3.1511,-3.1511,-3.1511,-3.1511,-3.1511,-3.1511,-3.1511,-3.1511,-3.1511,-3.1511,-3.1511,-3.1645,-3.1944,-3.2303,-3.2677,-1.8914,-1.9095,-1.9095,-1.9095,-2.0318,-2.088,-1.8443,-1.924,-1.9884,-1.7845,-1.6392,-1.5857,-1.6987,-1.7932,-1.8762,-1.938,-2.2134,-2.3848,-2.2846,-2.4147,-2.535,-2.585,-2.58,-2.5973,-2.6541,-2.5839,-2.5297,-2.5206,-2.5819,-2.6287,-2.6429,-2.6948,-2.7167,-2.701,-2.7419,-2.7542,-2.7297,-2.7329,-2.7539,-2.7911,-2.7322,-2.7293,-2.7683,-2.7004,-2.6691,-2.6691,-2.6691,-2.6691,-2.6691,-2.6691,-2.6691,-2.6691,-2.6691,-2.6759,-2.6945,-2.7672,-2.8467,-2.9264,-2.9989,-3.0666,-3.119,-3.119,-3.119,-3.119,-3.119,-3.119,-3.119,-3.119,-3.119,-3.119,-3.119,-3.119,-3.1207,-3.1309,-3.2289,-3.2961,-3.2138,-3.2925,-3.3511,-3.2574,-3.2398,-3.2398,-3.2398,-3.2398,-3.2342,-3.2219,-3.2219,-3.2163,-3.2025,-3.1996,-3.1883,-3.1568,-3.1698,-3.1727,-3.1511,-3.1511,-3.1511,-3.1511,-3.1511,-3.1511,-3.1511,-3.1511,-3.1511,-3.1511,-3.1511,-3.1511,-3.1511,-3.1585,-3.1929,-3.2512,-3.2691,-3.308,-1.9059,-1.9095,-1.9095,-1.9095,-2.0318,-2.088,-1.8443,-1.9648,-2.0083,-1.5794,-1.5276,-1.5066,-1.3351,-1.5077,-1.6974,-1.771,-2.0234,-2.2257,-2.2643,-2.3511,-2.4531,-2.5754,-2.5648,-2.577,-2.653,-2.5673,-2.4784,-2.413,-2.4203,-2.4668,-2.5566,-2.6118,-2.6762,-2.7542,-2.7441,-2.7345,-2.7299,-2.7526,-2.776,-2.7968,-2.7547,-2.7487,-2.7754,-2.7019,-2.6691,-2.6691,-2.6691,-2.6691,-2.6691,-2.6691,-2.6691,-2.6691,-2.6691,-2.708,-2.7705,-2.8501,-2.9262,-3.0023,-3.0751,-3.1089,-3.119,-3.119,-3.119,-3.119,-3.119,-3.119,-3.119,-3.119,-3.119,-3.119,-3.119,-3.119,-3.1343,-3.1972,-3.2099,-3.2194,-3.2619,-3.2681,-3.2629,-3.2453,-3.2398,-3.2398,-3.2398,-3.2398,-3.2342,-3.2219,-3.2287,-3.2274,-3.2038,-3.1996,-3.194,-3.1756,-3.1784,-3.1727,-3.1511,-3.1511,-3.1511,-3.1511,-3.1511,-3.1511,-3.1511,-3.1511,-3.1511,-3.1511,-3.1511,-3.1511,-3.1511,-3.2049,-3.2378,-3.2542,-3.3634,-3.4234,-1.9095,-1.9095,-1.9204,-1.9612,-2.0626,-2.0662,-1.7385,-1.8181,-1.8389,-1.3956,-1.3411,-1.3628,-1.3309,-1.4632,-1.6041,-1.6853,-1.9317,-2.1258,-2.1611,-2.3265,-2.4795,-2.5777,-2.5565,-2.5612,-2.6329,-2.5176,-2.4212,-2.3842,-2.3806,-2.3958,-2.4349,-2.5396,-2.6519,-2.7663,-2.7569,-2.7452,-2.7299,-2.7436,-2.7659,-2.794,-2.7428,-2.74,-2.771,-2.702,-2.6691,-2.6691,-2.6691,-2.6691,-2.6691,-2.6691,-2.6691,-2.6691,-2.6691,-2.7165,-2.7908,-2.8687,-2.9465,-3.0226,-3.0937,-3.119,-3.119,-3.119,-3.119,-3.119,-3.119,-3.119,-3.119,-3.119,-3.119,-3.119,-3.119,-3.119,-3.1396,-3.2124,-3.2332,-3.2498,-3.2958,-3.2714,-3.2398,-3.2398,-3.2398,-3.2398,-3.2398,-3.2398,-3.2342,-3.2219,-3.2315,-3.2315,-3.2122,-3.2094,-3.2025,-3.1813,-3.187,-3.1798,-3.1524,-3.1511,-3.1511,-3.1511,-3.1511,-3.1511,-3.1511,-3.1511,-3.1511,-3.1511,-3.1511,-3.1675,-3.2019,-3.2333,-3.2871,-3.3559,-3.4219,-3.4698,-1.9095,-1.9095,-1.9258,-1.9884,-2.0789,-2.04,-1.62,-1.6751,-1.6976,-1.2754,-1.2235,-1.2842,-1.3937,-1.4789,-1.5595,-1.6466,-1.8667,-2.0501,-2.1121,-2.3337,-2.5211,-2.604,-2.5698,-2.5625,-2.6232,-2.478,-2.3806,-2.3806,-2.371,-2.3739,-2.3995,-2.5129,-2.6397,-2.7733,-2.7672,-2.7511,-2.7297,-2.736,-2.7539,-2.7826,-2.7322,-2.7277,-2.7595,-2.6971,-2.6691,-2.6691,-2.6691,-2.6691,-2.6691,-2.6691,-2.6691,-2.6691,-2.6691,-2.7266,-2.8128,-2.8773,-2.9585,-3.0429,-3.1004,-3.119,-3.119,-3.119,-3.119,-3.119,-3.119,-3.119,-3.119,-3.119,-3.119,-3.119,-3.119,-3.119,-3.1371,-3.2026,-3.2669,-3.3117,-3.3045,-3.2695,-3.2398,-3.2398,-3.2398,-3.2398,-3.2398,-3.2398,-3.237,-3.2274,-3.2342,-3.2342,-3.2219,-3.2191,-3.2094,-3.1813,-3.1898,-3.1826,-3.1539,-3.1511,-3.1511,-3.1511,-3.1511,-3.1511,-3.1511,-3.1511,-3.1511,-3.1511,-3.1645,-3.1974,-3.2512,-3.2796,-3.3469,-3.4503,-3.4653,-3.4996,-1.9095,-1.9095,-1.9113,-1.9186,-2.0355,-2.0255,-1.5494,-1.6787,-1.7646,-1.2881,-1.3113,-1.401,-1.3415,-1.4451,-1.5659,-1.6473,-1.7887,-1.9805,-2.2422,-2.3866,-2.5186,-2.6713,-2.6216,-2.5961,-2.6519,-2.4884,-2.3806,-2.3806,-2.3417,-2.3981,-2.5837,-2.5787,-2.6427,-2.8008,-2.76,-2.7313,-2.7299,-2.7539,-2.7657,-2.7642,-2.7459,-2.735,-2.7334,-2.689,-2.6691,-2.6691,-2.6691,-2.6691,-2.6691,-2.6691,-2.6691,-2.6691,-2.6691,-2.7605,-2.8908,-2.8976,-2.989,-3.1106,-3.1173,-3.119,-3.119,-3.119,-3.119,-3.119,-3.119,-3.119,-3.119,-3.119,-3.119,-3.119,-3.119,-3.119,-3.1308,-3.1746,-3.2902,-3.3652,-3.268,-3.2437,-3.2398,-3.2398,-3.2398,-3.2398,-3.2398,-3.2398,-3.2398,-3.2398,-3.2398,-3.2342,-3.2219,-3.2191,-3.2094,-3.1813,-3.1813,-3.1727,-3.1511,-3.1511,-3.1511,-3.1511,-3.1511,-3.1511,-3.1511,-3.1511,-3.1511,-3.1511,-3.2093,-3.2452,-3.2512,-3.3709,-3.4384,-3.4518,-3.5115,-3.5444,-1.9095,-1.9095,-1.9222,-1.9703,-1.9938,-1.9177,-1.5784,-1.6389,-1.6559,-1.27,-1.3236,-1.4156,-1.3354,-1.4108,-1.4957,-1.5284,-1.6918,-1.8395,-1.9062,-2.1452,-2.3452,-2.4253,-2.4342,-2.4884,-2.6238,-2.4802,-2.3806,-2.3806,-2.3771,-2.4476,-2.61,-2.5765,-2.6246,-2.7819,-2.7642,-2.745,-2.7299,-2.7554,-2.7742,-2.7844,-2.7547,-2.747,-2.7574,-2.6988,-2.6691,-2.6691,-2.6691,-2.6691,-2.6691,-2.6691,-2.6691,-2.6691,-2.6691,-2.7639,-2.8993,-2.8993,-2.9941,-3.119,-3.119,-3.119,-3.119,-3.119,-3.119,-3.119,-3.119,-3.119,-3.119,-3.119,-3.119,-3.119,-3.119,-3.185,-3.2396,-3.1925,-3.2926,-3.3707,-3.2629,-3.2398,-3.2398,-3.2398,-3.2398,-3.2398,-3.2398,-3.2398,-3.2398,-3.2398,-3.2398,-3.2342,-3.2219,-3.2122,-3.2025,-3.1813,-3.1799,-3.1727,-3.1511,-3.1511,-3.1511,-3.1511,-3.1511,-3.1511,-3.1511,-3.1511,-3.169,-3.2093,-3.2348,-3.2901,-3.3694,-3.4249,-3.4728,-3.51,-3.5385,-3.5504,-1.9041,-1.9095,-1.924,-1.9793,-1.9522,-1.8471,-1.6056,-1.6117,-1.5859,-1.2881,-1.3406,-1.4156,-1.3349,-1.3693,-1.4202,-1.4451,-1.5807,-1.7018,-1.7553,-1.9973,-2.2003,-2.2839,-2.3145,-2.3995,-2.579,-2.5146,-2.4517,-2.4291,-2.46,-2.5309,-2.6481,-2.6122,-2.648,-2.7776,-2.7657,-2.7496,-2.7299,-2.7554,-2.7713,-2.7725,-2.7517,-2.7441,-2.7502,-2.6955,-2.6691,-2.6691,-2.6691,-2.6691,-2.6691,-2.6691,-2.6691,-2.6691,-2.6691,-2.7639,-2.8993,-2.8993,-2.9941,-3.119,-3.119,-3.119,-3.119,-3.119,-3.119,-3.119,-3.119,-3.119,-3.119,-3.119,-3.119,-3.119,-3.119,-3.2188,-3.2944,-3.2008,-3.2804,-3.3511,-3.2602,-3.2398,-3.2398,-3.2398,-3.2398,-3.2398,-3.2398,-3.2398,-3.2398,-3.2342,-3.2342,-3.2274,-3.2094,-3.1996,-3.1898,-3.1727,-3.1698,-3.167,-3.1511,-3.1511,-3.1511,-3.1511,-3.1511,-3.1511,-3.1511,-3.169,-3.2019,-3.2497,-3.2901,-3.3559,-3.4503,-3.4713,-3.5026,-3.5504,-3.5504,-3.5504,-1.8878,-1.9095,-1.9095,-1.9113,-1.9113,-1.8471,-1.6056,-1.6117,-1.6004,-1.3582,-1.3781,-1.4156,-1.3349,-1.3207,-1.3496,-1.4359,-1.4524,-1.5834,-1.9543,-2.0324,-2.1306,-2.3435,-2.3283,-2.3648,-2.5246,-2.6117,-2.6245,-2.5448,-2.587,-2.6535,-2.7333,-2.7128,-2.7326,-2.8066,-2.7585,-2.7297,-2.7299,-2.7554,-2.7507,-2.7101,-2.7303,-2.7227,-2.6892,-2.6758,-2.6691,-2.6691,-2.6691,-2.6691,-2.6691,-2.6691,-2.6691,-2.6691,-2.6691,-2.7639,-2.8993,-2.8993,-2.9941,-3.119,-3.119,-3.119,-3.119,-3.119,-3.119,-3.119,-3.119,-3.119,-3.119,-3.119,-3.119,-3.119,-3.119,-3.1884,-3.2467,-3.1938,-3.2515,-3.3066,-3.252,-3.2398,-3.2398,-3.2398,-3.2398,-3.2398,-3.2398,-3.2398,-3.2342,-3.2219,-3.2191,-3.2122,-3.1841,-3.1799,-3.1727,-3.1511,-3.1511,-3.1511,-3.1511,-3.1511,-3.1511,-3.1511,-3.1511,-3.1511,-3.1511,-3.2123,-3.2497,-3.2512,-3.3784,-3.4503,-3.4503,-3.516,-3.5489,-3.5504,-3.5504,-3.5504,-1.6715,-1.7041,-1.7193,-1.6099,-1.5827,-1.5483,-1.4155,-1.4487,-1.4686,-1.3364,-1.3781,-1.4156,-1.3349,-1.3698,-1.4532,-1.5912,-1.6603,-1.7382,-1.857,-2.0736,-2.2044,-2.1571,-2.3857,-2.5658,-2.6172,-2.6447,-2.6502,-2.6245,-2.6384,-2.6816,-2.7638,-2.7423,-2.753,-2.808,-2.7757,-2.7569,-2.7569,-2.7826,-2.7826,-2.7522,-2.7666,-2.7562,-2.7227,-2.6874,-2.6691,-2.6691,-2.6691,-2.6691,-2.6691,-2.6691,-2.6691,-2.6691,-2.6691,-2.7639,-2.8993,-2.8993,-2.9941,-3.119,-3.119,-3.119,-3.119,-3.119,-3.119,-3.119,-3.119,-3.119,-3.119,-3.119,-3.0975,-3.0797,-3.1131,-3.1558,-3.1896,-3.1825,-3.2418,-3.2895,-3.2493,-3.2398,-3.2398,-3.2398,-3.2398,-3.2398,-3.2398,-3.2398,-3.2342,-3.2219,-3.2191,-3.2094,-3.1841,-3.187,-3.1826,-3.1524,-3.1626,-3.167,-3.1511,-3.1511,-3.1511,-3.1511,-3.1511,-3.1511,-3.1511,-3.2138,-3.2721,-3.317,-3.4038,-3.4743,-3.5175,-3.54,-3.5504,-3.5504,-3.5504,-3.5504,-1.5549,-1.5875,-1.6008,-1.5006,-1.43,-1.3793,-1.3594,-1.3702,-1.3799,-1.363,-1.3999,-1.4217,-1.3767,-1.3863,-1.4447,-1.5783,-1.6163,-1.6812,-1.8335,-2.0317,-2.1675,-2.1868,-2.4675,-2.6484,-2.6172,-2.6979,-2.7372,-2.709,-2.7317,-2.7721,-2.8227,-2.8097,-2.8094,-2.8277,-2.7915,-2.7701,-2.7701,-2.7968,-2.7968,-2.7701,-2.7855,-2.7754,-2.7396,-2.6972,-2.6742,-2.6691,-2.6691,-2.6691,0.0,-2.6691,-2.6691,-2.6691,-2.6691,-2.7452,-2.8569,-2.8891,-2.9771,-3.0818,-3.1106,-3.119,-3.119,-3.119,-3.119,-3.119,-3.119,-3.119,-3.119,-3.119,-3.0858,-3.0559,-3.0858,-3.0981,-3.105,-3.1133,-3.1772,-3.2282,-3.2068,-3.2213,-3.2398,-3.2398,-3.2398,-3.2398,-3.2398,-3.237,-3.2274,-3.2135,-3.2066,-3.1996,-3.1813,-3.1813,-3.1769,-3.1626,-3.167,-3.1641,-3.1511,-3.1511,-3.1511,-3.1511,-3.1511,-3.1511,-3.1511,-3.2138,-3.2826,-3.3484,-3.4174,-3.4816,-3.5504,-3.5504,-3.5504,-3.5504,-3.5504,-3.5504,0.0,-1.5361,-1.5397,-1.5271,-1.4155,-1.3304,-1.4046,-1.3684,0.0,-1.4235,-1.4343,-1.4344,-1.4477,-1.3844,-1.3583,-1.4445,-1.4009,-1.4909,-1.8816,-1.9541,-2.0906,-2.4153,-2.5805,-2.641,-2.5723,-2.7677,-2.8693,-2.7934,-2.8583,-2.9005,-2.9005,-2.9005,-2.8881,-2.8644,-2.8041,-2.773,-2.7701,-2.7954,-2.7954,-2.7698,-2.7886,-2.7783,-2.7396,-2.7038,-2.6842,-2.6691,-2.6691,-2.6691,-2.6691,-2.6691,-2.6691,-2.6691,-2.6691,-2.7165,-2.7891,-2.8636,-2.9414,-3.0209,-3.0886,-3.1157,-3.119,-3.119,-3.119,-3.119,-3.119,-3.119,-3.119,-3.119,-3.0838,-3.0456,-3.0497,-3.0263,-3.0054,-3.0077,-3.0744,-3.1374,-3.1409,-3.1921,-3.2398,-3.2398,-3.2398,-3.2398,-3.2398,-3.2302,-3.2135,-3.2025,-3.1898,-3.1813,-3.1799,-3.167,-3.1597,-3.1784,-3.1626,-3.1511,-3.1511,-3.1511,-3.1525,-3.157,-3.157,-3.1585,-3.1645,-3.2273,-3.2946,-3.3559,-3.4249,-3.4861,-3.5504,-3.5504,-3.5504,-3.5504,-3.5504,-3.5504,-1.3775,0.0,-1.43,-1.3051,-1.293,-1.3147,0.0,-1.3757,-1.4156,-1.4362,-1.4423,-1.4465,-1.4489,-1.4336,-1.4458,-1.5288,-1.5778,-1.6956,-1.9549,-2.2021,-2.4655,-2.7534,-2.7658,-2.7695,-2.8106,-2.8675,-2.8932,-2.873,-2.8895,-2.9005,-2.9005,-2.9005,-2.8964,-2.8905,-2.8321,-2.7911,-2.7698,-2.7757,-2.7757,-2.7701,-2.7698,-2.7577,-2.7396,-2.7038,-2.6842,-2.6691,-2.6691,-2.6691,-2.6691,-2.6691,-2.6691,-2.6691,-2.6691,-2.7165,-2.7824,-2.801,-2.8939,-3.0125,-3.0311,-3.0734,-3.119,-3.119,-3.119,-3.119,-3.119,-3.119,-3.119,-3.119,-3.0597,-3.0054,-3.0414,-2.9929,-2.9453,-2.999,-3.0658,-3.1226,-3.138,-3.1921,-3.2398,-3.2398,-3.2398,-3.2398,-3.2398,-3.2302,-3.2135,-3.2025,-3.1968,-3.1927,-3.1813,-3.1841,-3.1855,-3.1828,-3.1756,-3.167,-3.1511,-3.1511,-3.172,-3.2228,-3.2243,-3.2512,-3.3021,-3.3664,-3.4114,-3.4279,-3.4921,-3.534,-3.5504,-3.5504,-3.5504,-3.5504,-3.5504,-3.5504,-1.3775,-1.3702,-1.354,-1.2676,-1.2495,-1.264,-1.3056,-1.3497,-1.392,-1.4314,-1.4399,-1.4308,-1.3965,-1.4818,-1.5471,-1.5191,-1.7062,-1.9355,-2.1662,-2.4429,-2.6772,-2.826,-2.8393,-2.851,-2.8968,-2.9005,-2.9005,-2.9005,-2.9005,-2.9005,-2.9005,-2.9005,-2.894,-2.8815,-2.8495,-2.8188,-2.7883,-2.7883,-2.7883,-2.7883,-2.7855,-2.7768,-2.7604,-2.7151,-2.6859,-2.6691,-2.6691,-2.6691,-2.6691,-2.6691,-2.6691,-2.6691,-2.6691,-2.6945,-2.7367,-2.8095,-2.8873,-2.9685,-3.0378,-3.0869,-3.119,-3.119,-3.119,-3.119,-3.119,-3.1055,-3.0918,-3.1151,-3.0368,-2.9595,-3.0054,-2.9623,-2.9138,-2.9272,-3.0003,-3.0703,-3.0886,-3.1474,-3.2028,-3.2336,-3.2398,-3.237,-3.2315,-3.2247,-3.2135,-3.2025,-3.1996,-3.1968,-3.1898,-3.1898,-3.187,-3.1828,-3.1727,-3.1626,-3.1511,-3.178,-3.2108,-3.2497,-3.2512,-3.2811,-3.3469,-3.3844,-3.4204,-3.4503,-3.516,-3.5504,-3.5504,-3.5504,-3.5504,-3.5504,-3.5504,-3.5504,-1.4445,-1.4083,-1.3582,-1.334,-1.2767,-1.2464,-1.32,-1.3328,-1.3515,-1.4247,-1.4265,-1.4053,-1.3815,-1.5232,-1.6141,-1.5203,-1.8243,-2.1588,-2.3967,-2.6344,-2.7874,-2.7959,-2.8583,-2.9005,-2.9005,-2.9005,-2.9005,-2.9005,-2.9005,-2.9005,-2.9005,-2.9005,-2.8893,-2.8669,-2.8576,-2.8391,-2.8098,-2.8061,-2.8061,-2.8102,-2.802,-2.7936,-2.7883,-2.7277,-2.6892,-2.6691,-2.6691,-2.6691,-2.6691,-2.6691,-2.6691,-2.6691,-2.6691,-2.6691,-2.686,-2.8299,-2.8891,-2.9213,-3.0683,-3.119,-3.119,-3.119,-3.119,-3.119,-3.119,-3.0818,-3.0497,-3.1055,-3.0182,-2.9212,-2.9683,-2.9393,-2.8897,-2.8493,-2.923,-3.0056,-3.0336,-3.0936,-3.1609,-3.2259,-3.2398,-3.237,-3.2247,-3.2219,-3.2163,-3.2053,-3.2025,-3.1996,-3.1996,-3.187,-3.1799,-3.1799,-3.1626,-3.154,-3.1645,-3.2168,-3.2602,-3.2796,-3.2811,-3.311,-3.3784,-3.3799,-3.4068,-3.4653,-3.5205,-3.5504,-3.5504,-3.5504,-3.5504,-3.5504,-3.5504,-3.5504,-1.5126,-1.5719,-1.5816,-1.4469,-1.4028,-1.3974,-1.4107,-1.4162,-1.4235,-1.4374,-1.3853,-1.3979,-1.5971,-1.5514,-1.5435,-1.7245,-1.9966,-2.2536,-2.4516,-2.6681,-2.8245,-2.8757,-2.8932,-2.9005,-2.9005,-2.9005,-2.9005,-2.9005,-2.9005,-2.9005,-2.9005,-2.9005,-2.8982,-2.8929,-2.8438,-2.8156,-2.8102,-2.7869,-2.7869,-2.8084,-2.7627,-2.76,-2.7883,-2.7277,-2.6892,-2.6691,-2.6691,-2.6691,-2.6691,-2.6691,-2.6691,-2.6691,-2.6691,-2.6691,-2.6793,-2.7672,-2.8416,-2.9213,-3.0683,-3.119,-3.119,-3.119,-3.119,-3.119,-3.119,-3.0597,-3.0075,-3.0955,-3.0182,-2.9212,-2.9683,-2.9175,-2.8493,-2.842,-2.8969,-2.9657,-3.0274,-3.0936,-3.1609,-3.2259,-3.2398,-3.2398,-3.237,-3.2274,-3.2191,-3.2163,-3.2066,-3.1996,-3.1996,-3.187,-3.1799,-3.1799,-3.1626,-3.1735,-3.2288,-3.2452,-3.2991,-3.4098,-3.4204,-3.4487,-3.5175,-3.519,-3.525,-3.534,-3.5444,-3.5504,-3.5504,-3.5504,-3.5504,-3.5504,-3.5504,-3.5504,-1.4746,-1.5114,-1.5429,-1.5562,-1.629,-1.6911,-1.6761,-1.6787,-1.646,-1.5155,-1.4538,-1.4499,-1.5389,-1.5898,-1.7521,-2.1608,-2.2579,-2.3606,-2.5935,-2.7096,-2.7875,-2.8292,-2.873,-2.9005,-2.9005,-2.9005,-2.9005,-2.9005,-2.9005,-2.9005,-2.9005,-2.9005,-2.9005,-2.9005,-2.8583,-2.8295,-2.8102,-2.7982,-2.7978,-2.8102,-2.7698,-2.7642,-2.7883,-2.7277,-2.6892,-2.6691,-2.6691,-2.6691,-2.6691,-2.6691,-2.6691,-2.6691,-2.6691,-2.6691,-2.6826,-2.801,-2.8924,-2.9753,-3.0818,-3.119,-3.119,-3.119,-3.119,-3.119,-3.119,-3.0535,-3.0006,-3.0935,-3.0011,-2.8897,-2.9595,-2.9296,-2.87,-2.8468,-2.883,-2.9463,-3.0222,-3.0632,-3.1166,-3.2198,-3.2398,-3.237,-3.2287,-3.2287,-3.2274,-3.2122,-3.2094,-3.2053,-3.1912,-3.1841,-3.1756,-3.167,-3.1883,-3.2153,-3.2452,-3.3155,-3.3829,-3.4474,-3.4831,-3.5175,-3.5489,-3.5504,-3.5504,-3.5504,-3.5504,-3.5504,-3.5504,-3.5504,-3.5504,-3.5504,-3.5504,-3.5504,-1.4535,-1.4716,-1.5193,-1.6639,-1.7513,-1.8179,-1.869,-1.8556,-1.7885,-1.6372,-1.5861,-1.5712,-1.5677,-1.747,-2.0392,-2.4777,-2.4727,-2.4906,-2.7146,-2.7522,-2.7671,-2.7949,-2.8585,-2.9005,-2.9005,-2.9005,-2.9005,-2.9005,-2.9005,-2.9005,-2.9005,-2.9005,-2.8964,-2.8905,-2.8626,-2.8321,-2.8006,-2.8006,-2.8034,-2.8102,-2.7844,-2.7771,-2.7897,-2.7293,-2.6909,-2.6742,-2.6708,-2.6691,-2.6691,-2.6691,-2.6691,-2.6691,-2.6691,-2.681,-2.7114,-2.8502,-2.9465,-3.0226,-3.0937,-3.119,-3.119,-3.119,-3.119,-3.119,-3.119,-3.0535,-2.9968,-3.0797,-2.975,-2.8636,-2.9566,-2.9387,-2.885,-2.8493,-2.8677,-2.9155,-2.9996,-3.0279,-3.074,-3.1936,-3.2275,-3.237,-3.2259,-3.2342,-3.2315,-3.2066,-3.2122,-3.2066,-3.1841,-3.1756,-3.173,-3.172,-3.2183,-3.2647,-3.2946,-3.4038,-3.4711,-3.4711,-3.522,-3.5504,-3.5504,-3.5504,-3.5504,-3.5504,-3.5504,-3.5504,-3.5504,-3.5504,-3.5504,-3.5504,-3.5504,-3.5504,-1.5216,-1.5954,-1.6729,-1.7599,-1.6215,-1.5388,-1.8171,-1.7646,-1.6902,-1.8035,-1.787,-1.7902,-1.9187,-2.1362,-2.3333,-2.4432,-2.5544,-2.6616,-2.7549,-2.7893,-2.8179,-2.8498,-2.8821,-2.9005,-2.9005,-2.9005,-2.9005,-2.9005,-2.9005,-2.9005,-2.9005,-2.9005,-2.8881,-2.8644,-2.8308,-2.7992,-2.7728,-2.7745,-2.784,-2.8102,-2.7844,-2.78,-2.7968,-2.7308,-2.6959,-2.6893,-2.6742,-2.6691,-2.6691,-2.6691,-2.6691,-2.6691,-2.6691,-2.7131,-2.7824,-2.867,-2.9465,-3.0226,-3.0937,-3.119,-3.119,-3.119,-3.119,-3.119,-3.119,-3.0535,-2.9903,-3.0414,-2.9506,-2.8636,-2.9566,-2.9129,-2.8444,-2.8411,-2.8436,-2.8645,-2.9319,-2.9956,-3.0602,-3.132,-3.1967,-3.2398,-3.2398,-3.2398,-3.2342,-3.2219,-3.2094,-3.1968,-3.1813,-3.1641,-3.1764,-3.2348,-3.2452,-3.3006,-3.4264,-3.5011,-3.5429,-3.5429,-3.5474,-3.5504,-3.5504,-3.5504,-3.5504,-3.5504,-3.5504,-3.5504,-3.5504,-3.5504,-3.5504,-3.5504,-3.5504,-3.5504,-1.3813,-1.4763,-1.5826,-1.6298,-1.5965,-1.633,-1.9365,-1.9621,-1.9165,-1.9028,-1.8767,-1.8634,-1.8889,-2.1781,-2.4165,-2.4244,-2.5391,-2.665,-2.7791,-2.8034,-2.8295,-2.8791,-2.8929,-2.9005,-2.9005,-2.9005,-2.9005,-2.9005,-2.9005,-2.9005,-2.9005,-2.8846,-2.8688,-2.8601,-2.8106,-2.7815,-2.7701,-2.7855,-2.7926,-2.784,-2.7742,-2.773,-2.7728,-2.7231,-2.6958,-2.6893,-2.6842,-2.6792,-2.6708,-2.6792,-2.6792,-2.6691,-2.6691,-2.7165,-2.7908,-2.8687,-2.9465,-3.0226,-3.0937,-3.119,-3.119,-3.119,-3.119,-3.119,-3.119,-3.0535,-2.9903,-3.0372,-2.9483,-2.8549,-2.9205,-2.8873,-2.8411,-2.8411,-2.8411,-2.8596,-2.9273,-2.9925,-3.0586,-3.1259,-3.1921,-3.2398,-3.2398,-3.2398,-3.2315,-3.2122,-3.2094,-3.201,-3.1655,-3.167,-3.1896,-3.2452,-3.3245,-3.4113,-3.504,-3.5355,-3.5504,-3.5504,-3.5504,-3.5504,-3.5504,-3.5504,-3.5504,-3.5504,-3.5504,-3.5504,-3.5504,-3.5504,-3.5504,-3.5504,-3.5504,-3.5504,-1.3374,-1.4339,-1.5675,-1.6237,-1.6309,-1.7011,-1.9957,-2.0366,-2.0149,-2.0275,-1.9846,-1.9562,-1.9914,-2.2159,-2.4073,-2.4423,-2.56,-2.6797,-2.7712,-2.7926,-2.8161,-2.8663,-2.8803,-2.8905,-2.8994,-2.9005,-2.9005,-2.9005,-2.9005,-2.8952,-2.8881,-2.8706,-2.8513,-2.8313,-2.7915,-2.7657,-2.7569,-2.7826,-2.7826,-2.7569,-2.7657,-2.7686,-2.7627,-2.72,-2.6958,-2.6926,-2.6859,-2.6792,-2.6708,-2.6792,-2.6792,-2.6691,-2.6691,-2.7012,-2.757,-2.862,-2.9331,-2.9888,-3.0852,-3.119,-3.119,-3.119,-3.119,-3.1171,-3.1015,-3.0431,-2.9837,-2.9995,-2.9273,-2.8468,-2.8795,-2.8629,-2.8458,-2.8673,-2.855,-2.8596,-2.9273,-2.9925,-3.0525,-3.0997,-3.1797,-3.2398,-3.2398,-3.237,-3.2259,-3.2094,-3.2122,-3.201,-3.1655,-3.1698,-3.2058,-3.2736,-3.4008,-3.4996,-3.5459,-3.5504,-3.5504,-3.5504,-3.5504,-3.5504,-3.5504,-3.5504,-3.5504,-3.5504,-3.5504,-3.5504,-3.5504,-3.5504,-3.5504,-3.5504,-3.5504,-3.5504,-1.4295,-1.5102,-1.6765,-1.7961,-1.7206,-1.6872,-1.9659,-1.9317,-1.9206,-2.1935,-2.1302,-2.0873,-2.3004,-2.2975,-2.3204,-2.5013,-2.6412,-2.7299,-2.7297,-2.7524,-2.7815,-2.8075,-2.8404,-2.8706,-2.8964,-2.9005,-2.9005,-2.9005,-2.9005,-2.8881,-2.8601,-2.8589,-2.8313,-2.773,-2.7701,-2.7569,-2.7315,-2.7569,-2.7569,-2.7315,-2.7569,-2.7701,-2.7686,-2.7215,-2.6991,-2.6991,-2.6792,-2.6691,-2.6691,-2.6691,-2.6691,-2.6691,-2.6691,-2.6708,-2.6911,-2.8434,-2.901,-2.923,-3.0683,-3.119,-3.119,-3.119,-3.119,-3.1112,-3.0638,-3.0182,-2.9705,-2.9234,-2.8756,-2.8411,-2.8411,-2.8411,-2.8581,-2.9258,-2.8904,-2.8596,-2.9273,-2.9925,-3.0402,-3.0402,-3.149,-3.2398,-3.2398,-3.2302,-3.2191,-3.2191,-3.2094,-3.194,-3.1828,-3.1799,-3.2254,-3.3395,-3.4696,-3.5504,-3.5504,-3.5504,-3.5504,-3.5504,-3.5504,-3.5504,-3.5504,-3.5504,-3.5504,-3.5504,-3.5504,-3.5504,-3.5504,-3.5504,-3.5504,-3.5504,-3.5504,-3.5504,-1.157,-1.3249,-1.5314,-1.5904,-1.7567,-1.9281,-2.0122,-2.005,-2.0309,-2.2131,-2.2324,-2.2345,-2.2937,-2.3803,-2.4597,-2.5091,-2.6273,-2.723,-2.7478,-2.7786,-2.8106,-2.8417,-2.8718,-2.8905,-2.8994,-2.9005,-2.9005,-2.9005,-2.9005,-2.8881,-2.8601,-2.8391,-2.8079,-2.7698,-2.7526,-2.7465,-2.7585,-2.784,-2.784,-2.7585,-2.784,-2.7786,-2.7405,-2.7121,-2.6991,-2.6991,-2.6892,-2.6842,-2.6842,-2.6842,-2.6792,-2.6691,-2.6691,-2.7368,-2.8383,-2.8824,-2.967,-3.0618,-3.1038,-3.119,-3.119,-3.119,-3.119,-3.1112,-3.0638,-3.0182,-2.9705,-2.9234,-2.8756,-2.8411,-2.8411,-2.8411,-2.8581,-2.9258,-2.8904,-2.8596,-2.9273,-2.9925,-3.0402,-3.0402,-3.149,-3.2398,-3.2398,-3.237,-3.233,-3.2219,-3.2178,-3.2205,-3.2416,-3.2751,-3.3306,-3.4129,-3.4981,-3.5504,-3.5504,-3.5504,-3.5504,-3.5504,-3.5504,-3.5504,-3.5504,-3.5504,-3.5504,-3.5504,-3.5504,-3.5504,-3.5504,-3.5504,-3.5504,-3.5504,-3.5504,-3.5504,-1.3221,-1.508,-1.7077,-1.7786,-1.9087,-2.0359,-2.0999,-2.1131,-2.1417,-2.2313,-2.2378,-2.2475,-2.3098,-2.3936,-2.4706,-2.533,-2.6358,-2.7165,-2.7384,-2.7624,-2.7943,-2.8347,-2.8443,-2.8576,-2.8822,-2.8846,-2.8779,-2.8645,-2.8767,-2.8669,-2.8259,-2.8051,-2.7829,-2.7539,-2.7374,-2.7436,-2.7701,-2.7757,-2.7757,-2.7701,-2.7757,-2.7615,-2.7282,-2.7089,-2.6991,-2.7008,-2.6926,-2.6926,-2.6942,-2.6909,-2.6842,-2.6758,-2.6725,-2.7435,-2.8552,-2.8891,-2.9625,-3.0552,-3.103,-3.1075,-3.0938,-3.1151,-3.119,-3.1092,-3.0414,-3.0032,-2.9661,-2.9013,-2.8621,-2.8411,-2.8411,-2.8411,-2.8642,-2.9556,-2.9064,-2.8673,-2.9587,-3.0109,-3.0402,-3.0402,-3.149,-3.2398,-3.2398,-3.2342,-3.2315,-3.2287,-3.242,-3.257,-3.2673,-3.3396,-3.4038,-3.4474,-3.51,-3.5504,-3.5504,-3.5504,-3.5504,-3.5504,-3.5504,-3.5504,-3.5504,-3.5504,-3.5504,-3.5504,-3.5504,-3.5504,-3.5504,-3.5504,-3.5504,-3.5504,-3.5504,-3.5504,-1.7041,-1.8717,-2.0484,-2.18,-2.116,-2.0585,-2.2058,-2.2352,-2.2338,-2.2474,-2.1861,-2.183,-2.3476,-2.3682,-2.4134,-2.5746,-2.661,-2.7103,-2.7103,-2.7249,-2.7526,-2.8006,-2.7869,-2.7957,-2.8513,-2.8551,-2.843,-2.8129,-2.8373,-2.8299,-2.7745,-2.7701,-2.7569,-2.7315,-2.7313,-2.7434,-2.7701,-2.7481,-2.7481,-2.7701,-2.7434,-2.7313,-2.7282,-2.7106,-2.7007,-2.7008,-2.6942,-2.6925,-2.7008,-2.6942,-2.6909,-2.6893,-2.6742,-2.7199,-2.7993,-2.8721,-2.924,-2.9716,-3.0819,-3.0918,-3.0621,-3.1055,-3.119,-3.1015,-3.0075,-2.9793,-2.9595,-2.8668,-2.8411,-2.8411,-2.8411,-2.8411,-2.875,-3.0079,-2.9417,-2.8842,-3.0125,-3.0448,-3.0463,-3.0402,-3.149,-3.2398,-3.2398,-3.2287,-3.2247,-3.2342,-3.2669,-3.285,-3.2764,-3.3726,-3.4474,-3.4593,-3.513,-3.5504,-3.5504,-3.5504,-3.5504,-3.5504,-3.5504,-3.5504,-3.5504,-3.5504,-3.5504,-3.5504,-3.5504,-3.5504,-3.5504,-3.5504,-3.5504,-3.5504,-3.5504,-3.5504,-1.356,-1.5945,-1.8745,-2.0333,-2.127,-2.189,-2.224,-2.231,-2.2338,-2.2474,-2.2313,-2.2623,-2.4206,-2.4422,-2.4887,-2.6497,-2.6905,-2.7039,-2.7103,-2.74,-2.7657,-2.7771,-2.7926,-2.8061,-2.8197,-2.821,-2.8183,-2.8116,-2.817,-2.8065,-2.773,-2.7701,-2.7569,-2.7315,-2.7511,-2.7627,-2.7701,-2.784,-2.784,-2.7701,-2.7627,-2.7511,-2.7282,-2.7152,-2.7055,-2.6991,-2.6975,-2.6992,-2.6991,-2.6975,-2.6959,-2.6893,-2.6742,-2.7554,-2.8773,-2.8942,-2.9783,-3.0853,-3.112,-3.1114,-3.1055,-3.1171,-3.119,-3.1015,-3.0075,-2.9793,-2.9595,-2.8668,-2.8411,-2.8411,-2.8411,-2.8411,-2.875,-3.0079,-2.9771,-2.9402,-3.0217,-3.0812,-3.1028,-3.0494,-3.149,-3.2398,-3.2398,-3.237,-3.2302,-3.2122,-3.2061,-3.2372,-3.3216,-3.356,-3.4113,-3.5175,-3.5415,-3.5504,-3.5504,-3.5504,-3.5504,-3.5504,-3.5504,-3.5504,-3.5504,-3.5504,-3.5504,-3.5504,-3.5504,-3.5504,-3.5504,-3.5504,-3.5504,-3.5504,-3.5504,-3.5504,-1.4962,-1.7165,-1.9244,-2.0841,-2.1786,-2.2296,-2.2296,-2.2296,-2.2324,-2.2377,-2.238,-2.2821,-2.4373,-2.4599,-2.5094,-2.6687,-2.6992,-2.7024,-2.7086,-2.734,-2.7539,-2.7642,-2.7683,-2.7757,-2.7855,-2.7897,-2.7855,-2.7745,-2.7844,-2.78,-2.7509,-2.7511,-2.7434,-2.7297,-2.7436,-2.7569,-2.7701,-2.7698,-2.7698,-2.7701,-2.7569,-2.7436,-2.7299,-2.7168,-2.7086,-2.7039,-2.7039,-2.7088,-2.7138,-2.7071,-2.7024,-2.6942,-2.6842,-2.7707,-2.8993,-2.8993,-2.9791,-3.0898,-3.1131,-3.1055,-3.0898,-3.1131,-3.119,-3.1015,-3.0075,-2.9793,-2.9595,-2.8668,-2.8411,-2.8411,-2.8411,-2.8411,-2.875,-3.0079,-2.9879,-2.9571,-3.0248,-3.0936,-3.1197,-3.0525,-3.149,-3.237,-3.233,-3.2247,-3.2163,-3.2025,-3.2384,-3.29,-3.344,-3.4053,-3.4726,-3.5429,-3.5504,-3.5504,-3.5504,-3.5504,-3.5504,-3.5504,-3.5504,-3.5504,-3.5504,-3.5504,-3.5504,-3.5504,-3.5504,-3.5504,-3.5504,-3.5504,-3.5504,-3.5504,-3.5504,-3.5504,-1.6796,-1.8763,-2.0217,-2.1874,-2.2296,-2.2296,-2.2296,-2.2296,-2.2296,-2.2296,-2.2296,-2.2767,-2.4299,-2.4538,-2.503,-2.6654,-2.6942,-2.7024,-2.7119,-2.7217,-2.7327,-2.7491,-2.7373,-2.7327,-2.7476,-2.7567,-2.7509,-2.7282,-2.7496,-2.7524,-2.7297,-2.7299,-2.7299,-2.7299,-2.7345,-2.7434,-2.7644,-2.7467,-2.7467,-2.7644,-2.7405,-2.7299,-2.7299,-2.7184,-2.7135,-2.7135,-2.7119,-2.7184,-2.7282,-2.7136,-2.7055,-2.6975,-2.6892,-2.7742,-2.8993,-2.8993,-2.9679,-3.0679,-3.1055,-3.0938,-3.0679,-3.1075,-3.119,-3.1015,-3.0075,-2.9793,-2.9595,-2.8668,-2.8411,-2.8411,-2.8411,-2.8411,-2.875,-3.0079,-2.9971,-2.971,-3.0279,-3.1028,-3.1336,-3.054,-3.149,-3.237,-3.2247,-3.2094,-3.1996,-3.1996,-3.2838,-3.3502,-3.3515,-3.4562,-3.537,-3.5489,-3.5504,-3.5504,-3.5504,-3.5504,-3.5504,-3.5504,-3.5504,-3.5504,-3.5504,-3.5504,-3.5424,-3.5294,-3.5279,-3.5359,-3.5504,-3.5359,-3.5279,-3.5279,-3.5279,-3.5213,-1.3193,-1.6052,-1.957,-2.1755,-2.2296,-2.2296,-2.2296,-2.2296,-2.2296,-2.2296,-2.2296,-2.275,-2.4252,-2.4506,-2.5045,-2.6719,-2.6959,-2.7008,-2.7234,-2.7184,-2.7135,-2.7165,-2.7151,-2.7103,-2.7088,-2.7135,-2.7166,-2.7135,-2.728,-2.7329,-2.7299,-2.7299,-2.7299,-2.7299,-2.7526,-2.7539,-2.736,-2.7539,-2.7539,-2.736,-2.733,-2.7299,-2.7299,-2.7282,-2.7266,-2.7266,-2.7152,-2.7184,-2.7299,-2.7088,-2.7007,-2.6975,-2.6809,-2.7656,-2.8993,-2.8993,-2.9886,-3.1131,-3.1171,-3.1151,-3.1131,-3.1171,-3.119,-3.1015,-3.0075,-2.9793,-2.9595,-2.8668,-2.8411,-2.8411,-2.8411,-2.8411,-2.875,-3.0079,-3.0325,-3.0279,-3.0371,-3.1382,-3.1905,-3.0632,-3.149,-3.2398,-3.237,-3.2178,-3.1996,-3.1996,-3.2373,-3.2871,-3.3425,-3.4143,-3.4846,-3.5444,-3.5504,-3.5504,-3.5504,-3.5504,-3.5504,-3.5504,-3.5504,-3.5504,-3.5504,-3.5504,-3.5166,-3.4461,-3.4461,-3.4791,-3.5504,-3.4791,-3.4461,-3.4461,-3.4461,-3.4124,-1.4166,-1.679,-1.9452,-2.1721,-2.2296,-2.2296,-2.2296,-2.2296,-2.2296,-2.2296,-2.2632,-2.3241,-2.4305,-2.4846,-2.5521,-2.6738,-2.6926,-2.6959,-2.7106,-2.7088,-2.7023,-2.699,-2.7023,-2.7024,-2.6959,-2.7039,-2.7103,-2.7103,-2.7217,-2.7299,-2.7299,-2.7299,-2.7299,-2.7299,-2.7421,-2.7421,-2.7299,-2.7421,-2.7421,-2.7299,-2.7299,-2.7299,-2.7299,-2.7299,-2.7299,-2.7299,-2.7233,-2.725,-2.7282,-2.7202,-2.6975,-2.6725,-2.7267,-2.7958,-2.8749,-2.9374,-3.0294,-3.119,-3.119,-3.119,-3.119,-3.119,-3.1015,-3.0679,-2.9989,-2.9617,-2.9273,-2.8597,-2.8411,-2.8411,-2.8411,-2.8411,-2.875,-3.0079,-3.0402,-3.0402,-3.0402,-3.1459,-3.2228,-3.1643,-3.1876,-3.2219,-3.237,-3.2023,-3.1783,-3.1968,-3.2614,-3.317,-3.3455,-3.4397,-3.5175,-3.5474,-3.5504,-3.5504,-3.5504,-3.5504,-3.5504,-3.5504,-3.5504,-3.5504,-3.5504,-3.5067,-3.4643,-3.4312,-3.4312,-3.4461,-3.4839,-3.4056,-3.3905,-3.4279,-3.3871,-3.3526,-1.4691,-1.6536,-1.7896,-2.0737,-2.1448,-2.16,-2.2161,-2.2296,-2.2296,-2.2296,-2.3038,-2.3848,-2.4389,-2.5101,-2.5895,-2.6757,-2.6859,-2.6876,-2.6975,-2.6992,-2.6959,-2.6909,-2.6925,-2.6942,-2.6859,-2.699,-2.707,-2.707,-2.7217,-2.7299,-2.7299,-2.7299,-2.7299,-2.7299,-2.7299,-2.7299,-2.7299,-2.7299,-2.7299,-2.7299,-2.7299,-2.7299,-2.7299,-2.7299,-2.7299,-2.7299,-2.7299,-2.7299,-2.7299,-2.7266,-2.6908,-2.6502,-2.764,-2.8227,-2.8519,-2.9559,-3.047,-3.119,-3.1055,-3.1015,-3.1035,-3.1151,-3.0797,-3.0267,-2.9903,-2.9461,-2.8997,-2.8525,-2.8411,-2.8411,-2.8411,-2.8411,-2.875,-3.0079,-3.0263,-3.0279,-3.0786,-3.1443,-3.1982,-3.2321,-3.2247,-3.2178,-3.237,-3.1966,-3.1712,-3.1968,-3.287,-3.3499,-3.3499,-3.4681,-3.5504,-3.5504,-3.5504,-3.5504,-3.5504,-3.5504,-3.5504,-3.5504,-3.5504,-3.5504,-3.5504,-3.4725,-3.4211,-3.4027,-3.3822,-3.3822,-3.4007,-3.3283,-3.3199,-3.3719,-3.3178,-3.284,-1.2549,-1.3117,-1.3684,-1.7997,-1.9092,-1.9638,-2.1806,-2.2296,-2.2296,-2.2296,-2.3427,-2.4457,-2.4491,-2.5101,-2.5895,-2.6757,-2.6792,-2.6775,-2.6975,-2.6959,-2.6909,-2.6893,-2.6909,-2.6859,-2.6725,-2.6892,-2.7007,-2.7007,-2.7186,-2.7299,-2.7299,-2.7299,-2.7299,-2.7299,-2.7299,-2.7299,-2.7299,-2.7299,-2.7299,-2.7299,-2.7299,-2.7299,-2.7299,-2.7299,-2.7299,-2.7299,-2.7299,-2.7299,-2.7282,-2.7168,-2.6825,-2.6502,-2.764,-2.8227,-2.85,-2.924,-3.0244,-3.1151,-3.0699,-3.0539,-3.0601,-3.1055,-3.0576,-2.9815,-2.981,-2.9461,-2.8997,-2.8525,-2.8411,-2.8411,-2.8411,-2.8411,-2.875,-3.0079,-2.991,-2.9981,-3.1874,-3.1351,-3.0863,-3.2151,-3.2398,-3.2398,-3.2398,-3.2163,-3.1996,-3.1996,-3.287,-3.3499,-3.3499,-3.4681,-3.5504,-3.5504,-3.5504,-3.5504,-3.5504,-3.5504,-3.5504,-3.5504,-3.5504,-3.5504,-3.5504,-3.4725,-3.3973,-3.3283,-3.2577,-3.2541,-3.3262,-3.2506,-3.2182,-3.2218,-3.2182,-3.1773,-1.1171,-1.2118,-1.3143,-1.6621,-1.8211,-1.9232,-2.0538,-2.1958,-2.2868,-2.2398,-2.3849,-2.505,-2.4592,-2.5489,-2.642,-2.6724,-2.6742,-2.6742,-2.6792,-2.6792,-2.6758,-2.6758,-2.6758,-2.6572,-2.6048,-2.6603,-2.6786,-2.634,-2.6927,-2.7299,-2.7299,-2.7299,-2.7299,-2.7299,-2.7299,-2.7299,-2.7299,-2.7299,-2.7299,-2.7299,-2.7299,-2.7299,-2.7299,-2.7299,-2.7299,-2.7299,-2.7299,-2.7299,-2.7299,-2.725,-2.6891,-2.657,-2.8271,-2.8721,-2.855,-2.9752,-3.0627,-3.1131,-3.0658,-3.0497,-3.0539,-3.0699,-3.0118,-2.9348,-2.9348,-2.902,-2.8621,-2.8444,-2.8411,-2.8411,-2.8411,-2.8411,-2.875,-3.0079,-3.0217,-3.0463,-3.2059,-3.1351,-3.0786,-3.2136,-3.2342,-3.2287,-3.2398,-3.2122,-3.1898,-3.1996,-3.287,-3.3499,-3.3499,-3.4681,-3.5504,-3.5504,-3.5504,-3.5504,-3.5504,-3.5504,-3.5504,-3.5504,-3.5504,-3.5279,-3.4758,-3.3988,-3.3248,-3.2506,-3.1773,-3.175,-3.2506,-3.1736,-3.164,-3.2074,-3.1603,-3.1259,-0.9553,-1.0581,-1.1932,-1.5165,-1.6333,-1.7405,-2.0149,-2.1536,-2.2412,-2.2936,-2.4408,-2.5456,-2.4965,-2.5862,-2.6691,-2.6691,-2.6691,-2.6691,-2.6691,-2.6691,-2.6691,-2.6691,-2.6691,-2.6505,-2.6031,-2.6586,-2.6802,-2.6323,-2.691,-2.7299,-2.7299,-2.7299,-2.7299,-2.7299,-2.7299,-2.7299,-2.7299,-2.7299,-2.7299,-2.7299,-2.7299,-2.7299,-2.7299,-2.7299,-2.7299,-2.7299,-2.7299,-2.7299,-2.7282,-2.7169,-2.6842,-2.6586,-2.8543,-2.8831,-2.8369,-3.0052,-3.0784,-3.0918,-3.0617,-3.0393,-3.033,-3.0638,-2.9903,-2.8904,-2.9234,-2.8897,-2.8411,-2.8411,-2.8411,-2.8411,-2.8411,-2.8735,-2.9258,-2.9894,-3.0233,-3.0709,-3.1813,-3.1197,-3.0786,-3.2136,-3.2315,-3.2274,-3.2315,-3.2066,-3.1945,-3.2199,-3.2976,-3.3574,-3.3799,-3.4816,-3.5504,-3.5504,-3.5504,-3.5392,-3.5133,-3.5344,-3.5392,-3.5118,-3.51,-3.4872,-3.4312,-3.3339,-3.2613,-3.211,-3.1371,-3.1222,-3.1736,-3.1222,-3.1259,-3.1713,-3.1222,-3.0986,0.0,0.0,0.0,-1.3455,-1.332,-1.4022,-2.0572,-2.0944,-2.0758,-2.378,-2.4983,-2.5508,-2.5592,-2.6201,-2.6691,-2.6691,-2.6691,-2.6691,-2.6691,-2.6691,-2.6691,-2.6691,-2.6691,-2.6691,-2.6657,-2.6841,-2.6974,-2.6974,-2.7152,-2.7264,-2.7299,-2.7299,-2.7299,-2.7299,-2.7299,-2.7299,-2.7299,-2.7299,-2.7299,-2.7299,-2.7299,-2.7299,-2.7299,-2.7299,-2.7299,-2.7299,-2.7299,-2.7299,-2.7266,-2.6957,-2.6674,-2.6604,-2.8403,-2.8536,-2.7969,-3.0011,-3.0662,-3.0497,-3.0481,-3.0182,-2.9946,-3.0895,-2.9924,-2.8573,-2.9499,-2.9129,-2.8411,-2.8411,-2.8411,-2.8411,-2.8411,-2.9371,-3.0202,-2.9571,-2.991,-3.0582,-3.1274,-3.0889,-3.0786,-3.2136,-3.2398,-3.237,-3.2219,-3.2094,-3.2152,-3.2628,-3.3156,-3.3724,-3.4414,-3.5085,-3.5504,-3.5504,-3.5472,-3.5166,-3.438,-3.4986,-3.51,-3.4312,-3.4279,-3.4245,-3.4245,-3.2847,-3.2074,-3.2074,-3.1357,-3.0986,-3.0986,-3.0986,-3.0986,-3.0986,-3.0986,-3.0986,-0.7067,0.0,0.0,0.0,0.0,0.0,-1.5991,-1.7151,-1.8465,-2.1495,-2.2699,-2.3699,-2.5288,-2.6201,-2.6691,-2.6691,-2.6691,-2.6691,-2.6691,-2.6691,-2.6691,-2.6691,-2.6691,-2.6488,-2.5964,-2.6093,-2.6189,0.0,-2.6344,-2.6695,-2.728,-2.7299,-2.7299,-2.7299,-2.7299,-2.7299,-2.7299,-2.7299,-2.7299,-2.7299,-2.7299,-2.7299,-2.7299,-2.7299,-2.7299,-2.7299,-2.7299,-2.7299,-2.7282,-2.7202,-2.7055,-2.7077,-2.8733,-2.8907,-2.8375,-2.9774,-3.0381,-3.0456,-3.0118,-2.9903,-2.9903,-3.0497,-2.9661,-2.8517,-2.9113,-2.8873,-2.8411,-2.8411,-2.8411,-2.8411,-2.8411,-2.9058,-2.974,-3.0048,-2.9894,-3.0135,-3.1767,-3.1228,-3.0786,-3.2136,-3.2398,-3.237,-3.2219,-3.2094,-3.2152,-3.2628,-3.3156,-3.3724,-3.4414,-3.5085,-3.5504,-3.5504,-3.4986,-3.4528,-3.4312,-3.4022,-3.3748,-3.3526,-3.3492,-3.3283,-3.2741,-3.2326,-3.1846,-3.1296,-3.1086,-3.0986,-3.0986,-3.0986,-3.0986,-3.0986,-3.0986,-3.0986,-0.7311,-0.8143,-0.9253,-1.0219,0.0,0.0,-1.589,-1.6971,-1.8364,-2.2629,-2.3833,-2.4526,-2.5828,-2.6404,-2.6691,-2.6691,-2.6691,-2.6691,-2.6691,-2.6691,-2.6691,-2.6691,-2.6691,-2.6522,-2.6099,-2.6246,-2.6375,-2.6374,-2.6516,-2.6816,-2.7264,-2.7299,-2.7299,-2.7299,-2.7299,-2.7266,-2.7217,-2.7266,-2.7266,-2.7217,-2.7266,-2.7299,-2.7299,-2.7299,-2.7299,-2.7299,-2.7299,-2.7169,-2.6973,-2.7218,-2.7217,-2.7206,-2.8356,-2.8511,-2.8267,-2.9703,-3.0232,-3.0204,-3.0118,-2.9968,-2.9853,-3.0118,-2.9387,-2.8493,-2.8951,-2.8771,-2.8411,-2.8411,-2.8411,-2.8411,-2.8411,-2.9119,-2.9848,-2.9956,-2.9894,-3.0202,-3.1659,-3.1151,-3.0786,-3.2136,-3.2398,-3.237,-3.2219,-3.2094,-3.2243,-3.299,-3.3336,-3.3829,-3.4786,-3.525,-3.5504,-3.5504,-3.4791,-3.4177,-3.3871,-3.3457,-3.3073,-3.2755,-3.2755,-3.2541,-3.211,-3.1809,-3.1431,-3.1024,-3.0986,-3.0986,-3.0986,-3.0986,-3.0986,-3.0986,-3.0986,-3.0986,-0.8175,-0.8632,-0.9451,-1.0663,-0.9986,0.0,-1.7377,-1.7817,-1.8437,-2.4171,-2.527,-2.532,-2.5642,-2.5778,-2.5812,-2.5727,-2.6048,-2.642,-2.6657,-2.6691,-2.6691,-2.6691,-2.6691,-2.6691,-2.6691,-2.6807,-2.6906,-2.6975,-2.7154,-2.7283,-2.7282,-2.7282,-2.7266,-2.7283,-2.7299,-2.7233,-2.7103,-2.7233,-2.7233,-2.7119,-2.7233,-2.7299,-2.7299,-2.7299,-2.7299,-2.7299,-2.7282,-2.6989,-2.6539,-2.7055,-2.7168,-2.7073,-2.7589,-2.7759,-2.7919,-2.9616,-3.0062,-2.9859,-3.0288,-3.0161,-2.9793,-2.9793,-2.9159,-2.8493,-2.8951,-2.8771,-2.8411,-2.8411,-2.8411,-2.8411,-2.8411,-2.9325,-3.014,-2.9525,-2.9848,-3.0479,-3.1228,-3.0874,-3.0786,-3.2136,-3.2398,-3.2342,-3.2191,-3.2066,-3.2379,-3.3517,-3.3576,-3.3947,-3.5213,-3.5424,-3.5439,-3.5261,-3.461,-3.3871,-3.3143,-3.3003,-3.2698,-3.2015,-3.1978,-3.1978,-3.1978,-3.1371,-3.0986,-3.0986,-3.0986,-3.0986,-3.0986,-3.0986,-3.0986,-3.0986,-3.0986,-3.0986,0.0,0.0,0.0,0.0,0.0,0.0,-1.1623,-1.1265,-1.1814,0.0,-1.6407,-1.6722,-1.9113,-2.0027,-2.023,-1.9625,-2.2073,-2.4661,-2.6437,-2.6691,-2.6691,-2.6691,-2.6691,-2.6691,-2.6691,-2.6331,-2.6327,-2.6875,-2.7008,-2.7088,-2.7152,-2.7135,-2.7104,-2.7073,-2.7218,-2.7233,-2.7103,-2.7233,-2.7282,-2.7266,-2.7282,-2.7299,-2.7299,-2.7299,-2.7299,-2.7282,-2.7184,-2.689,-2.6539,-2.6891,-2.6891,-2.6674,-2.7434,-2.7742,-2.7907,-2.8829,-2.9459,-2.9815,-2.9903,-2.9881,-2.9793,-2.9793,-2.9159,-2.8493,-2.8951,-2.8771,-2.8411,-2.8411,-2.8411,-2.8411,-2.8411,-2.8987,-2.9556,-2.9417,-2.9494,-2.9935,-3.1136,-3.0874,-3.0786,-3.2136,-3.2398,-3.2315,-3.2066,-3.2025,-3.2366,-3.3381,-3.353,-3.373,-3.4434,-3.51,-3.5001,-3.3796,-3.3506,-3.3108,-3.2362,-3.1786,-3.1371,-3.1222,-3.1222,-3.1222,-3.1222,-3.1099,-3.0986,-3.0986,-3.0986,-3.0986,-3.0986,-3.0986,-3.0986,-3.0986,-3.0986,-3.0986,0.0,0.0,0.0,-1.0568,0.0,0.0,0.0,-1.1671,-1.2211,-1.5933,-1.5825,-1.5723,-1.7946,-1.8048,-1.7805,-1.78,-2.0653,-2.2716,-2.2327,-2.4814,-2.6691,-2.6691,-2.6691,-2.6691,-2.6691,-2.6552,-2.6598,-2.6973,-2.7007,-2.7007,-2.7039,-2.7086,-2.707,-2.6991,-2.7137,-2.7152,-2.7055,-2.7152,-2.7201,-2.7201,-2.7266,-2.7299,-2.7299,-2.7299,-2.7299,-2.7282,-2.694,-2.6691,-2.6505,-2.6691,-2.664,-2.6539,-2.6908,-2.7352,-2.7882,-2.8474,-2.9185,-2.9793,-2.9793,-2.9793,-2.9705,-2.925,-2.8771,-2.8444,-2.8677,-2.8597,-2.8411,-2.8411,-2.8411,-2.8411,-2.8411,-2.8904,-2.9335,-2.8996,-2.9156,-2.9689,-3.0689,-3.0632,-3.0786,-3.2136,-3.2398,-3.2342,-3.215,-3.2038,-3.2351,-3.3442,-3.3546,-3.3698,-3.422,-3.4643,-3.4442,-3.3318,-3.2861,-3.2506,-3.211,-3.1431,-3.0986,-3.0986,-3.0986,-3.0986,-3.0986,-3.0986,-3.0986,-3.0986,-3.0986,-3.0986,-3.0986,-3.0986,-3.0986,-3.0986,-3.0986,-3.0986,0.0,0.0,0.0,0.0,0.0,-1.0971,0.0,0.0,0.0,0.0,0.0,0.0,0.0,0.0,0.0,-1.6018,0.0,0.0,0.0,-2.16,0.0,-2.5169,-2.6082,-2.6522,-2.6099,-2.6094,-2.6359,-2.7036,-2.6461,-2.6361,-2.6957,-2.7039,-2.7022,-2.6925,-2.7038,-2.7071,-2.6991,-2.7087,-2.7135,-2.7135,-2.725,-2.7299,-2.7299,-2.7299,-2.7234,-2.7137,-2.6758,-2.6505,-2.6386,-2.6522,-2.6539,-2.6488,-2.6482,-2.7005,-2.7865,-2.8378,-2.9026,-2.9683,-2.9772,-2.9728,-2.9544,-2.8692,-2.8411,-2.8411,-2.8411,-2.8411,-2.8411,-2.8411,-2.8411,-2.8411,-2.8411,-2.8996,-2.9417,-2.8765,-2.9119,-2.9725,-3.0279,-3.0402,-3.0755,-3.1967,-3.2305,-3.2342,-3.2191,-3.1966,-3.222,-3.3487,-3.3347,-3.3336,-3.4018,-3.4109,-3.3754,-3.2875,-3.2376,-3.2051,-3.1905,-3.1334,-3.0986,-3.0986,-3.0986,-3.0986,-3.0986,-3.0986,-3.0986,-3.0986,-3.0986,-3.0986,-3.0986,-3.0986,-3.0986,-3.0986,-3.0986,-3.0986,0.0,0.0,0.0,0.0,-1.157,0.0,0.0,0.0,-0.9524,-0.9941,0.0,0.0,0.0,0.0,0.0,0.0,0.0,0.0,-1.4031,-1.6728,-1.9063,-1.9705,-2.3866,-2.593,-2.3968,-2.3204,-2.4007,-2.6802,-2.4428,-2.4028,-2.6773,-2.6926,-2.6859,-2.6742,-2.6972,-2.7071,-2.6991,-2.7186,-2.7282,-2.7282,-2.7282,-2.7299,-2.7299,-2.7299,-2.7039,-2.659,-2.6842,-2.6539,-2.5928,-2.6657,-2.6725,-2.6434,-2.6654,-2.7169,-2.7874,-2.8534,-2.8941,-2.9234,-2.9677,-2.9528,-2.909,-2.8573,-2.8411,-2.8411,-2.8411,-2.8411,-2.8411,-2.8411,-2.8411,-2.8411,-2.8411,-2.9325,-3.0109,-2.9433,-2.9787,-3.0309,-3.0386,-3.0402,-3.0617,-3.1366,-3.1982,-3.2315,-3.2066,-3.1508,-3.1649,-3.329,-3.244,-3.207,-3.3163,-3.3318,-3.2791,-3.1408,-3.1736,-3.1846,-3.1198,-3.1061,-3.0986,-3.0986,-3.0986,-3.0986,-3.0986,-3.0986,-3.0986,-3.0986,-3.0986,-3.0986,-3.0986,-3.0986,-3.0986,-3.0986,-3.0986,-3.0986,0.0,0.0,0.0,0.0,0.0,0.0,-1.0166,0.0,-0.9027,0.0,0.0,0.0,0.0,0.0,0.0,0.0,-1.1695,0.0,0.0,0.0,-1.7901,0.0,0.0,0.0,-2.2751,-2.2508,-2.3589,-2.6704,-2.4062,-2.3611,-2.6622,-2.6859,-2.6842,-2.6691,-2.6908,-2.704,-2.6991,-2.712,-2.7217,-2.7299,-2.7299,-2.7299,-2.7299,-2.7217,-2.694,-2.6505,-2.6607,-2.6487,-2.6229,-2.6539,-2.6573,-2.6469,-2.6677,-2.7147,-2.7774,-2.8115,-2.8603,-2.9166,-2.9639,-2.9483,-2.902,-2.8549,-2.8411,-2.8411,-2.8411,-2.8411,-2.8411,-2.8411,-2.8411,-2.8411,-2.8411,-2.9095,-2.9648,-2.8996,-2.9325,-2.9925,-3.0309,-3.0402,-3.0615,-3.1411,-3.2005,-3.2104,-3.1175,-3.1028,-3.1427,-3.2722,-3.204,-3.1836,-3.3059,-3.2826,-3.216,-3.1123,-3.1259,-3.1334,-3.1024,-3.0986,-3.0986,-3.0986,-3.0986,-3.0986,-3.0986,-3.0986,-3.0986,-3.0986,-3.0986,-3.0986,-3.0986,-3.0986,-3.0986,-3.0986,-3.0986,-3.0986,-1.4124,0.0,0.0,0.0,0.0,0.0,0.0,0.0,0.0,0.0,0.0,0.0,0.0,0.0,0.0,0.0,0.0,-1.1628,0.0,0.0,0.0,0.0,0.0,0.0,0.0,0.0,0.0,0.0,0.0,-2.2733,-2.6505,-2.6792,-2.6792,-2.6691,-2.6892,-2.6991,-2.6991,-2.7104,-2.7201,-2.7299,-2.7266,-2.725,-2.7233,-2.7136,-2.6841,-2.6454,-2.6539,-2.6521,-2.6436,-2.6401,-2.6419,-2.6435,-2.6311,-2.6763,-2.7524,-2.7796,-2.8327,-2.8974,-2.9438,-2.9296,-2.885,-2.8517,-2.8411,-2.8411,-2.8411,-2.8411,-2.8411,-2.8411,-2.8411,-2.8442,-2.8642,-2.9156,-2.9541,-2.9048,-2.931,-2.9802,-3.0294,-3.0402,-3.0593,-3.1298,-3.1858,-3.1751,-3.0269,-3.0419,-3.1052,-3.2064,-3.1406,-3.1329,-3.2708,-3.2268,-3.1603,-3.1061,-3.0986,-3.0986,-3.0986,-3.0986,-3.0986,-3.0986,-3.0986,-3.0986,-3.0986,-3.0986,-3.0986,-3.0986,-3.0986,-3.0986,-3.0986,-3.0986,-3.0986,-3.0986,-3.0986,-3.0986,0.0,0.0,0.0,-1.2246,0.0,0.0,0.0,0.0,-0.8914,0.0,0.0,0.0,0.0,0.0,0.0,0.0,0.0,0.0,0.0,0.0,0.0,0.0,0.0,0.0,0.0,0.0,0.0,0.0,0.0,0.0,-2.6387,-2.6691,-2.6691,-2.6691,-2.6892,-2.6991,-2.6991,-2.7202,-2.7299,-2.7299,-2.7168,-2.7119,-2.7103,-2.7023,-2.6742,-2.633,-2.6775,-2.6725,-2.6296,-2.6366,-2.6366,-2.6226,-2.5454,-2.5921,-2.7115,-2.7844,-2.8216,-2.8493,-2.8951,-2.8803,-2.842,-2.8396,-2.8411,-2.8411,-2.8411,-2.8411,-2.8411,-2.8411,-2.8411,-2.855,-2.9187,-2.9863,-3.0356,-3.034,-3.034,-3.0371,-3.0402,-3.0402,-3.047,-3.0694,-3.1274,-3.1219,-2.9608,-2.9718,-3.0347,-3.1288,-3.0268,-3.0024,-3.1902,-3.1505,-3.1024,-3.0986,-3.0986,-3.0986,-3.0986,-3.0986,-3.0986,-3.0986,-3.0986,-3.0986,-3.0986,-3.0986,-3.0986,-3.0986,-3.0986,-3.0986,-3.0986,-3.0986,-3.0986,-3.0986,-3.0986,-3.0986,0.0,0.0,-2.0314,-1.5325,0.0,0.0,0.0,0.0,0.0,0.0,0.0,0.0,0.0,0.0,0.0,0.0,0.0,0.0,0.0,0.0,0.0,0.0,0.0,0.0,0.0,0.0,0.0,0.0,0.0,0.0,0.0,-2.6691,-2.6691,-2.6691,-2.6892,-2.6991,-2.6991,-2.7104,-2.7038,-2.6774,-2.6691,-2.6641,-2.6641,-2.6572,-2.6452,-2.633,-2.6809,-2.6572,-2.5939,-2.6261,-2.6049,-2.5476,-2.5114,-2.5639,-2.6685,-2.7223,-2.7856,-2.842,-2.8573,-2.8525,-2.8411,-2.8411,-2.8411,-2.8411,-2.8411,-2.8411,-2.8411,-2.8411,-2.8411,-2.855,-2.9243,-2.9894,-3.0279,-2.9833,-3.0079,-3.0279,-2.9833,-3.0079,-3.0376,-3.0248,-3.1017,-3.1102,-2.9166,-2.9247,-2.9795,-3.064,-2.9937,-2.9988,-3.1866,-3.1468,-3.0986,-3.0986,-3.0986,-3.0986,-3.0986,-3.0986,-3.0986,-3.0986,-3.0986,-3.0986,-3.0986,-3.0986,-3.0986,-3.0986,-3.0986,-3.0986,-3.0986,-3.0986,-3.0986,-3.0986,-3.0986,-3.0986,-2.1096,-2.189,0.0,-1.7179,-1.635,0.0,-1.1722,0.0,-1.0568,0.0,0.0,0.0,0.0,0.0,0.0,0.0,0.0,0.0,0.0,0.0,0.0,0.0,0.0,0.0,0.0,0.0,0.0,0.0,0.0,0.0,0.0,0.0,-2.6725,-2.6758,-2.6909,-2.6992,-2.6991,-2.6908,-2.6724,-2.6471,-2.6262,-2.6226,-2.6349,-2.6279,-2.6261,-2.6365,-2.6775,-2.6504,-2.5758,-2.6048,-2.5721,-2.5029,-2.5026,-2.5606,-2.6425,-2.6711,-2.7494,-2.8411,-2.8411,-2.8411,-2.8411,-2.8411,-2.8411,-2.8411,-2.8411,-2.8411,-2.8411,-2.8411,-2.8411,-2.8611,-2.951,-3.0079,-3.034,-3.0166,-3.0248,-3.0279,-2.9848,-2.991,-3.0033,-3.0007,-3.0596,-3.0558,-2.8885,-2.8995,-2.9479,-2.9948,-2.9601,-2.9895,-3.1479,-3.1296,-3.0986,-3.0986,-3.0986,-3.0986,-3.0986,-3.0986,-3.0986,-3.0986,-3.0986,-3.0986,-3.0986,-3.0986,-3.0986,-3.0986,-3.0986,-3.0986,-3.0986,-3.0986,-3.0986,-3.0986,-3.0986,-3.0986]},{"header":{"parameterUnit":"m.s-1","parameterCategory":1,"la1":30.6,"la2":29.2853,"lo1":-89.7004,"lo2":-87.6739,"dx":0.0162,"dy":0.0183,"nx":112,"ny":82,"refTime":"2022-12-01T06:00:00:Z","depth":0,"parameterNumber":3,"parameterNumberName":"V-component_of_WINDS"},"data":[0.0,0.0,0.0,0.0,0.0,0.0,0.0,0.0,0.0,0.0,0.0,0.0,0.0,0.0,0.0,0.0,0.0,0.0,0.0,0.0,0.0,0.0,0.0,0.0,0.0,0.0,0.0,0.0,0.0,0.0,0.0,0.0,0.0,0.0,0.0,0.0,0.0,0.0,0.0,0.0,0.0,0.0,0.0,0.0,0.0,0.0,0.0,0.0,0.0,0.0,0.0,0.0,0.0,0.0,0.0,0.0,0.0,0.0,0.0,0.0,0.0,0.0,0.0,0.0,0.0,0.0,0.0,0.0,0.0,0.0,0.0,0.0,0.0,0.0,0.0,0.0,0.0,0.0,0.0,0.0,0.0,0.0,0.0,0.0,0.0,0.0,0.0,0.0,0.0,0.0,1.1337,1.2019,1.2994,1.3597,1.3597,1.3597,1.3031,1.1674,0.0,0.0,0.0,0.0,0.0,0.0,0.0,0.0,0.0,0.0,0.0,0.0,0.0,0.0,0.0,0.0,0.0,0.0,0.0,0.0,0.0,0.0,0.0,0.0,0.0,0.0,0.0,0.0,0.0,0.0,0.0,0.0,0.0,0.0,0.0,0.0,0.0,0.0,0.0,0.0,0.0,0.0,0.0,0.0,0.0,0.0,0.0,0.0,0.0,0.0,0.0,0.0,0.0,0.0,0.0,0.0,0.0,0.0,0.0,0.0,0.0,0.0,0.0,0.0,0.0,0.0,0.0,0.0,0.0,0.0,0.0,0.0,0.0,0.0,0.0,0.0,0.0,0.0,0.0,0.0,0.0,0.0,0.0,0.0,0.0,0.0,0.0,0.0,0.0,0.0,0.0,0.0,0.0,0.0,0.0,0.0,0.0,0.0,0.0,0.0,0.0,0.0,0.0,0.0,1.0943,1.3104,1.348,1.3597,1.3597,1.3597,1.3031,1.1674,0.0,0.0,0.0,0.0,0.0,0.0,0.0,0.0,0.0,0.0,0.0,0.0,0.0,0.0,0.0,0.0,0.0,0.0,0.0,0.0,0.0,0.0,0.0,0.0,0.0,0.0,0.0,0.0,0.0,0.0,0.0,0.0,0.0,0.0,0.0,0.0,0.0,0.0,0.0,0.0,0.0,0.0,0.0,0.0,0.0,0.0,0.0,0.0,0.0,0.0,0.0,0.0,0.0,0.0,0.0,0.0,0.0,0.0,0.0,0.0,0.0,0.0,0.0,0.0,0.0,0.0,0.0,0.0,0.0,0.0,0.0,0.0,0.0,0.0,0.0,0.0,0.0,0.0,0.0,0.0,0.0,0.0,0.0,0.0,0.0,0.0,0.0,0.0,0.0,0.0,0.0,0.0,0.0,0.0,0.0,0.0,0.0,0.0,0.0,0.0,0.0,0.0,0.0,1.0623,1.1819,1.3431,1.3597,1.3597,1.3597,1.3597,1.2927,1.1323,1.0904,0.0,0.0,0.0,0.0,0.0,0.0,0.0,0.0,0.0,0.0,0.0,0.0,0.0,0.0,0.0,0.0,0.0,0.0,0.0,0.0,0.0,0.0,0.0,0.0,0.0,0.0,0.0,0.0,0.0,0.0,0.0,0.0,0.0,0.0,0.0,0.0,0.0,0.0,0.0,0.0,0.0,0.0,0.0,0.0,0.0,0.0,0.0,0.0,0.0,0.0,0.0,0.0,0.0,0.0,0.0,0.0,0.0,0.0,0.0,0.0,0.0,0.0,0.0,0.0,0.0,0.0,0.0,0.0,0.0,0.0,0.0,0.0,0.0,0.0,0.0,0.0,0.0,0.0,0.0,0.0,0.0,0.0,0.0,0.0,0.0,0.0,0.0,0.0,0.0,0.0,0.0,0.0,0.0,0.0,0.0,0.0,0.0,0.0,0.0,0.0,0.0,0.0,1.241,1.2991,1.3535,1.3807,1.3834,1.3607,1.369,1.2946,1.1024,1.066,0.0,0.0,0.0,0.0,0.0,0.0,0.0,0.0,0.0,0.0,0.0,0.0,0.0,0.0,0.0,0.0,0.0,0.0,0.0,0.0,0.0,0.0,0.0,0.0,0.0,0.0,0.0,0.0,0.0,0.0,0.0,0.0,0.0,0.0,0.0,0.0,0.0,0.0,0.0,0.0,0.0,0.0,0.0,0.0,0.0,0.0,0.0,0.0,0.0,0.0,0.0,0.0,0.0,0.0,0.0,0.0,0.0,0.0,0.0,0.0,0.0,0.0,0.0,0.0,0.0,0.0,0.0,0.0,0.0,0.0,0.0,0.0,0.0,0.0,0.0,0.0,0.0,0.0,0.0,0.0,0.0,0.0,0.0,0.0,0.0,0.0,0.0,0.0,0.0,0.0,0.0,0.0,0.0,0.0,0.0,0.0,0.0,0.0,0.0,0.0,0.0,0.0,1.2844,1.4024,1.3628,1.4386,1.4552,1.3669,1.4014,1.3276,1.1045,1.0881,0.0,0.0,0.0,0.0,0.0,0.0,0.0,0.0,0.0,0.0,0.0,0.0,0.0,0.0,0.0,0.0,0.0,0.0,0.0,0.0,0.0,0.0,0.0,0.0,0.0,0.0,0.0,0.0,0.0,0.0,0.0,0.0,0.0,0.0,0.0,0.0,0.0,0.0,0.0,0.0,0.0,0.0,0.0,0.0,0.0,0.0,0.0,0.0,0.0,0.0,0.0,0.0,0.0,0.0,0.0,0.0,0.0,0.0,0.0,0.0,0.0,0.0,0.0,0.0,0.0,0.0,0.0,0.0,0.0,0.0,0.0,0.0,0.0,0.0,0.0,0.0,0.0,0.0,0.0,0.0,0.0,0.0,0.0,0.0,0.0,0.0,0.0,0.0,0.0,0.0,0.0,0.0,0.0,0.0,0.0,0.0,0.0,0.0,0.0,0.0,0.0,0.0,1.2346,1.3576,1.3979,1.4614,1.4863,1.4511,1.4376,1.3455,1.1457,0.0,0.0,0.0,0.0,0.0,0.0,0.0,0.0,0.0,0.0,0.0,0.0,0.0,0.0,0.0,0.0,0.0,0.0,0.0,0.0,0.0,0.0,0.0,0.0,0.0,0.0,0.0,0.0,0.0,0.0,0.0,0.0,0.0,0.0,0.0,0.0,0.0,0.0,0.0,0.0,0.0,0.0,0.0,0.0,0.0,0.0,0.0,0.0,0.0,0.0,0.0,0.0,0.0,0.0,0.0,0.0,0.0,0.0,0.0,0.0,0.0,0.0,0.0,0.0,0.0,0.0,0.0,0.0,0.0,0.0,0.0,0.0,0.0,0.0,0.0,0.0,0.0,0.0,0.0,0.0,0.0,0.0,0.0,0.0,0.0,0.0,0.0,0.0,0.0,0.0,0.0,0.0,0.0,0.0,0.0,0.0,0.0,0.0,0.0,0.0,0.0,0.0,1.0862,1.2645,1.3983,1.448,1.507,1.5318,1.5028,1.4842,1.3776,1.1529,0.0,0.0,0.0,0.0,0.0,0.0,0.0,0.0,0.0,0.0,0.0,0.0,0.0,0.0,0.0,0.0,0.0,0.0,0.0,0.0,0.0,0.0,0.0,0.0,0.0,0.0,0.0,0.0,0.0,0.0,0.0,0.0,0.0,0.0,0.0,0.0,0.0,0.0,0.0,0.0,0.0,0.0,0.0,0.0,0.0,0.0,0.0,0.0,0.0,0.0,0.0,0.0,0.0,0.0,0.0,0.0,0.0,0.0,0.0,0.0,0.0,0.0,0.0,0.0,0.0,0.0,0.0,0.0,0.0,0.0,0.0,0.0,0.0,0.0,0.0,0.0,0.0,0.0,0.0,0.0,0.0,0.0,0.0,0.0,0.0,0.0,0.0,0.0,0.0,0.0,0.0,0.0,0.0,0.0,0.0,0.0,0.0,0.0,0.0,0.0,0.0,0.0,1.1477,1.4007,1.5515,1.5059,1.5825,1.6011,1.509,1.5432,1.4335,0.0,0.0,0.0,0.0,0.0,0.0,0.0,0.0,0.0,0.0,0.0,0.0,0.0,0.0,0.0,0.0,0.0,0.0,0.0,0.0,0.0,0.0,0.0,0.0,0.0,0.0,0.0,0.0,0.0,0.0,0.0,0.0,0.0,0.0,0.0,0.0,0.0,0.0,0.0,0.0,0.0,0.0,0.0,0.0,0.0,0.0,0.0,0.0,0.0,0.0,0.0,0.0,0.0,0.0,0.0,0.0,0.0,0.0,0.0,0.0,0.0,0.0,0.0,0.0,0.0,0.0,0.0,0.0,0.0,0.0,0.0,0.0,0.0,0.0,0.0,0.0,0.0,0.0,0.0,0.0,0.0,0.0,0.0,0.0,0.0,0.0,0.0,0.0,0.0,0.0,0.0,0.0,0.0,0.0,0.0,0.0,0.0,0.0,0.0,0.0,0.0,0.0,0.0,1.1477,1.4007,1.5639,1.5504,1.605,1.6299,1.6029,1.6122,1.4826,1.1602,0.0,0.0,0.0,0.0,0.0,0.0,0.0,0.0,0.0,0.0,0.0,0.0,0.0,0.0,0.0,0.0,0.0,0.0,0.0,0.0,0.0,0.0,0.0,0.0,0.0,0.0,0.0,0.0,0.0,0.0,0.0,0.0,0.0,0.0,0.0,0.0,0.0,0.0,0.0,0.0,0.0,0.0,0.0,0.0,0.0,0.0,0.0,0.0,0.0,0.0,0.0,0.0,0.0,0.0,0.0,0.0,0.0,0.0,0.0,0.0,0.0,0.0,0.0,0.0,0.0,0.0,0.0,0.0,0.0,0.0,0.0,0.0,0.0,0.0,0.0,0.0,0.0,0.0,0.0,0.0,0.0,0.0,0.0,0.0,0.0,0.0,0.0,0.0,0.0,0.0,0.0,0.0,0.0,0.0,0.0,0.0,0.0,0.0,0.0,0.0,0.0,0.0,1.1757,1.4277,1.6032,1.6208,1.6477,1.6726,1.6901,1.6922,1.5784,1.3126,0.0,0.0,0.0,0.0,0.0,0.0,0.0,0.0,0.0,0.0,0.0,0.0,0.0,0.0,0.0,0.0,0.0,0.0,0.0,0.0,0.0,0.0,0.0,0.0,0.0,0.0,0.0,0.0,0.0,0.0,0.0,0.0,0.0,0.0,0.0,0.0,0.0,0.0,0.0,0.0,0.0,0.0,0.0,0.0,0.0,0.0,0.0,0.0,0.0,0.0,0.0,0.0,0.0,0.0,0.0,0.0,0.0,0.0,0.0,0.0,0.0,0.0,0.0,0.0,0.0,0.0,0.0,0.0,0.0,0.0,0.0,0.0,0.0,0.0,0.0,0.0,0.0,0.0,0.0,0.0,0.0,0.0,0.0,0.0,0.0,0.0,0.0,0.0,0.0,0.0,0.0,0.0,0.0,0.0,0.0,0.0,0.0,0.0,0.0,0.0,0.0,0.0,1.2224,1.4764,1.6612,1.7027,1.7079,1.7244,1.7668,1.774,1.6965,1.5121,0.0,0.0,0.0,0.0,0.0,0.0,0.0,0.0,0.0,0.0,0.0,0.0,0.0,0.0,0.0,0.0,0.0,0.0,0.0,0.0,0.0,0.0,0.0,0.0,0.0,0.0,0.0,0.0,0.0,0.0,0.0,0.0,0.0,0.0,0.0,0.0,0.0,0.0,0.0,0.0,0.0,0.0,0.0,0.0,0.0,0.0,0.0,0.0,0.0,0.0,0.0,0.0,0.0,0.0,0.0,0.0,0.0,0.0,0.0,0.0,0.5419,0.4315,0.0,0.0,0.0,0.0,0.0,0.0,0.0,0.0,0.0,0.0,0.0,0.0,0.0,0.0,0.0,0.0,0.0,0.0,0.0,0.0,0.0,0.0,0.0,0.0,0.0,0.0,0.0,0.0,0.0,0.0,0.0,0.0,0.0,0.0,0.0,0.0,0.0,0.0,0.0,0.0,1.2605,1.5167,1.7048,1.7502,1.7554,1.7595,1.7699,1.804,1.7315,1.5132,1.4883,0.0,0.0,0.0,0.0,0.0,0.0,0.0,0.0,0.0,0.0,0.0,0.0,0.0,0.0,0.0,0.0,0.0,0.0,0.0,0.0,0.0,0.0,0.0,0.0,0.0,0.0,0.0,0.0,0.0,0.0,0.0,0.0,0.0,0.0,0.0,0.0,0.0,0.0,0.0,0.0,0.0,0.0,0.0,0.0,0.0,0.0,0.0,0.0,0.0,0.0,0.0,0.0,0.0,0.0,0.0,0.0,0.0,0.0,0.0,0.6401,0.5716,0.0,0.0,0.0,0.0,0.0,0.0,0.0,0.0,0.0,0.0,0.0,0.0,0.0,0.0,0.0,0.0,0.0,0.0,0.0,0.0,0.0,0.0,0.0,0.0,0.0,0.0,0.0,0.0,0.0,0.0,0.0,0.0,0.0,0.0,0.0,0.0,0.0,0.0,0.0,0.0,1.276,1.5498,1.7513,1.7999,1.8312,1.8469,1.8383,1.8891,1.8575,1.7055,1.6156,0.0,0.0,0.0,0.0,0.0,0.0,0.0,0.0,0.0,0.0,0.0,0.0,0.0,0.0,0.0,0.0,0.0,0.0,0.0,0.0,0.0,0.0,0.0,0.0,0.0,0.0,0.0,0.0,0.0,0.0,0.0,0.0,0.0,0.0,0.0,0.0,0.0,0.0,0.0,0.0,0.0,0.0,0.0,0.0,0.0,0.0,0.0,0.0,0.0,0.0,0.0,0.0,0.0,0.7124,0.7204,0.7204,0.7262,0.7721,0.8388,0.7524,0.744,0.7842,0.6349,0.0,0.0,0.0,0.0,0.0,0.0,0.0,0.0,0.0,0.0,0.0,0.0,0.0,0.0,0.0,0.0,0.0,0.0,0.0,0.0,0.0,0.0,1.1458,1.1136,1.2302,1.3078,1.1616,0.0,0.0,0.0,0.0,0.0,0.0,0.0,0.0,0.0,0.0,0.0,1.3504,1.6221,1.8228,1.8796,1.9242,1.9447,1.9299,1.9682,1.9748,1.9297,1.7516,1.6378,0.0,0.0,0.0,0.0,0.0,0.0,0.0,0.0,0.0,0.0,0.0,0.0,0.0,0.0,0.0,0.0,0.0,0.0,0.0,0.0,0.0,0.0,0.0,0.0,0.0,0.0,0.0,0.0,0.0,0.0,0.0,0.0,0.5697,0.5883,0.0,0.0,0.0,0.0,0.0,0.0,0.0,0.0,0.0,0.0,0.0,0.0,0.0,0.6575,0.6731,0.7589,0.8012,0.8019,0.8814,0.9209,0.9223,0.9526,0.9731,0.9855,0.9982,0.0,0.858,0.8625,0.0,0.0,0.0,0.0,0.0,0.0,0.0,0.0,0.0,0.0,0.0,0.0,0.0,0.0,0.0,0.0,0.0,0.0,0.0,0.0,0.0,0.0,1.4582,1.5164,1.5151,1.5063,1.5297,1.2835,1.056,1.0375,1.0409,0.9935,0.0,0.0,0.0,0.0,0.0,0.0,1.635,1.8199,1.9588,2.0626,2.0288,1.9998,1.9966,1.9528,1.9419,1.9944,1.9673,1.9086,1.8081,1.6811,0.0,0.0,0.0,0.0,0.0,0.0,0.0,0.0,0.0,0.0,0.0,0.0,0.0,0.0,0.0,0.0,0.0,0.0,0.0,0.0,0.0,0.0,0.0,0.0,0.0,0.0,0.0,0.0,0.0,0.5112,0.5451,0.5581,0.5302,0.4913,0.0,0.0,0.0,0.0,0.0,0.0,0.0,0.0,0.0,0.7393,0.7504,0.7751,0.822,0.8732,0.9087,0.927,0.9687,0.998,1.0163,1.0309,1.0375,1.0389,1.0748,1.0572,1.0014,0.9434,0.8693,0.7886,0.0,0.0,0.0,0.0,0.7713,0.8226,0.9167,0.9545,0.9586,0.9392,0.0,0.0,0.0,0.0,0.0,0.0,0.0,1.0987,1.2287,1.3457,1.4549,1.5615,1.5753,1.5691,1.595,1.5002,1.3718,1.2455,1.2471,1.1737,0.8725,0.9476,0.0,0.0,0.0,1.5173,1.7159,1.913,2.0398,2.0526,2.0953,2.0921,2.0161,2.0537,2.0751,2.0677,2.0645,2.0441,1.9927,1.8208,1.6424,0.0,0.0,0.0,0.0,0.0,0.0,0.0,0.0,0.0,0.0,0.0,0.0,0.0,0.0,0.0,0.0,0.0,0.0,0.0,0.0,0.0,0.0,0.0,0.0,0.0,0.0,0.0,0.0,0.553,0.5714,0.5722,0.5787,0.5494,0.0,0.0,0.0,0.0,0.0,0.0,0.7066,0.7061,0.7463,0.8377,0.8498,0.8856,0.9458,0.9649,0.9863,1.0104,1.0185,1.0353,1.0594,1.0704,1.074,1.0762,1.1085,1.1315,1.1383,1.0436,0.981,0.9368,0.8887,0.8439,0.8173,0.882,0.9393,0.9961,1.1081,1.1563,1.1633,1.122,1.0969,1.0673,0.9723,0.0,0.0,0.0,0.0,1.1659,1.2955,1.375,1.4463,1.5501,1.5936,1.6133,1.6133,1.6595,1.647,1.4628,1.4691,1.3932,1.0536,1.1643,0.0,1.1497,1.4404,1.7167,1.8442,2.0212,2.1239,2.089,2.1604,2.1698,2.0698,2.1365,2.171,2.1376,2.1345,2.1439,2.1596,1.9828,1.8643,1.8269,0.0,0.0,0.0,0.0,0.0,0.0,0.0,0.0,0.0,0.0,0.0,0.0,0.0,0.0,0.0,0.0,0.0,0.0,0.0,0.0,0.0,0.0,0.0,0.0,0.0,0.0,0.0,0.0,0.0,0.7131,0.7537,0.0,0.0,0.0,0.0,0.6629,0.6553,0.6981,0.8056,0.8004,0.8429,0.9486,0.9515,0.9537,0.9588,0.9921,1.0082,1.0104,1.0411,1.0572,1.0602,1.0938,1.1078,1.1092,1.1423,1.1896,1.2419,1.2348,1.1428,1.0129,1.104,1.0484,0.9311,1.0868,1.1459,1.1555,1.2216,1.2835,1.3266,1.2629,1.2016,1.1534,1.1463,1.104,0.0,0.0,1.283,1.3698,1.5168,1.5563,1.5661,1.5836,1.6343,1.6757,1.6757,1.7215,1.7441,1.6766,1.7122,1.6913,1.4987,0.0,1.519,1.6188,1.6534,1.7949,2.1439,2.198,2.2267,2.2884,2.2433,2.207,2.2009,2.1471,2.1396,2.2009,2.2039,2.2341,2.2975,2.2268,2.0945,1.8983,1.8212,0.0,0.0,0.0,0.0,0.0,0.0,0.0,0.0,0.0,0.0,0.0,0.0,0.0,0.0,0.0,0.0,0.0,0.0,0.0,0.0,0.0,0.0,0.0,0.0,0.0,0.0,0.0,0.0,0.7255,0.7743,0.0,0.6797,0.7289,0.7641,0.7537,0.8134,0.8625,0.8947,0.9018,0.917,0.9451,0.9766,0.9875,0.9802,1.0223,1.0521,1.0726,1.0843,1.1041,1.1246,1.1364,1.1415,1.1453,1.1958,1.2305,1.2543,1.2978,1.2538,1.1678,1.2039,1.1836,1.1389,1.196,1.2718,1.3503,1.3698,1.3953,1.4103,1.3855,1.3631,1.3551,1.3941,1.3874,1.3775,1.4229,1.4554,1.4834,1.536,1.5812,1.6148,1.6326,1.6809,1.7267,1.7359,1.7677,1.788,1.7685,1.7914,1.7481,1.5359,1.6818,1.7921,1.6861,1.8328,2.0151,2.1889,2.2101,2.2206,2.2433,2.2616,2.2555,2.2132,2.2279,2.2506,2.272,2.275,2.2841,2.3078,2.2884,2.2395,2.1666,2.1402,1.9181,0.0,0.0,0.0,0.0,0.0,0.0,0.0,0.0,0.0,0.0,0.0,0.0,0.0,0.0,0.0,0.0,0.0,0.0,0.0,0.0,0.0,0.0,0.0,0.0,0.0,0.7368,0.7939,0.7435,0.8107,0.823,0.7292,0.8048,0.856,0.8473,0.9087,0.9439,0.9413,0.9802,1.0019,0.9967,1.0314,1.0459,1.0376,1.0558,1.077,1.1017,1.1187,1.1379,1.1622,1.1802,1.1888,1.195,1.2581,1.297,1.3213,1.3644,1.3593,1.3152,1.294,1.2856,1.2848,1.3092,1.3734,1.4529,1.4736,1.4677,1.4529,1.4736,1.4795,1.4883,1.5264,1.541,1.541,1.541,1.5518,1.5664,1.5694,1.6107,1.6565,1.6708,1.7183,1.7643,1.7674,1.7988,1.8261,1.8326,1.8392,1.7985,1.6516,1.836,1.9441,1.7874,1.9826,2.1561,2.1873,2.2201,2.2433,2.2433,2.2811,2.2989,2.2763,2.2618,2.2869,2.3634,2.3145,2.3083,2.3647,2.2769,2.2297,2.2297,2.2297,2.0313,1.6292,0.0,0.0,0.0,0.0,0.0,0.0,0.0,0.0,0.0,0.0,0.0,0.0,0.0,0.0,0.0,0.0,0.0,0.0,0.0,0.0,0.0,0.0,0.0,0.7679,0.7874,0.7982,0.7793,0.8724,0.908,0.8311,0.8933,0.9413,0.9413,0.9316,0.9316,0.9453,1.039,1.0987,1.1102,1.1245,1.1313,1.1285,1.0983,1.0815,1.0815,1.1345,1.1622,1.1654,1.2243,1.2512,1.2573,1.323,1.3872,1.4469,1.4469,1.4469,1.444,1.3782,1.3532,1.3601,1.4261,1.4499,1.4617,1.5206,1.503,1.4617,1.5206,1.541,1.541,1.541,1.541,1.541,1.543,1.5732,1.6125,1.6266,1.6663,1.7022,1.7032,1.7466,1.7851,1.7668,1.8105,1.8549,1.8741,1.865,1.8583,1.8808,1.9386,1.9779,1.9606,2.1012,0.0,2.1584,2.2443,2.3053,2.3058,2.3058,2.3283,2.3904,2.2447,2.246,2.465,2.3288,2.3125,2.4725,2.2234,2.083,2.083,2.0729,2.0163,1.9058,0.0,0.0,0.0,0.0,0.0,0.0,0.0,0.0,0.0,0.0,0.0,0.0,0.0,0.0,0.0,0.0,0.0,0.0,0.0,0.0,0.0,0.7799,0.8443,0.8085,0.8689,0.9147,0.9077,0.9275,0.9364,0.923,0.934,0.9562,0.9961,1.0035,1.035,1.1015,1.1341,1.1415,1.1261,1.1406,1.1321,1.0931,1.1077,1.1236,1.1367,1.1516,1.1825,1.2274,1.242,1.2757,1.323,1.3411,1.3601,1.3773,1.3773,1.4052,1.4469,1.4291,1.4231,1.4261,1.444,1.4765,1.5177,1.5352,1.5294,1.5177,1.5352,1.541,1.541,1.541,1.541,1.5478,1.5791,1.5997,1.6173,1.6496,1.6939,1.7295,1.7404,1.7807,1.8235,1.8425,1.8492,1.8549,1.8741,1.865,1.8774,1.9584,2.0291,2.0894,2.132,2.1377,2.1677,2.2533,2.2504,2.2249,2.1963,2.1945,2.2171,2.2723,2.2347,2.2874,2.4675,2.4362,2.4311,2.4775,2.4079,2.3678,2.3678,2.1722,2.0541,0.0,0.0,0.0,0.0,0.0,0.0,0.0,0.0,0.0,0.0,0.0,0.0,0.0,0.0,0.0,0.0,0.0,0.0,0.0,0.0,0.0,0.0,0.8538,0.908,0.9109,0.9395,0.9588,0.951,0.9647,0.9777,0.984,0.9925,1.0149,1.0517,1.0798,1.1176,1.1675,1.2042,1.2139,1.1931,1.1903,1.1684,1.1314,1.1296,1.1365,1.1466,1.1825,1.2158,1.2512,1.3092,1.3554,1.3923,1.4192,1.4312,1.4312,1.4312,1.4529,1.4854,0.0,0.0,0.0,0.0,1.5089,1.541,1.541,1.541,1.541,1.541,1.541,1.541,1.541,1.5537,1.5732,1.6016,1.6359,1.6711,1.6934,1.7324,1.768,1.786,1.8081,1.8371,1.8617,1.8573,1.8549,1.8741,1.8931,0.0,2.0355,2.0762,2.0994,2.0998,2.1531,2.2061,2.238,2.2706,2.28,2.2581,2.2749,2.31,2.364,2.302,0.0,0.0,0.0,2.4268,2.376,2.3735,0.0,0.0,0.0,2.1735,2.2397,2.1004,0.0,0.0,1.8431,1.8055,0.0,0.0,0.0,0.0,0.0,0.0,0.0,0.0,0.0,0.0,0.0,0.0,0.0,0.0,0.0,0.0,0.9204,0.9769,1.03,0.9925,0.9562,0.9517,0.9906,1.019,1.0226,1.0592,1.0922,1.1099,1.1541,1.1815,1.1884,1.2616,0.0,0.0,0.0,1.2174,1.1919,1.1514,1.1303,1.1334,1.212,1.2543,1.265,1.3923,1.4529,1.4617,1.5089,1.5294,1.5294,1.5294,1.5352,1.5352,1.4824,1.4942,1.541,1.541,1.541,1.541,1.541,0.0,0.0,1.541,1.541,1.542,1.5469,1.5782,1.6114,1.6212,1.6809,1.7393,1.7474,1.7734,1.8042,1.8236,1.8303,1.8337,1.8516,1.8516,1.8583,1.8808,1.9396,2.0063,2.0837,2.091,2.0634,2.0008,2.1735,2.2785,2.1895,2.3125,2.4042,2.3916,2.4311,0.0,2.5372,2.4067,2.4155,2.6361,2.5084,2.3828,2.2824,2.2774,2.2548,2.2058,2.2535,2.3514,2.4976,2.5473,2.546,2.4883,1.9785,1.8807,0.0,0.0,0.0,0.0,0.0,0.0,0.0,0.0,0.0,0.0,0.0,0.0,0.0,0.0,0.0,0.8679,0.9204,0.9744,1.0172,0.9777,0.9621,1.0138,1.0105,1.0123,1.0344,1.0728,1.1208,1.1834,1.2178,1.252,1.2887,1.3167,1.3033,1.2409,1.2189,1.1856,1.1452,1.1365,1.1365,1.156,1.2182,0.0,1.3322,1.4139,1.4765,1.5206,1.4824,1.4677,1.4677,1.4677,1.4971,1.5381,1.5264,1.5294,1.541,1.541,1.541,1.541,1.541,1.541,1.541,1.541,1.541,1.5478,1.586,1.6026,0.0,1.6966,1.7288,1.7461,1.7803,1.7949,1.8042,1.8236,1.8303,1.8371,1.8674,1.8741,1.8808,1.8998,1.9584,2.0096,2.0258,2.0709,2.1358,2.2268,2.2751,2.3124,2.3478,2.4192,2.4274,2.3371,2.3371,2.3659,2.4255,2.4017,2.4582,2.6386,2.6197,2.5921,2.5695,2.5695,2.5644,2.5531,2.5632,2.5845,2.6172,2.6285,2.6273,2.6135,2.413,2.3728,0.0,0.0,0.0,0.0,0.0,0.0,0.0,0.0,0.0,0.0,0.0,0.8222,0.8121,0.0,0.9111,0.9151,0.9409,0.9847,1.0557,1.0156,0.9976,1.0446,1.0438,1.0558,1.0956,1.1526,1.209,1.2664,1.271,1.286,1.3228,1.2898,1.2518,1.2166,1.1818,1.1553,1.1303,1.1694,1.1942,1.2066,1.3033,1.3696,1.4015,1.4666,1.5118,1.5381,1.5089,1.4942,1.4942,1.4942,1.5118,1.541,1.541,1.541,1.541,1.541,1.541,1.541,1.541,1.541,1.541,1.541,1.5557,1.5781,1.6026,1.6398,1.6848,1.7288,1.7539,1.7778,1.8085,1.8144,1.8212,1.8472,1.8539,1.8607,1.8875,1.8942,1.9065,1.9528,1.9879,2.04,2.1392,2.1824,2.2282,2.2953,2.3324,2.3733,2.4305,2.4883,2.4996,2.4418,2.4619,2.4921,2.5242,2.5267,2.5619,2.6449,2.6499,2.6499,2.6499,2.6499,2.6499,2.6499,2.6499,2.6499,2.6499,2.6499,2.6499,2.6474,2.5933,2.5774,0.0,0.0,0.0,0.0,0.0,0.0,0.0,0.7223,0.7827,0.8743,0.9257,0.9487,0.944,0.9491,0.9579,0.9739,0.9744,1.0035,1.0964,1.0643,1.0482,1.093,1.0973,1.1175,1.166,1.2389,1.2886,1.3093,1.2995,1.294,1.2923,1.2313,1.1927,1.1865,1.1514,1.1334,1.1365,1.212,1.2481,1.2489,1.3856,1.4494,1.4478,1.4981,1.5274,1.541,1.541,1.541,1.541,1.541,1.541,1.541,1.541,1.541,1.541,1.541,1.541,1.541,1.541,1.541,1.543,1.5508,1.5781,1.6124,1.63,1.6848,1.7435,1.748,1.7744,1.8042,1.8212,1.8269,1.8371,1.8674,1.8774,1.8841,1.9008,1.9042,1.9231,1.9911,2.0238,2.0968,2.2699,2.3175,2.3356,2.3356,2.3914,2.4469,2.4888,2.5435,2.5762,2.5762,2.6223,2.6499,2.6499,2.6499,2.6499,2.6499,2.6499,2.6499,2.6499,2.6499,2.6499,2.6499,2.6499,2.6499,2.6499,2.6499,2.6499,2.6499,2.6499,2.6499,0.6164,0.5752,0.548,0.5994,0.6343,0.7063,0.0,0.94,0.9553,1.0665,1.0557,1.0424,1.0855,1.022,0.9739,1.0233,1.0223,1.0352,1.1023,1.088,1.1124,1.2175,1.194,1.1783,1.2017,1.2777,1.3004,1.2455,1.2827,1.2638,1.1664,1.1737,1.1677,1.1397,1.1334,1.1404,1.156,1.2182,1.2428,1.2328,1.3804,1.4414,1.4249,1.4494,1.4901,1.541,1.541,1.541,1.541,1.541,1.541,1.541,1.541,1.541,1.541,1.541,1.541,1.541,1.541,1.541,1.5478,1.5889,1.6056,1.6242,1.7034,1.7337,1.7461,1.7832,1.7978,1.8008,1.8042,1.8178,1.8337,1.8516,1.8684,1.8808,1.8841,1.8841,1.9031,1.9715,2.0764,2.1834,2.2823,2.3902,2.4591,2.4591,2.5056,2.5435,2.5498,2.6047,2.6399,2.6399,2.6461,2.6499,2.6499,2.6499,2.6499,2.6499,2.6499,2.6499,2.6499,2.6499,2.6499,2.6499,2.6499,2.6499,2.6499,2.6499,2.6499,2.6499,2.6499,2.6499,0.706,0.6636,0.6231,0.6709,0.7049,0.7732,0.9481,0.9936,1.0398,1.1877,1.2017,1.1819,1.1744,1.136,1.0922,1.0472,1.0582,1.0786,1.0972,1.1167,1.1619,1.2406,1.2338,1.2324,1.2651,1.2614,1.2644,1.2764,1.2254,1.1808,1.1479,1.1317,1.1358,1.1686,1.181,1.2158,1.2689,1.3213,1.3463,1.3428,1.4417,1.4852,1.4805,1.4961,1.5167,1.541,1.541,1.541,1.541,1.541,1.541,1.541,1.541,1.541,1.541,1.541,1.541,1.541,1.541,1.5576,1.585,1.6036,1.6447,1.6936,1.7298,1.7549,1.7783,1.7959,1.8008,1.8042,1.8245,1.8313,1.8371,1.8607,1.865,1.8617,1.8617,1.8975,1.958,2.0676,2.1655,2.2743,2.4263,2.4945,2.5385,2.5724,2.5674,2.5724,2.6084,2.6348,2.6499,2.6499,2.6499,2.6499,2.6499,2.6499,2.6499,2.6499,2.6499,2.6499,2.6499,2.6499,2.6499,2.6499,2.6499,2.6499,2.6499,2.6499,2.6499,2.6499,2.6499,2.6499,0.7144,0.6881,0.6713,0.7216,0.7654,0.8324,0.9656,1.0272,1.0954,1.2381,1.2676,1.2603,1.2357,1.1943,1.141,1.0668,1.0837,1.0989,1.0888,1.1444,1.2026,1.2455,1.2401,1.2499,1.2896,1.2511,1.2372,1.2782,1.1808,1.1228,1.1257,1.1139,1.1351,1.1981,1.2358,1.2848,1.3472,1.3974,1.4192,1.416,1.4852,1.5069,1.4884,1.5079,1.5147,1.5147,1.5323,1.541,1.541,1.541,1.541,1.541,1.541,1.541,1.541,1.541,1.541,1.541,1.541,1.5693,1.6114,1.6242,1.6789,1.7402,1.7519,1.7773,1.8008,1.8008,1.8008,1.8042,1.8313,1.8337,1.8371,1.8607,1.8573,1.858,1.8893,1.9352,2.0213,2.1753,2.2622,2.3604,2.5228,2.5703,2.5975,2.6368,2.6101,2.6021,2.6436,2.6499,2.6499,2.6499,2.6499,2.6499,2.6499,2.6499,2.6499,2.6499,2.6499,2.6499,2.6499,2.6499,2.6499,2.6499,2.6499,2.6499,2.6499,2.6499,2.6499,2.6499,2.6499,2.6499,0.6023,0.6074,0.6529,0.7463,0.818,0.8966,1.0122,1.0788,1.135,1.1993,1.2126,1.2274,1.2783,1.1535,1.0574,1.0922,1.0947,1.0871,1.0804,1.1669,1.2348,1.248,1.216,1.2086,1.2486,1.2493,1.2397,1.2147,1.1745,1.1233,1.0649,1.1344,1.1826,1.2012,1.2757,1.329,1.3511,1.3974,1.4133,1.401,1.4823,1.4793,1.404,1.438,1.4529,1.4558,1.5147,1.541,1.541,1.541,1.541,1.541,1.541,1.541,1.541,1.541,1.541,1.541,1.541,1.5693,1.6163,1.6541,1.7021,1.7461,1.7871,1.7998,1.8008,1.8008,1.8008,1.8008,1.8008,1.8178,1.8303,1.8303,1.8405,1.8785,1.9842,2.0073,2.0644,2.258,2.3533,2.4311,2.5176,2.5974,2.6405,2.6236,2.6349,2.6474,2.6499,2.6499,2.6499,2.6499,2.6499,2.6499,2.6499,2.6499,2.6499,2.6499,2.6499,2.6499,2.6499,2.6499,2.6499,2.6499,2.6499,2.6499,2.6499,2.6499,2.6499,2.6499,2.6499,2.6499,0.672,0.6801,0.7082,0.7851,0.8363,0.896,0.9911,1.0413,1.0829,1.1385,1.1426,1.1434,1.1609,1.1107,1.0601,1.0364,1.0871,1.1167,1.0854,1.1669,1.2357,1.248,1.2143,1.205,1.2476,1.1849,1.1522,1.1692,1.1207,1.0807,1.0624,1.1358,1.1818,1.1865,1.307,1.3752,1.3825,1.4312,1.4597,1.4675,1.503,1.4903,1.4359,1.4854,1.5089,1.5118,1.5323,1.541,1.541,1.541,1.541,1.541,1.541,1.541,1.541,1.541,1.541,1.5449,1.5772,1.6133,1.6582,1.7021,1.7451,1.7822,1.7969,1.8008,1.8008,1.8008,1.8008,1.8042,1.8168,1.8144,1.8144,1.8269,1.8245,1.8524,1.9829,2.0366,2.125,2.3327,2.4193,2.4822,2.5566,2.5926,2.6119,2.6201,2.627,2.6339,2.6499,2.6499,2.6499,2.6499,2.6499,2.6499,2.6499,2.6499,2.6499,2.6499,2.6499,2.6499,2.6499,2.6499,2.6499,2.6499,2.6499,2.6499,2.6499,2.6499,2.6499,2.6499,2.6499,2.6499,0.7085,0.7102,0.7216,0.8012,0.8443,0.8867,0.9551,1.0058,1.0506,1.0829,1.0914,1.0904,1.0871,1.0623,1.0357,1.0106,1.0633,1.1054,1.0981,1.1607,1.211,1.2211,1.1904,1.1699,1.1783,1.1092,1.0861,1.1461,1.0933,1.0593,1.0593,1.1358,1.1911,1.2143,1.3342,1.4112,1.4341,1.4588,1.4686,1.4645,1.4726,1.4688,1.4499,1.4913,1.5206,1.541,1.541,1.541,1.541,1.541,1.541,1.541,1.541,1.541,1.541,1.541,1.5508,1.5684,1.5997,1.6357,1.6775,1.7246,1.7666,1.8008,1.8008,1.8008,1.8008,1.8008,1.8008,1.8042,1.8168,1.811,1.8042,1.8168,1.8193,1.8685,2.031,2.1062,2.2034,2.4107,2.4841,2.5239,2.5697,2.5793,2.5875,2.6062,2.6097,2.6188,2.6452,2.6499,2.6499,2.6499,2.6499,2.6499,2.6499,2.6499,2.6499,2.6499,2.6499,2.6499,2.6499,2.6499,2.6499,2.6499,2.6499,2.6499,2.6499,2.6499,2.6499,2.6499,2.6499,2.6499,0.7041,0.6971,0.6971,0.7946,0.8436,0.8796,0.9104,0.9799,1.0336,1.0281,1.0475,1.0602,1.0422,1.0027,0.9802,1.0067,1.0249,1.0581,1.1217,1.155,1.1719,1.1718,1.1466,1.1092,1.0544,1.026,1.0465,1.1356,1.0885,1.0553,1.0566,1.1353,1.2081,1.2679,1.3575,1.4312,1.4911,1.4784,1.4449,1.395,1.404,1.421,1.444,1.4529,1.4854,1.541,1.541,1.541,1.541,1.541,1.541,1.541,1.541,1.541,1.541,1.5439,1.5703,1.6105,1.6144,1.6416,1.6804,1.7275,1.7686,1.8008,1.8008,1.8008,1.8008,1.8008,1.8008,1.8008,1.8008,1.8008,1.8008,1.8008,1.833,1.9234,2.1279,2.2075,2.2943,2.4945,2.5453,2.5571,2.5571,2.5606,2.5676,2.5875,2.591,2.605,2.643,2.6499,2.6499,2.6499,2.6499,2.6499,2.6499,2.6499,2.6499,2.6499,2.6499,2.6499,2.6499,2.6499,2.6499,2.6499,2.6499,2.6499,2.6499,2.6499,2.6499,2.6499,2.6524,2.6537,0.7165,0.7326,0.7508,0.7756,0.8268,0.873,0.8818,0.9326,0.9594,0.884,0.867,0.8408,0.7611,0.8145,0.8716,0.8784,1.0051,1.1141,1.1411,1.1858,1.2079,1.1869,1.1614,1.121,1.0572,1.026,1.012,1.0151,1.0025,1.003,1.0214,1.1353,1.1863,1.1548,1.3374,1.4219,1.3872,1.4426,1.4207,1.326,1.4359,1.4488,1.3782,1.4736,1.5264,1.541,1.541,1.541,1.541,1.541,1.541,1.541,1.541,1.541,1.5449,1.5781,1.5997,1.6183,1.6848,1.7119,1.7285,1.7715,1.793,1.8008,1.8008,1.8008,1.8008,1.8008,1.8008,1.8008,1.8008,1.8008,1.8008,1.8008,1.8768,1.9945,2.1556,2.2601,2.3675,2.5216,2.5453,2.5382,2.5382,2.55,2.5676,2.5875,2.591,2.598,2.6236,2.6396,2.6499,2.6499,2.6499,2.6499,2.6499,2.6499,2.6499,2.6499,2.6499,2.6499,2.6499,2.6499,2.6499,2.6499,2.6499,2.6499,2.6499,2.6499,2.6499,2.6499,2.6914,2.7115,0.7384,0.7559,0.7691,0.7691,0.8209,0.8575,0.8143,0.8538,0.8734,0.7888,0.7414,0.7049,0.6691,0.7466,0.827,0.8611,1.0027,1.1268,1.1696,1.2064,1.2123,1.1695,1.1554,1.1133,1.0236,0.988,0.9637,0.9499,0.9613,0.9753,0.992,1.1019,1.1628,1.1539,1.3165,1.401,1.3941,1.4405,1.4088,1.3009,1.4449,1.4547,1.3541,1.4815,1.541,1.541,1.541,1.541,1.541,1.541,1.541,1.541,1.541,1.541,1.5469,1.5938,1.6212,1.6455,1.7148,1.75,1.7695,1.7939,1.8008,1.8008,1.8008,1.8008,1.8008,1.8008,1.8008,1.8008,1.8008,1.8008,1.8008,1.8008,1.8815,1.9994,2.1541,2.2594,2.3727,2.5181,2.5382,2.5312,2.5312,2.5382,2.5535,2.5723,2.5758,2.5828,2.6027,2.6154,2.628,2.6499,2.643,2.6396,2.6499,2.6499,2.6499,2.6499,2.6499,2.6499,2.6499,2.6499,2.6499,2.6499,2.6499,2.6499,2.6499,2.6499,2.6612,2.6864,2.7165,2.7419,0.7618,0.7691,0.7691,0.7691,0.8209,0.8436,0.7428,0.7749,0.8034,0.7187,0.6561,0.6266,0.6542,0.7336,0.8182,0.8858,1.0116,1.1247,1.1988,1.2237,1.2091,1.1374,1.1487,1.1092,0.9824,0.9469,0.9301,0.9268,0.9525,0.9665,0.9619,1.0513,1.1427,1.2274,1.3152,1.392,1.4476,1.4417,1.3881,1.2978,1.4261,1.4359,1.3502,1.4815,1.541,1.541,1.541,1.541,1.541,1.541,1.541,1.541,1.541,1.5449,1.5557,1.6016,1.6436,1.6853,1.7314,1.7705,1.8008,1.8008,1.8008,1.8008,1.8008,1.8008,1.8008,1.8008,1.8008,1.8008,1.8008,1.8008,1.8018,1.8076,1.8878,2.0001,2.1474,2.2576,2.3683,2.5052,2.5312,2.5312,2.5312,2.5312,2.5382,2.5571,2.5571,2.5641,2.5875,2.591,2.605,2.643,2.6305,2.627,2.6499,2.6499,2.6499,2.6499,2.6499,2.6499,2.6499,2.6499,2.6499,2.6499,2.6499,2.6499,2.6499,2.6562,2.6851,2.7281,2.7431,2.7758,0.7676,0.7691,0.7691,0.7691,0.8209,0.8436,0.7428,0.7938,0.8114,0.6321,0.6037,0.5878,0.5058,0.6419,0.7825,0.8282,1.0061,1.1555,1.2039,1.2403,1.2298,1.1399,1.1824,1.1507,0.9853,0.9855,0.9825,0.9566,0.9595,0.9531,0.9305,1.0222,1.1532,1.3211,1.3944,1.4387,1.4515,1.395,1.339,1.2856,1.3734,1.3855,1.3312,1.4746,1.541,1.541,1.541,1.541,1.541,1.541,1.541,1.541,1.541,1.5635,1.6036,1.6455,1.6894,1.7334,1.7754,1.7949,1.8008,1.8008,1.8008,1.8008,1.8008,1.8008,1.8008,1.8008,1.8008,1.8008,1.8008,1.8008,1.8096,1.8412,1.9912,2.1461,2.2054,2.3635,2.4981,2.5241,2.5312,2.5312,2.5312,2.5312,2.5382,2.5571,2.5453,2.55,2.5828,2.591,2.598,2.6236,2.6201,2.627,2.6499,2.6499,2.6499,2.6499,2.6499,2.6499,2.6499,2.6499,2.6499,2.6499,2.6499,2.6499,2.6499,2.6952,2.7228,2.7306,2.8222,2.8662,0.7691,0.7691,0.7735,0.7924,0.8334,0.8348,0.7024,0.7346,0.7406,0.5603,0.5283,0.5265,0.5059,0.6117,0.7142,0.7526,0.9448,1.0978,1.119,1.2241,1.26,1.1443,1.1955,1.1807,1.0272,0.9949,0.9782,0.9603,0.9588,0.968,0.9807,1.065,1.1842,1.3455,1.3821,1.4139,1.4515,1.4169,1.364,1.2917,1.4013,1.4112,1.3403,1.4785,1.541,1.541,1.541,1.541,1.541,1.541,1.541,1.541,1.541,1.5684,1.6153,1.6562,1.7012,1.7451,1.7861,1.8008,1.8008,1.8008,1.8008,1.8008,1.8008,1.8008,1.8008,1.8008,1.8008,1.8008,1.8008,1.8008,1.8081,1.85,2.035,2.2231,2.3077,2.4317,2.5312,2.5312,2.5312,2.5312,2.5312,2.5312,2.5382,2.5571,2.5418,2.5418,2.5723,2.5758,2.5875,2.6166,2.6097,2.6154,2.6452,2.6499,2.6499,2.6499,2.6499,2.6499,2.6499,2.6499,2.6499,2.6499,2.6499,2.6637,2.6927,2.719,2.7582,2.816,2.865,2.9051,0.7691,0.7691,0.7756,0.8034,0.8399,0.8268,0.6566,0.6768,0.6837,0.5137,0.4804,0.4914,0.5332,0.5994,0.6599,0.6947,0.868,1.0138,1.0559,1.1891,1.2467,1.1526,1.1949,1.178,1.0465,0.9886,0.9588,0.9588,0.9821,1.0107,1.0402,1.1122,1.2065,1.3265,1.3571,1.398,1.4476,1.4357,1.3881,1.3161,1.4261,1.4389,1.3683,1.4874,1.541,1.541,1.541,1.541,1.541,1.541,1.541,1.541,1.541,1.5742,1.6281,1.657,1.7038,1.7568,1.79,1.8008,1.8008,1.8008,1.8008,1.8008,1.8008,1.8008,1.8008,1.8008,1.8008,1.8008,1.8008,1.8008,1.8203,1.9054,2.0913,2.2814,2.4064,2.4862,2.5312,2.5312,2.5312,2.5312,2.5312,2.5312,2.5347,2.55,2.5382,2.5382,2.5571,2.5606,2.5758,2.6166,2.6062,2.6119,2.6465,2.6499,2.6499,2.6499,2.6499,2.6499,2.6499,2.6499,2.6499,2.6499,2.6612,2.6889,2.7281,2.7519,2.8084,2.8888,2.9013,2.9365,0.7691,0.7691,0.7698,0.7727,0.8224,0.8209,0.628,0.6782,0.7107,0.5188,0.5132,0.536,0.5166,0.5839,0.6546,0.6929,0.794,0.9288,1.1057,1.1256,1.1378,1.1789,1.1706,1.112,0.9882,0.9677,0.9588,0.9588,1.0549,1.096,1.0504,1.1179,1.1904,1.258,1.3761,1.4446,1.4515,1.3881,1.3601,1.3631,1.3953,1.4124,1.4154,1.5021,1.541,1.541,1.541,1.541,1.541,1.541,1.541,1.541,1.541,1.5898,1.6648,1.6687,1.7213,1.7959,1.7998,1.8008,1.8008,1.8008,1.8008,1.8008,1.8008,1.8008,1.8008,1.8008,1.8008,1.8008,1.8008,1.8008,1.858,2.0863,2.2193,2.3345,2.485,2.5229,2.5312,2.5312,2.5312,2.5312,2.5312,2.5312,2.5312,2.5312,2.5312,2.5382,2.5571,2.5606,2.5758,2.6166,2.6166,2.627,2.6499,2.6499,2.6499,2.6499,2.6499,2.6499,2.6499,2.6499,2.6499,2.6499,2.6989,2.7231,2.7281,2.8285,2.8787,2.89,2.9465,2.9741,0.7691,0.7691,0.7742,0.796,0.8055,0.7748,0.6397,0.6621,0.6669,0.5115,0.5247,0.5523,0.516,0.5486,0.5835,0.5963,0.7029,0.8046,0.8662,0.9776,1.0472,1.0295,1.0679,1.0756,1.0236,0.9832,0.9588,0.9588,0.9725,1.0013,1.0479,1.1471,1.2344,1.3083,1.3631,1.41,1.4515,1.3851,1.3381,1.3169,1.3734,1.3846,1.3636,1.4844,1.541,1.541,1.541,1.541,1.541,1.541,1.541,1.541,1.541,1.5917,1.6697,1.6697,1.7243,1.8008,1.8008,1.8008,1.8008,1.8008,1.8008,1.8008,1.8008,1.8008,1.8008,1.8008,1.8008,1.8008,1.8008,1.8389,1.9273,2.1231,2.2366,2.3438,2.4981,2.5312,2.5312,2.5312,2.5312,2.5312,2.5312,2.5312,2.5312,2.5312,2.5312,2.5382,2.5571,2.5723,2.5875,2.6166,2.6213,2.627,2.6499,2.6499,2.6499,2.6499,2.6499,2.6499,2.6499,2.6499,2.665,2.6989,2.7203,2.7607,2.8273,2.8675,2.9076,2.9453,2.9691,2.9792,0.7669,0.7691,0.7749,0.7997,0.7887,0.7463,0.6507,0.6512,0.6367,0.5188,0.5348,0.5576,0.5174,0.5205,0.5292,0.5295,0.6127,0.6941,0.7383,0.8581,0.9397,0.9373,0.9706,1.0001,1.0094,0.981,0.9596,0.9477,0.9381,0.9715,1.0632,1.163,1.2489,1.3174,1.3601,1.401,1.4515,1.3851,1.3442,1.3373,1.3795,1.3944,1.3825,1.4903,1.541,1.541,1.541,1.541,1.541,1.541,1.541,1.541,1.541,1.5917,1.6697,1.6697,1.7243,1.8008,1.8008,1.8008,1.8008,1.8008,1.8008,1.8008,1.8008,1.8008,1.8008,1.8008,1.8008,1.8008,1.8008,1.8818,1.9991,2.1387,2.2546,2.3683,2.5016,2.5312,2.5312,2.5312,2.5312,2.5312,2.5312,2.5312,2.5312,2.5382,2.5382,2.55,2.5758,2.591,2.6062,2.627,2.6305,2.6339,2.6499,2.6499,2.6499,2.6499,2.6499,2.6499,2.6499,2.665,2.6927,2.7268,2.7607,2.816,2.8888,2.9063,2.939,2.9792,2.9792,2.9792,0.7603,0.7691,0.7691,0.7698,0.7698,0.7463,0.6507,0.6512,0.6426,0.5487,0.5515,0.5576,0.5174,0.5053,0.5063,0.5262,0.5322,0.6058,0.8195,0.7929,0.8099,0.9617,0.8996,0.8636,0.9158,0.9506,0.9552,0.9231,0.9996,1.0654,1.1078,1.162,1.2095,1.2496,1.3791,1.4476,1.4515,1.3851,1.3902,1.4677,1.4213,1.4401,1.5176,1.5332,1.541,1.541,1.541,1.541,1.541,1.541,1.541,1.541,1.541,1.5917,1.6697,1.6697,1.7243,1.8008,1.8008,1.8008,1.8008,1.8008,1.8008,1.8008,1.8008,1.8008,1.8008,1.8008,1.8008,1.8008,1.8008,1.9253,2.0684,2.1492,2.2926,2.4301,2.5123,2.5312,2.5312,2.5312,2.5312,2.5312,2.5312,2.5312,2.5382,2.5571,2.5606,2.5723,2.6131,2.6213,2.627,2.6499,2.6499,2.6499,2.6499,2.6499,2.6499,2.6499,2.6499,2.6499,2.6499,2.7014,2.7268,2.7281,2.8348,2.8888,2.8888,2.9503,2.9779,2.9792,2.9792,2.9792,0.6753,0.6885,0.6925,0.6504,0.6395,0.6256,0.5737,0.5853,0.5934,0.54,0.5515,0.5576,0.5174,0.519,0.5415,0.585,0.6064,0.6434,0.7105,0.7727,0.8132,0.8226,0.886,0.9339,0.9526,0.9626,0.9646,0.9552,0.9799,1.0093,1.0402,1.101,1.1721,1.2465,1.3351,1.3821,1.3821,1.3161,1.3161,1.3872,1.3494,1.3704,1.4401,1.5089,1.541,1.541,1.541,1.541,1.541,1.541,1.541,1.541,1.541,1.5917,1.6697,1.6697,1.7243,1.8008,1.8008,1.8008,1.8008,1.8008,1.8008,1.8008,1.8008,1.8008,1.8008,1.8008,1.8337,1.8596,1.811,1.8962,2.0271,2.1416,2.228,2.3302,2.4933,2.5312,2.5312,2.5312,2.5312,2.5312,2.5312,2.5312,2.5382,2.5571,2.5606,2.5758,2.6131,2.6097,2.6119,2.6452,2.6361,2.6339,2.6499,2.6499,2.6499,2.6499,2.6499,2.6499,2.6499,2.7027,2.7457,2.7833,2.8561,2.9088,2.9515,2.9704,2.9792,2.9792,2.9792,2.9792,0.6302,0.6434,0.6468,0.6082,0.5796,0.559,0.551,0.5554,0.5575,0.5472,0.5603,0.5636,0.5285,0.5252,0.5419,0.5803,0.5903,0.6119,0.6673,0.7395,0.7889,0.7986,0.9012,0.9639,0.9526,0.982,0.9997,0.986,0.9976,1.0124,1.0274,1.068,1.1279,1.2112,1.3017,1.3511,1.3511,1.2856,1.2856,1.3511,1.31,1.3312,1.4034,1.4913,1.5362,1.541,1.541,1.541,0.0,1.541,1.541,1.541,1.541,1.585,1.6494,1.6638,1.7145,1.7793,1.7959,1.8008,1.8008,1.8008,1.8008,1.8008,1.8008,1.8008,1.8008,1.8008,1.8496,1.8911,1.8496,1.9453,2.0747,2.1597,2.2455,2.3454,2.4718,2.5168,2.5312,2.5312,2.5312,2.5312,2.5312,2.5347,2.55,2.5676,2.5793,2.591,2.6166,2.6166,2.6188,2.6361,2.6339,2.6374,2.6499,2.6499,2.6499,2.6499,2.6499,2.6499,2.6499,2.7027,2.7544,2.8097,2.8612,2.9214,2.9792,2.9792,2.9792,2.9792,2.9792,2.9792,0.0,0.6245,0.626,0.6208,0.5737,0.5392,0.5693,0.5546,0.0,0.5643,0.574,0.5686,0.5449,0.5245,0.5163,0.5311,0.5082,0.5408,0.6895,0.7185,0.7661,0.8791,0.9392,0.9613,0.9331,1.0074,1.0479,1.0167,1.0439,1.0593,1.0593,1.0593,1.087,1.1428,1.2742,1.345,1.3511,1.2887,1.2887,1.3472,1.3078,1.3252,1.4034,1.4834,1.5264,1.541,1.541,1.541,1.541,1.541,1.541,1.541,1.541,1.5684,1.6144,1.6533,1.6982,1.7441,1.7832,1.7988,1.8008,1.8008,1.8008,1.8008,1.8008,1.8008,1.8008,1.8008,1.8529,1.9077,1.9011,2.0413,2.1835,2.1903,2.3167,2.4402,2.4484,2.4939,2.5312,2.5312,2.5312,2.5312,2.5312,2.5465,2.5676,2.5875,2.6062,2.6166,2.6213,2.6339,2.6396,2.6201,2.6361,2.6499,2.6499,2.6499,2.6512,2.6549,2.6549,2.6562,2.6612,2.714,2.7645,2.816,2.8675,2.9252,2.9792,2.9792,2.9792,2.9792,2.9792,2.9792,0.5583,0.0,0.5796,0.5289,0.5224,0.5312,0.0,0.5523,0.563,0.5693,0.5591,0.548,0.5417,0.5324,0.5334,0.5564,0.5762,0.6403,0.7923,0.8897,0.9619,1.0124,1.0067,1.008,1.0265,1.0472,1.0566,1.0492,1.0553,1.0593,1.0593,1.0593,1.0649,1.0807,1.2058,1.2978,1.3472,1.3351,1.3351,1.3511,1.3472,1.3674,1.4034,1.4834,1.5264,1.541,1.541,1.541,1.541,1.541,1.541,1.541,1.541,1.5684,1.6105,1.6212,1.675,1.7393,1.75,1.7744,1.8008,1.8008,1.8008,1.8008,1.8008,1.8008,1.8008,1.8008,1.8888,1.9704,1.9144,2.014,2.1399,2.1789,2.2531,2.3371,2.4297,2.4939,2.5312,2.5312,2.5312,2.5312,2.5312,2.5465,2.5676,2.5875,2.5945,2.6027,2.6166,2.6131,2.6084,2.6179,2.6236,2.6339,2.6499,2.6499,2.6675,2.7102,2.7115,2.7281,2.7708,2.8247,2.8562,2.87,2.9302,2.9654,2.9792,2.9792,2.9792,2.9792,2.9792,2.9792,0.5583,0.5554,0.5488,0.5122,0.5048,0.5107,0.5225,0.5385,0.5536,0.5602,0.5599,0.551,0.5256,0.554,0.5746,0.5548,0.6231,0.7237,0.8478,0.95,1.021,1.0356,1.0334,1.0412,1.0579,1.0593,1.0593,1.0593,1.0593,1.0593,1.0593,1.0593,1.0713,1.0989,1.1694,1.2366,1.3039,1.3039,1.3039,1.3039,1.31,1.3282,1.3575,1.4627,1.5196,1.541,1.541,1.541,1.541,1.541,1.541,1.541,1.541,1.5557,1.584,1.6221,1.667,1.7139,1.7539,1.7822,1.8008,1.8008,1.8008,1.8008,1.8008,1.8202,1.8395,1.8076,1.9253,2.0387,1.9704,2.0312,2.1267,2.1908,2.2201,2.2667,2.3915,2.459,2.5023,2.5264,2.5312,2.5347,2.5418,2.5535,2.5676,2.5875,2.591,2.5945,2.6062,2.6062,2.6097,2.6179,2.627,2.6361,2.6499,2.6725,2.7002,2.7268,2.7281,2.7532,2.8084,2.8398,2.8637,2.8888,2.9503,2.9792,2.9792,2.9792,2.9792,2.9792,2.9792,2.9792,0.5854,0.5708,0.5487,0.5407,0.5158,0.502,0.5233,0.5334,0.5392,0.5505,0.5619,0.5571,0.5268,0.5771,0.6075,0.5571,0.6866,0.8179,0.8901,0.985,1.0387,1.0211,1.0439,1.0593,1.0593,1.0593,1.0593,1.0593,1.0593,1.0593,1.0593,1.0593,1.0839,1.1365,1.1545,1.1942,1.2473,1.2604,1.2604,1.2512,1.2696,1.2879,1.3039,1.4389,1.5137,1.541,1.541,1.541,1.541,1.541,1.541,1.541,1.541,1.541,1.5508,1.6297,1.6638,1.6824,1.7715,1.8008,1.8008,1.8008,1.8008,1.8008,1.8008,1.8563,1.9011,1.8202,1.9507,2.0933,2.0258,2.0677,2.1431,2.2061,2.2126,2.2393,2.3541,2.4169,2.464,2.5204,2.5312,2.5347,2.5535,2.5571,2.5641,2.584,2.5875,2.591,2.591,2.6097,2.6213,2.6213,2.6361,2.6524,2.6612,2.7052,2.7356,2.7519,2.7532,2.7783,2.8348,2.836,2.8586,2.9013,2.9541,2.9792,2.9792,2.9792,2.9792,2.9792,2.9792,2.9792,0.615,0.6351,0.637,0.5846,0.5686,0.5664,0.57,0.5668,0.5643,0.5662,0.5387,0.5331,0.5971,0.5743,0.5675,0.6298,0.8347,0.9887,0.9967,1.1223,1.1736,1.0645,1.0566,1.0593,1.0593,1.0593,1.0593,1.0593,1.0593,1.0593,1.0593,1.0593,1.0656,1.0744,1.1779,1.2389,1.2512,1.307,1.307,1.2504,1.3662,1.3761,1.3039,1.4389,1.5137,1.541,1.541,1.541,1.541,1.541,1.541,1.541,1.541,1.541,1.5469,1.6016,1.6406,1.6824,1.7715,1.8008,1.8008,1.8008,1.8008,1.8008,1.8008,1.8888,1.9671,1.8371,1.9507,2.0933,2.0258,2.1051,2.2061,2.2154,2.2531,2.3014,2.3652,2.4169,2.464,2.5204,2.5312,2.5312,2.5347,2.55,2.5606,2.5641,2.5793,2.591,2.591,2.6097,2.6213,2.6213,2.6361,2.6688,2.7153,2.7231,2.7682,2.8612,2.8637,2.8938,2.9515,2.9528,2.9578,2.9654,2.9741,2.9792,2.9792,2.9792,2.9792,2.9792,2.9792,2.9792,0.5995,0.6126,0.6234,0.6268,0.6499,0.6789,0.705,0.7039,0.686,0.6335,0.619,0.608,0.5907,0.6323,0.7258,0.8978,0.9935,1.051,1.0676,1.1293,1.1404,1.0438,1.0492,1.0593,1.0593,1.0593,1.0593,1.0593,1.0593,1.0593,1.0593,1.0593,1.0593,1.0593,1.1476,1.212,1.2512,1.2826,1.2787,1.2512,1.3472,1.3631,1.3039,1.4389,1.5137,1.541,1.541,1.541,1.541,1.541,1.541,1.541,1.541,1.541,1.5488,1.6172,1.6699,1.7178,1.7793,1.8008,1.8008,1.8008,1.8008,1.8008,1.8008,1.8988,1.9813,1.8405,1.977,2.1431,2.0387,2.0848,2.1726,2.2092,2.2072,2.2303,2.3559,2.3986,2.435,2.5155,2.5312,2.5347,2.5453,2.5453,2.55,2.5723,2.5758,2.584,2.6015,2.6131,2.6236,2.6339,2.6694,2.704,2.7291,2.7821,2.8386,2.8863,2.9227,2.9515,2.9779,2.9792,2.9792,2.9792,2.9792,2.9792,2.9792,2.9792,2.9792,2.9792,2.9792,2.9792,0.5891,0.5964,0.6139,0.668,0.6965,0.7299,0.8054,0.8068,0.78,0.7311,0.7207,0.7016,0.6453,0.7528,0.9133,1.1096,1.1301,1.1285,1.1628,1.1541,1.118,1.0519,1.0546,1.0593,1.0593,1.0593,1.0593,1.0593,1.0593,1.0593,1.0593,1.0593,1.0649,1.0807,1.1421,1.2058,1.2726,1.2726,1.2665,1.2512,1.3169,1.3321,1.3009,1.4359,1.5147,1.5362,1.5381,1.541,1.541,1.541,1.541,1.541,1.541,1.5478,1.5654,1.6414,1.7012,1.7451,1.7861,1.8008,1.8008,1.8008,1.8008,1.8008,1.8008,1.8988,1.9835,1.8596,2.0161,2.1874,2.0463,2.072,2.1494,2.2061,2.1757,2.1771,2.3278,2.371,2.4071,2.4951,2.5216,2.5347,2.5488,2.5382,2.5418,2.5793,2.5723,2.5793,2.6131,2.6236,2.6389,2.6675,2.7065,2.7394,2.7645,2.8561,2.9126,2.9126,2.9553,2.9792,2.9792,2.9792,2.9792,2.9792,2.9792,2.9792,2.9792,2.9792,2.9792,2.9792,2.9792,2.9792,0.6186,0.6446,0.6717,0.7066,0.6531,0.6335,0.7925,0.7857,0.7703,0.8554,0.8073,0.7761,0.8668,0.9595,1.045,1.1102,1.2184,1.3017,1.3288,1.2785,1.2143,1.1478,1.0919,1.0593,1.0593,1.0593,1.0593,1.0593,1.0593,1.0593,1.0593,1.0593,1.087,1.1428,1.2089,1.2757,1.3411,1.342,1.313,1.2512,1.3169,1.326,1.2856,1.433,1.5098,1.5215,1.5362,1.541,1.541,1.541,1.541,1.541,1.541,1.5664,1.6105,1.6553,1.7012,1.7451,1.7861,1.8008,1.8008,1.8008,1.8008,1.8008,1.8008,1.8988,1.9933,1.9144,2.0516,2.1874,2.0463,2.1115,2.2123,2.2197,2.2166,2.2279,2.2907,2.3457,2.3962,2.447,2.4975,2.5312,2.5312,2.5312,2.5382,2.5571,2.5758,2.5945,2.6166,2.6374,2.6653,2.7203,2.7291,2.7695,2.8687,2.9377,2.9729,2.9729,2.9767,2.9792,2.9792,2.9792,2.9792,2.9792,2.9792,2.9792,2.9792,2.9792,2.9792,2.9792,2.9792,2.9792,0.5899,0.6457,0.6902,0.6688,0.6777,0.7356,0.903,0.9175,0.909,0.9591,0.9588,0.9418,0.9213,1.0041,1.0981,1.1596,1.2763,1.3433,1.2959,1.2665,1.212,1.1052,1.0744,1.0593,1.0593,1.0593,1.0593,1.0593,1.0593,1.0593,1.0593,1.0965,1.1264,1.1483,1.2551,1.323,1.3511,1.31,1.2948,1.313,1.3381,1.345,1.3411,1.4517,1.5059,1.5215,1.5264,1.5313,1.5381,1.5313,1.5313,1.541,1.541,1.5684,1.6153,1.6562,1.7012,1.7451,1.7861,1.8008,1.8008,1.8008,1.8008,1.8008,1.8008,1.8988,1.9933,1.921,2.0549,2.1956,2.0976,2.1463,2.2197,2.2197,2.2197,2.2342,2.2871,2.3433,2.395,2.4422,2.4939,2.5312,2.5312,2.5312,2.5418,2.5723,2.5758,2.5863,2.6327,2.6339,2.6586,2.7231,2.7896,2.8624,2.9402,2.9666,2.9792,2.9792,2.9792,2.9792,2.9792,2.9792,2.9792,2.9792,2.9792,2.9792,2.9792,2.9792,2.9792,2.9792,2.9792,2.9792,0.6024,0.6591,0.7144,0.7229,0.7497,0.8205,1.0005,1.0016,0.9882,1.0752,1.0888,1.0594,0.974,1.0569,1.1547,1.2077,1.3255,1.3875,1.3218,1.2948,1.2428,1.1327,1.1021,1.0807,1.0624,1.0593,1.0593,1.0593,1.0593,1.0681,1.087,1.1272,1.1701,1.2128,1.3017,1.3601,1.3821,1.3161,1.3161,1.3821,1.3601,1.3541,1.3662,1.4577,1.5059,1.5156,1.5235,1.5313,1.5381,1.5313,1.5313,1.541,1.541,1.5596,1.5958,1.6482,1.6892,1.7256,1.7812,1.8008,1.8008,1.8008,1.8008,1.8042,1.8269,1.9154,2.0031,1.9759,2.088,2.2092,2.16,2.1819,2.2234,2.2402,2.2306,2.2342,2.2871,2.3433,2.3902,2.4218,2.4843,2.5312,2.5312,2.5347,2.5488,2.5758,2.5723,2.5863,2.6327,2.6305,2.6544,2.7469,2.8536,2.9365,2.9754,2.9792,2.9792,2.9792,2.9792,2.9792,2.9792,2.9792,2.9792,2.9792,2.9792,2.9792,2.9792,2.9792,2.9792,2.9792,2.9792,2.9792,0.6685,0.6942,0.753,0.893,0.8649,0.8574,1.0619,1.0056,0.9759,1.2034,1.1808,1.104,1.0514,1.1392,1.2273,1.2471,1.364,1.4515,1.4476,1.3911,1.323,1.2573,1.1911,1.1272,1.0649,1.0593,1.0593,1.0593,1.0593,1.087,1.1483,1.1514,1.2128,1.345,1.3511,1.3821,1.4485,1.3821,1.3821,1.4485,1.3821,1.3511,1.3541,1.4547,1.5,1.5,1.5274,1.541,1.541,1.541,1.541,1.541,1.541,1.542,1.5537,1.6375,1.6707,1.6833,1.7715,1.8008,1.8008,1.8008,1.8008,1.8144,1.8821,1.9507,2.0226,2.0901,2.162,2.2197,2.2197,2.2197,2.233,2.2859,2.2582,2.2342,2.2871,2.3433,2.3806,2.3806,2.4602,2.5312,2.5312,2.5465,2.5606,2.5606,2.5758,2.598,2.6179,2.6213,2.6706,2.796,2.9114,2.9792,2.9792,2.9792,2.9792,2.9792,2.9792,2.9792,2.9792,2.9792,2.9792,2.9792,2.9792,2.9792,2.9792,2.9792,2.9792,2.9792,2.9792,2.9792,0.5503,0.6606,0.7761,0.7757,0.8975,1.0333,1.0954,1.0717,1.077,1.2205,1.1932,1.1385,1.1249,1.1965,1.26,1.275,1.3823,1.4478,1.4001,1.329,1.2551,1.188,1.124,1.0807,1.0624,1.0593,1.0593,1.0593,1.0593,1.087,1.1483,1.1942,1.2612,1.3472,1.395,1.407,1.3791,1.313,1.313,1.3791,1.313,1.329,1.4228,1.4764,1.5,1.5,1.5176,1.5264,1.5264,1.5264,1.5313,1.541,1.541,1.5761,1.6346,1.6599,1.7087,1.7633,1.792,1.8008,1.8008,1.8008,1.8008,1.8144,1.8821,1.9507,2.0226,2.0901,2.162,2.2197,2.2197,2.2197,2.233,2.2859,2.2582,2.2342,2.2871,2.3433,2.3806,2.3806,2.4602,2.5312,2.5312,2.5347,2.543,2.5571,2.5653,2.5963,2.6662,2.7239,2.7823,2.8574,2.9352,2.9792,2.9792,2.9792,2.9792,2.9792,2.9792,2.9792,2.9792,2.9792,2.9792,2.9792,2.9792,2.9792,2.9792,2.9792,2.9792,2.9792,2.9792,2.9792,0.6919,0.8082,0.9152,0.9358,1.0363,1.1373,1.167,1.1713,1.1841,1.24,1.2119,1.1856,1.2056,1.256,1.3067,1.3433,1.4163,1.4558,1.4142,1.3623,1.2956,1.1996,1.1818,1.1545,1.1028,1.0965,1.1083,1.132,1.1115,1.1365,1.2251,1.2673,1.3199,1.3881,1.4288,1.4169,1.3511,1.3351,1.3351,1.3511,1.3351,1.3731,1.4506,1.4862,1.5,1.5009,1.5156,1.5156,1.5127,1.5186,1.5264,1.5332,1.5391,1.584,1.6484,1.6638,1.732,1.8132,1.8051,1.8168,1.8361,1.8076,1.8008,1.8178,1.9144,1.9737,2.0291,2.1273,2.1862,2.2197,2.2197,2.2197,2.2378,2.3144,2.2758,2.2402,2.3168,2.3577,2.3806,2.3806,2.4602,2.5312,2.5312,2.5382,2.5418,2.5453,2.5788,2.6257,2.6934,2.7837,2.8561,2.8863,2.9453,2.9792,2.9792,2.9792,2.9792,2.9792,2.9792,2.9792,2.9792,2.9792,2.9792,2.9792,2.9792,2.9792,2.9792,2.9792,2.9792,2.9792,2.9792,2.9792,0.9543,1.0348,1.1064,1.2397,1.2217,1.1885,1.2575,1.2808,1.2832,1.2554,1.2368,1.2382,1.288,1.3195,1.3585,1.4345,1.4599,1.4715,1.4715,1.4526,1.395,1.2726,1.307,1.2926,1.1701,1.1608,1.1849,1.2451,1.1934,1.2158,1.342,1.3511,1.3821,1.4485,1.4446,1.413,1.3511,1.404,1.404,1.3511,1.413,1.4446,1.4506,1.4832,1.497,1.5009,1.5127,1.5117,1.5009,1.5127,1.5186,1.5215,1.5362,1.5703,1.6202,1.6582,1.7396,1.8344,1.8063,1.8395,1.8811,1.8202,1.8008,1.8269,1.9671,2.0096,2.0387,2.18,2.2197,2.2197,2.2197,2.2197,2.2462,2.3553,2.3035,2.2534,2.3589,2.3842,2.3854,2.3806,2.4602,2.5312,2.5312,2.5453,2.5535,2.5382,2.6103,2.678,2.7069,2.8112,2.8863,2.8963,2.9478,2.9792,2.9792,2.9792,2.9792,2.9792,2.9792,2.9792,2.9792,2.9792,2.9792,2.9792,2.9792,2.9792,2.9792,2.9792,2.9792,2.9792,2.9792,2.9792,0.7362,0.8861,1.0578,1.13,1.2064,1.267,1.2808,1.2881,1.2832,1.2554,1.256,1.2767,1.3417,1.3712,1.408,1.4763,1.4914,1.4872,1.4715,1.4112,1.3601,1.3321,1.2948,1.2604,1.2297,1.2266,1.2328,1.2481,1.2358,1.2642,1.345,1.3511,1.3821,1.4485,1.398,1.3662,1.3511,1.313,1.313,1.3511,1.3662,1.398,1.4506,1.4666,1.4843,1.5,1.5029,1.5039,1.5,1.5029,1.5098,1.5215,1.5362,1.5868,1.657,1.6668,1.7282,1.8083,1.8012,1.81,1.8202,1.8042,1.8008,1.8269,1.9671,2.0096,2.0387,2.18,2.2197,2.2197,2.2197,2.2197,2.2462,2.3553,2.3312,2.3023,2.3661,2.4073,2.4242,2.3878,2.4602,2.5312,2.5312,2.5347,2.5465,2.5723,2.6079,2.6685,2.7748,2.8098,2.8624,2.9515,2.9716,2.9792,2.9792,2.9792,2.9792,2.9792,2.9792,2.9792,2.9792,2.9792,2.9792,2.9792,2.9792,2.9792,2.9792,2.9792,2.9792,2.9792,2.9792,2.9792,0.8379,0.9761,1.1083,1.1791,1.242,1.2905,1.2905,1.2905,1.2856,1.2725,1.2759,1.301,1.3719,1.3953,1.427,1.4984,1.5039,1.4941,1.4745,1.427,1.3881,1.3631,1.3502,1.3351,1.31,1.3009,1.31,1.342,1.3169,1.326,1.3941,1.398,1.413,1.4476,1.4169,1.3821,1.3511,1.3472,1.3472,1.3511,1.3821,1.4169,1.4515,1.4636,1.4745,1.4872,1.4872,1.4823,1.4773,1.4813,1.4941,1.5127,1.5264,1.5876,1.6697,1.6697,1.7461,1.8428,1.811,1.8202,1.8428,1.811,1.8008,1.8269,1.9671,2.0096,2.0387,2.18,2.2197,2.2197,2.2197,2.2197,2.2462,2.3553,2.3396,2.3156,2.3685,2.4169,2.4374,2.3902,2.4602,2.5347,2.543,2.5535,2.5641,2.5875,2.6517,2.7242,2.7998,2.8574,2.9139,2.9729,2.9792,2.9792,2.9792,2.9792,2.9792,2.9792,2.9792,2.9792,2.9792,2.9792,2.9792,2.9792,2.9792,2.9792,2.9792,2.9792,2.9792,2.9792,2.9792,2.9792,0.9697,1.086,1.1702,1.2661,1.2905,1.2905,1.2905,1.2905,1.2905,1.2905,1.2905,1.3145,1.3888,1.406,1.4342,1.5042,1.5088,1.4941,1.4686,1.4586,1.4378,1.3932,1.4249,1.4378,1.3962,1.3782,1.3941,1.4506,1.401,1.3911,1.4476,1.4515,1.4515,1.4515,1.4387,1.413,1.367,1.4109,1.4109,1.367,1.4228,1.4515,1.4515,1.4606,1.4656,1.4656,1.4686,1.4606,1.4506,1.4695,1.4843,1.5029,1.5176,1.5816,1.6697,1.6697,1.7613,1.8754,1.8202,1.8361,1.8754,1.8168,1.8008,1.8269,1.9671,2.0096,2.0387,2.18,2.2197,2.2197,2.2197,2.2197,2.2462,2.3553,2.3469,2.3264,2.371,2.4242,2.4482,2.3914,2.4602,2.5347,2.5535,2.5758,2.591,2.591,2.6949,2.7801,2.806,2.9001,2.9679,2.9779,2.9792,2.9792,2.9792,2.9792,2.9792,2.9792,2.9792,2.9792,2.9792,2.9792,2.9856,3.0011,2.9998,2.9934,2.9792,2.9934,2.9998,2.9998,2.9998,3.0075,0.7617,0.9268,1.1299,1.2592,1.2905,1.2905,1.2905,1.2905,1.2905,1.2905,1.2905,1.3135,1.3931,1.4077,1.4315,1.4925,1.5098,1.5009,1.4595,1.4606,1.4656,1.4558,1.4627,1.4715,1.4823,1.4656,1.4597,1.4656,1.4467,1.4417,1.4515,1.4515,1.4515,1.4515,1.395,1.3881,1.4357,1.3881,1.3881,1.4357,1.4455,1.4515,1.4515,1.4506,1.4536,1.4536,1.4666,1.4606,1.4515,1.4823,1.497,1.5029,1.5284,1.5927,1.6697,1.6697,1.7298,1.811,1.8042,1.8076,1.811,1.8042,1.8008,1.8269,1.9671,2.0096,2.0387,2.18,2.2197,2.2197,2.2197,2.2197,2.2462,2.3553,2.3746,2.371,2.3782,2.4518,2.4927,2.3986,2.4602,2.5312,2.5347,2.5653,2.591,2.591,2.6746,2.7521,2.8047,2.8649,2.9239,2.9741,2.9792,2.9792,2.9792,2.9792,2.9792,2.9792,2.9792,2.9792,2.9792,2.9792,3.0101,3.0758,3.0758,3.0444,2.9792,3.0444,3.0758,3.0758,3.0758,3.1132,0.8158,0.9669,1.123,1.2573,1.2905,1.2905,1.2905,1.2905,1.2905,1.2905,1.3066,1.3418,1.3997,1.4309,1.4624,1.5051,1.5156,1.5098,1.4832,1.4823,1.4902,1.4961,1.4902,1.4941,1.5098,1.4872,1.4715,1.4715,1.4586,1.4515,1.4515,1.4515,1.4515,1.4515,1.4198,1.4198,1.4515,1.4198,1.4198,1.4515,1.4515,1.4515,1.4515,1.4515,1.4515,1.4515,1.4556,1.4565,1.4506,1.4654,1.5029,1.5508,1.5505,1.6223,1.7189,1.713,1.749,1.8008,1.8008,1.8008,1.8008,1.8008,1.8269,1.8754,1.9802,2.0355,2.088,2.1894,2.2197,2.2197,2.2197,2.2197,2.2462,2.3553,2.3806,2.3806,2.3806,2.4578,2.518,2.4723,2.5185,2.5571,2.5347,2.5816,2.6141,2.5945,2.6945,2.7833,2.8072,2.8863,2.9515,2.9767,2.9792,2.9792,2.9792,2.9792,2.9792,2.9792,2.9792,2.9792,2.9792,3.0216,3.0582,3.0895,3.0895,3.0758,3.0419,3.1206,3.1341,3.0932,3.1378,3.1746,0.8461,0.9523,1.0332,1.1973,1.2383,1.2471,1.2827,1.2905,1.2905,1.2905,1.3301,1.3734,1.4046,1.4492,1.4875,1.5177,1.5235,1.5205,1.5029,1.5039,1.5098,1.5186,1.5117,1.5088,1.5235,1.4961,1.4775,1.4775,1.4586,1.4515,1.4515,1.4515,1.4515,1.4515,1.4515,1.4515,1.4515,1.4515,1.4515,1.4515,1.4515,1.4515,1.4515,1.4515,1.4515,1.4515,1.4515,1.4515,1.4515,1.4536,1.5069,1.5885,1.5678,1.6421,1.7605,1.7586,1.777,1.8008,1.8202,1.8269,1.8236,1.8076,1.8596,1.9375,1.9933,2.0581,2.1262,2.1987,2.2197,2.2197,2.2197,2.2197,2.2462,2.3553,2.3697,2.371,2.4107,2.4566,2.4987,2.5252,2.5535,2.5653,2.5347,2.5886,2.6258,2.5945,2.7156,2.8109,2.8109,2.9101,2.9792,2.9792,2.9792,2.9792,2.9792,2.9792,2.9792,2.9792,2.9792,2.9792,2.9792,3.052,3.1007,3.118,3.1402,3.1402,3.123,3.2001,3.206,3.1513,3.211,3.2484,0.7209,0.7554,0.79,1.0391,1.0995,1.1338,1.2621,1.2905,1.2905,1.2905,1.3525,1.4085,1.4104,1.4492,1.4875,1.5177,1.5313,1.5303,1.5029,1.5098,1.5186,1.5215,1.5186,1.5235,1.5391,1.5137,1.497,1.497,1.4684,1.4515,1.4515,1.4515,1.4515,1.4515,1.4515,1.4515,1.4515,1.4515,1.4515,1.4515,1.4515,1.4515,1.4515,1.4515,1.4515,1.4515,1.4515,1.4515,1.4506,1.4636,1.5177,1.5885,1.5678,1.6421,1.7636,1.7962,1.8038,1.8076,1.8721,1.8944,1.8844,1.8202,1.8921,2.0063,2.0107,2.0581,2.1262,2.1987,2.2197,2.2197,2.2197,2.2197,2.2462,2.3553,2.3421,2.3424,2.4903,2.4494,2.4167,2.5119,2.5312,2.5312,2.5312,2.5641,2.591,2.591,2.7156,2.8109,2.8109,2.9101,2.9792,2.9792,2.9792,2.9792,2.9792,2.9792,2.9792,2.9792,2.9792,2.9792,2.9792,3.052,3.1267,3.2001,3.272,3.2755,3.2051,3.2791,3.3108,3.3073,3.3108,3.3555,0.6433,0.6979,0.7588,0.9572,1.0488,1.1103,1.1888,1.2709,1.3203,1.2964,1.3769,1.4463,1.4163,1.4679,1.5215,1.5313,1.5362,1.5362,1.5274,1.5313,1.5332,1.5332,1.5332,1.5264,1.5039,1.5013,1.4886,1.4563,1.4506,1.4515,1.4515,1.4515,1.4515,1.4515,1.4515,1.4515,1.4515,1.4515,1.4515,1.4515,1.4515,1.4515,1.4515,1.4515,1.4515,1.4515,1.4515,1.4515,1.4515,1.4565,1.5098,1.5886,1.5873,1.6582,1.7667,1.8322,1.8312,1.811,1.8787,1.9011,1.8944,1.8721,1.9606,2.0741,2.0741,2.123,2.1862,2.2123,2.2197,2.2197,2.2197,2.2197,2.2462,2.3553,2.3661,2.3854,2.5047,2.4494,2.4107,2.5107,2.5382,2.5453,2.5312,2.5723,2.6062,2.591,2.7156,2.8109,2.8109,2.9101,2.9792,2.9792,2.9792,2.9792,2.9792,2.9792,2.9792,2.9792,2.9792,2.9998,3.0482,3.1281,3.2037,3.2791,3.3555,3.3604,3.2791,3.3589,3.3707,3.3213,3.3742,3.4113,0.5446,0.6048,0.6872,0.8733,0.9406,1.0049,1.1663,1.2465,1.2939,1.3242,1.4092,1.4697,1.4377,1.4932,1.541,1.541,1.541,1.541,1.541,1.541,1.541,1.541,1.541,1.5303,1.5029,1.5003,1.4857,1.4553,1.4497,1.4515,1.4515,1.4515,1.4515,1.4515,1.4515,1.4515,1.4515,1.4515,1.4515,1.4515,1.4515,1.4515,1.4515,1.4515,1.4515,1.4515,1.4515,1.4515,1.4506,1.4675,1.5186,1.5935,1.6067,1.6898,1.8029,1.8506,1.8543,1.8395,1.8854,1.9177,1.9276,1.8821,1.9933,2.1388,2.0901,2.1431,2.2197,2.2197,2.2197,2.2197,2.2197,2.245,2.2859,2.3408,2.3673,2.4047,2.4855,2.4374,2.4107,2.5107,2.5418,2.55,2.5418,2.5793,2.6159,2.6249,2.7304,2.8172,2.836,2.9214,2.9792,2.9792,2.9792,2.9895,3.0139,2.9921,2.9895,3.0126,3.0177,3.0381,3.0895,3.1915,3.2684,3.3178,3.4011,3.4147,3.3589,3.4147,3.4113,3.3638,3.4147,3.4414,0.0,0.0,0.0,0.7788,0.771,0.8096,1.1907,1.2122,1.2015,1.3695,1.4424,1.4764,1.4775,1.5127,1.541,1.541,1.541,1.541,1.541,1.541,1.541,1.541,1.541,1.541,1.5391,1.5147,1.499,1.499,1.4666,1.4497,1.4515,1.4515,1.4515,1.4515,1.4515,1.4515,1.4515,1.4515,1.4515,1.4515,1.4515,1.4515,1.4515,1.4515,1.4515,1.4515,1.4515,1.4515,1.4536,1.4981,1.5439,1.5906,1.6234,1.7316,1.8644,1.8572,1.8744,1.9011,1.9,1.9507,1.9868,1.8472,1.9901,2.1925,2.056,2.1115,2.2197,2.2197,2.2197,2.2197,2.2197,2.2999,2.3649,2.3156,2.3421,2.3893,2.4434,2.4133,2.4107,2.5107,2.5312,2.5347,2.5571,2.5758,2.6153,2.6897,2.7637,2.8298,2.8813,2.944,2.9792,2.9792,2.983,3.0101,3.082,3.0279,3.0177,3.0895,3.0932,3.097,3.097,3.242,3.3213,3.3213,3.3997,3.4414,3.4414,3.4414,3.4414,3.4414,3.4414,3.4414,0.3807,0.0,0.0,0.0,0.0,0.0,0.9256,0.9902,1.0634,1.2379,1.3105,1.3717,1.4637,1.5127,1.541,1.541,1.541,1.541,1.541,1.541,1.541,1.541,1.541,1.5293,1.499,1.4725,1.4554,0.0,1.4229,1.4194,1.4467,1.4515,1.4515,1.4515,1.4515,1.4515,1.4515,1.4515,1.4515,1.4515,1.4515,1.4515,1.4515,1.4515,1.4515,1.4515,1.4515,1.4515,1.4506,1.4654,1.4843,1.5086,1.5682,1.6689,1.7947,1.8877,1.9123,1.9077,1.9606,1.9933,1.9933,1.9011,2.0291,2.203,2.1103,2.1463,2.2197,2.2197,2.2197,2.2197,2.2197,2.2702,2.3288,2.3529,2.3408,2.3544,2.4819,2.4398,2.4107,2.5107,2.5312,2.5347,2.5571,2.5758,2.6153,2.6897,2.7637,2.8298,2.8813,2.944,2.9792,2.9792,3.0279,3.0683,3.0895,3.1244,3.1539,3.1746,3.1783,3.2001,3.2528,3.2967,3.3485,3.4079,3.4298,3.4414,3.4414,3.4414,3.4414,3.4414,3.4414,3.4414,0.3806,0.4364,0.5103,0.5855,0.0,0.0,0.9197,0.9823,1.0576,1.3032,1.376,1.416,1.4912,1.5244,1.541,1.541,1.541,1.541,1.541,1.541,1.541,1.541,1.541,1.5312,1.5068,1.4811,1.462,1.4582,1.4322,1.4258,1.4497,1.4515,1.4515,1.4515,1.4515,1.4536,1.4586,1.4536,1.4536,1.4586,1.4536,1.4515,1.4515,1.4515,1.4515,1.4515,1.4515,1.4675,1.4951,1.4625,1.4586,1.4771,1.5517,1.671,1.8008,1.8291,1.8845,1.9474,1.9606,1.9835,2.0042,1.9606,2.072,2.2061,2.1325,2.1632,2.2197,2.2197,2.2197,2.2197,2.2197,2.2751,2.3372,2.3457,2.3408,2.3649,2.4735,2.4338,2.4107,2.5107,2.5312,2.5347,2.5571,2.5758,2.6226,2.7195,2.7787,2.8386,2.9189,2.9578,2.9792,2.9792,3.0444,3.1044,3.1378,3.1819,3.2218,3.2541,3.2541,3.2755,3.3178,3.352,3.3928,3.438,3.4414,3.4414,3.4414,3.4414,3.4414,3.4414,3.4414,3.4414,0.4176,0.465,0.5388,0.6141,0.5751,0.0,1.0058,1.0312,1.0645,1.3955,1.459,1.4582,1.4805,1.4883,1.4902,1.4853,1.5039,1.5254,1.5391,1.541,1.541,1.541,1.541,1.541,1.541,1.5128,1.4952,1.5029,1.4743,1.4545,1.4506,1.4506,1.4536,1.4545,1.4515,1.4556,1.4715,1.4556,1.4556,1.4686,1.4556,1.4515,1.4515,1.4515,1.4515,1.4515,1.4506,1.4922,1.5555,1.4843,1.4636,1.4891,1.5689,1.7052,1.8436,1.7489,1.8377,1.9998,1.9342,1.954,2.0096,2.0096,2.104,2.2061,2.1325,2.1632,2.2197,2.2197,2.2197,2.2197,2.2197,2.2963,2.3601,2.3119,2.3372,2.3866,2.4398,2.4121,2.4107,2.5107,2.5312,2.5382,2.5606,2.5793,2.6337,2.763,2.7987,2.8548,2.9744,2.9856,2.9869,3.0049,3.062,3.1378,3.2146,3.229,3.2627,3.3297,3.3332,3.3332,3.3332,3.4011,3.4414,3.4414,3.4414,3.4414,3.4414,3.4414,3.4414,3.4414,3.4414,3.4414,0.0,0.0,0.0,0.0,0.0,0.0,0.6744,0.6504,0.6804,0.0,0.9473,0.963,1.1035,1.1562,1.168,1.1359,1.2744,1.4238,1.5264,1.541,1.541,1.541,1.541,1.541,1.541,1.4859,1.4706,1.5128,1.5009,1.4823,1.4666,1.4656,1.4754,1.4891,1.4625,1.4556,1.4715,1.4556,1.4506,1.4536,1.4506,1.4515,1.4515,1.4515,1.4515,1.4506,1.4606,1.5021,1.5555,1.5098,1.5098,1.5478,1.5959,1.7042,1.8384,1.8543,1.9222,2.0063,1.9933,1.9966,2.0096,2.0096,2.104,2.2061,2.1325,2.1632,2.2197,2.2197,2.2197,2.2197,2.2197,2.2698,2.3144,2.3035,2.3095,2.3388,2.4326,2.4121,2.4107,2.5107,2.5312,2.5418,2.5793,2.5875,2.6385,2.7824,2.8073,2.8744,3.0465,3.0177,3.0292,3.1516,3.1796,3.2182,3.2932,3.3569,3.4011,3.4147,3.4147,3.4147,3.4147,3.4312,3.4414,3.4414,3.4414,3.4414,3.4414,3.4414,3.4414,3.4414,3.4414,3.4414,0.0,0.0,0.0,0.6071,0.0,0.0,0.0,0.6738,0.7014,0.9199,0.9114,0.9055,1.0361,1.042,1.0254,1.0303,1.1924,1.3115,1.2891,1.4326,1.541,1.541,1.541,1.541,1.541,1.4984,1.4782,1.4951,1.497,1.497,1.4872,1.4745,1.4775,1.5,1.4734,1.4666,1.4843,1.4666,1.4616,1.4616,1.4536,1.4515,1.4515,1.4515,1.4515,1.4506,1.4971,1.5332,1.5574,1.5371,1.542,1.5633,1.5929,1.6967,1.828,1.8227,1.8998,2.0096,2.0096,2.0096,2.0226,2.0912,2.1632,2.2123,2.1757,2.1894,2.2197,2.2197,2.2197,2.2197,2.2197,2.2582,2.2919,2.2654,2.283,2.3195,2.3977,2.3986,2.4107,2.5107,2.5312,2.5382,2.5688,2.5828,2.6373,2.7752,2.8024,2.8781,3.0677,3.0582,3.0809,3.1965,3.2434,3.2791,3.3178,3.3928,3.4414,3.4414,3.4414,3.4414,3.4414,3.4414,3.4414,3.4414,3.4414,3.4414,3.4414,3.4414,3.4414,3.4414,3.4414,3.4414,0.0,0.0,0.0,0.0,0.0,0.635,0.0,0.0,0.0,0.0,0.0,0.0,0.0,0.0,0.0,0.9248,0.0,0.0,0.0,1.2471,0.0,1.4531,1.5059,1.5312,1.5068,1.4763,1.4649,1.4756,1.4667,1.4725,1.502,1.4872,1.4863,1.5079,1.4834,1.4813,1.5,1.4784,1.4656,1.4656,1.4565,1.4515,1.4515,1.4515,1.4595,1.4734,1.5255,1.5613,1.5776,1.5584,1.5555,1.568,1.607,1.708,1.8269,1.7905,1.885,2.0258,2.0128,2.0193,2.0495,2.1769,2.2197,2.2197,2.2197,2.2197,2.2197,2.2197,2.2197,2.2197,2.2197,2.2654,2.3035,2.2474,2.2751,2.3276,2.371,2.3806,2.4083,2.4975,2.524,2.5382,2.5606,2.5886,2.6501,2.7666,2.823,2.9171,3.09,3.1119,3.1476,3.2448,3.2946,3.3262,3.3402,3.4045,3.4414,3.4414,3.4414,3.4414,3.4414,3.4414,3.4414,3.4414,3.4414,3.4414,3.4414,3.4414,3.4414,3.4414,3.4414,3.4414,0.0,0.0,0.0,0.0,0.668,0.0,0.0,0.0,0.5457,0.5711,0.0,0.0,0.0,0.0,0.0,0.0,0.0,0.0,0.808,0.9658,1.1006,1.1377,1.3779,1.4971,1.3838,1.3363,1.3652,1.4857,1.3821,1.3733,1.5109,1.5156,1.5196,1.5362,1.4913,1.4813,1.5,1.4684,1.4506,1.4506,1.4506,1.4515,1.4515,1.4515,1.4872,1.5468,1.5186,1.5633,1.6518,1.5468,1.5391,1.5961,1.694,1.7728,1.8362,1.8887,1.9891,2.0901,2.0302,2.0484,2.1135,2.1925,2.2197,2.2197,2.2197,2.2197,2.2197,2.2197,2.2197,2.2197,2.2197,2.2963,2.3577,2.3047,2.3324,2.3734,2.3794,2.3806,2.3974,2.4506,2.4987,2.5418,2.5793,2.638,2.7091,2.7934,2.9209,3.05,3.1816,3.1965,3.2506,3.3977,3.3589,3.3485,3.4196,3.4346,3.4414,3.4414,3.4414,3.4414,3.4414,3.4414,3.4414,3.4414,3.4414,3.4414,3.4414,3.4414,3.4414,3.4414,3.4414,3.4414,0.0,0.0,0.0,0.0,0.0,0.0,0.5869,0.0,0.5185,0.0,0.0,0.0,0.0,0.0,0.0,0.0,0.6735,0.0,0.0,0.0,1.0361,0.0,0.0,0.0,1.2937,1.2929,1.3517,1.4993,1.3753,1.3597,1.5216,1.5235,1.5264,1.541,1.5069,1.4911,1.5,1.4725,1.4586,1.4515,1.4515,1.4515,1.4515,1.4586,1.4971,1.5613,1.5555,1.5719,1.6034,1.5671,1.5613,1.5865,1.7159,1.8011,1.8514,1.8741,1.9796,2.0996,2.0323,2.0549,2.123,2.1956,2.2197,2.2197,2.2197,2.2197,2.2197,2.2197,2.2197,2.2197,2.2197,2.2782,2.3216,2.2654,2.2963,2.3433,2.3734,2.3806,2.4135,2.5267,2.5401,2.5652,2.6744,2.6913,2.7319,2.8508,2.9618,3.0744,3.1924,3.247,3.3157,3.4264,3.4113,3.4045,3.438,3.4414,3.4414,3.4414,3.4414,3.4414,3.4414,3.4414,3.4414,3.4414,3.4414,3.4414,3.4414,3.4414,3.4414,3.4414,3.4414,3.4414,0.8154,0.0,0.0,0.0,0.0,0.0,0.0,0.0,0.0,0.0,0.0,0.0,0.0,0.0,0.0,0.0,0.0,0.6696,0.0,0.0,0.0,0.0,0.0,0.0,0.0,0.0,0.0,0.0,0.0,1.3125,1.5264,1.5313,1.5313,1.541,1.5137,1.5,1.5,1.4754,1.4616,1.4515,1.4536,1.4565,1.4556,1.4695,1.5147,1.5738,1.5671,1.57,1.5767,1.5864,1.5835,1.5884,1.7291,1.8265,1.8917,1.897,2.002,2.1293,2.0613,2.0848,2.1494,2.203,2.2197,2.2197,2.2197,2.2197,2.2197,2.2197,2.2197,2.2221,2.2378,2.283,2.3132,2.2746,2.2951,2.3336,2.3722,2.3806,2.4226,2.5685,2.574,2.6057,2.7736,2.7571,2.7715,2.9188,3.0262,3.1261,3.2283,3.3052,3.3742,3.4346,3.4414,3.4414,3.4414,3.4414,3.4414,3.4414,3.4414,3.4414,3.4414,3.4414,3.4414,3.4414,3.4414,3.4414,3.4414,3.4414,3.4414,3.4414,3.4414,3.4414,0.0,0.0,0.0,0.707,0.0,0.0,0.0,0.0,0.5108,0.0,0.0,0.0,0.0,0.0,0.0,0.0,0.0,0.0,0.0,0.0,0.0,0.0,0.0,0.0,0.0,0.0,0.0,0.0,0.0,0.0,1.5234,1.541,1.541,1.541,1.5137,1.5,1.5,1.4654,1.4515,1.4515,1.4636,1.4686,1.4715,1.4902,1.54,1.6056,1.5342,1.543,1.6075,1.596,1.596,1.6189,1.7412,1.8617,1.97,2.0091,2.107,2.2061,2.1325,2.1557,2.2154,2.2185,2.2197,2.2197,2.2197,2.2197,2.2197,2.2197,2.2197,2.2306,2.2855,2.3384,2.377,2.3758,2.3758,2.3782,2.3806,2.3806,2.4129,2.519,2.5837,2.6722,2.8468,2.8325,2.8485,3.0018,3.1481,3.2622,3.3108,3.3859,3.438,3.4414,3.4414,3.4414,3.4414,3.4414,3.4414,3.4414,3.4414,3.4414,3.4414,3.4414,3.4414,3.4414,3.4414,3.4414,3.4414,3.4414,3.4414,3.4414,3.4414,3.4414,0.0,0.0,1.1728,0.8848,0.0,0.0,0.0,0.0,0.0,0.0,0.0,0.0,0.0,0.0,0.0,0.0,0.0,0.0,0.0,0.0,0.0,0.0,0.0,0.0,0.0,0.0,0.0,0.0,0.0,0.0,0.0,1.541,1.541,1.541,1.5137,1.5,1.5,1.4754,1.4834,1.5225,1.541,1.5497,1.5497,1.5652,1.5855,1.6056,1.5323,1.5652,1.6645,1.6132,1.6436,1.7346,1.7831,1.8972,2.0246,1.9915,2.0801,2.2154,2.1925,2.1987,2.2197,2.2197,2.2197,2.2197,2.2197,2.2197,2.2197,2.2197,2.2197,2.2306,2.2847,2.3408,2.371,2.336,2.3553,2.371,2.336,2.3553,2.4216,2.5663,2.6084,2.6858,2.8976,2.8867,2.9089,3.0707,3.1823,3.2655,3.3142,3.3894,3.4414,3.4414,3.4414,3.4414,3.4414,3.4414,3.4414,3.4414,3.4414,3.4414,3.4414,3.4414,3.4414,3.4414,3.4414,3.4414,3.4414,3.4414,3.4414,3.4414,3.4414,3.4414,1.221,1.267,0.0,0.9893,0.9416,0.0,0.6768,0.0,0.6071,0.0,0.0,0.0,0.0,0.0,0.0,0.0,0.0,0.0,0.0,0.0,0.0,0.0,0.0,0.0,0.0,0.0,0.0,0.0,0.0,0.0,0.0,0.0,1.5391,1.5332,1.5147,1.5039,1.5,1.5069,1.5313,1.5709,1.6093,1.6189,1.5989,1.6104,1.6132,1.5999,1.5342,1.5768,1.6888,1.6475,1.6944,1.8018,1.8518,1.9471,2.0553,2.0082,2.086,2.2197,2.2197,2.2197,2.2197,2.2197,2.2197,2.2197,2.2197,2.2197,2.2197,2.2197,2.2197,2.2354,2.3107,2.3553,2.3758,2.3568,2.3685,2.371,2.3372,2.3421,2.4051,2.5855,2.6189,2.6917,2.9202,2.9505,2.9933,3.149,3.2163,3.2768,3.3536,3.4079,3.4414,3.4414,3.4414,3.4414,3.4414,3.4414,3.4414,3.4414,3.4414,3.4414,3.4414,3.4414,3.4414,3.4414,3.4414,3.4414,3.4414,3.4414,3.4414,3.4414,3.4414,3.4414]}]]